[[{"header":{"parameterUnit":"m.s-1","parameterCategory":1,"la1":31.0,"la2":29.5877,"lo1":-88.7671,"lo2":-86.6584,"dy":0.0162,"dx":0.0185,"nx":115,"ny":88,"refTime":"2023-05-16T18:00:00:Z","depth":0,"parameterNumber":2,"parameterNumberName":"U-component_of_WINDS"},"data":[0.0,0.0,0.0,0.0,0.0,0.0,0.0,0.0,0.0,0.0,0.0,0.0,0.0,0.0,0.0,0.0,0.0,0.0,0.0,0.0,0.0,0.0,0.0,0.0,0.0,0.0,0.0,0.0,0.0,0.0,0.0,0.0,0.0,0.0,0.0,0.0,0.0,0.0,0.0,0.0,0.0,-0.0984,-0.2052,-0.3155,-0.3051,-0.2822,-0.2574,0.0,0.0,0.0,0.0,0.0,0.0,0.0,0.0,0.0,0.0,0.0,0.0,0.0,0.0,0.0,0.0,0.0,0.0,0.0,0.0,0.0,0.0,0.0,0.0,0.0,0.0,0.0,0.0,0.0,0.0,0.0,0.0,0.0,0.0,0.0,0.0,0.0,0.0,0.0,0.0,0.0,0.0,0.0,0.0,0.0,0.0,0.0,0.0,0.0,0.0,0.0,0.0,0.0,0.0,0.0,0.0,0.0,0.0,0.0,0.0,0.0,0.0,0.0,0.0,0.0,0.0,0.0,0.0,0.0,0.0,0.0,0.0,0.0,0.0,0.0,0.0,0.0,0.0,0.0,0.0,0.0,0.0,0.0,0.0,0.0,0.0,0.0,0.0,0.0,0.0,0.0,0.0,0.0,0.0,0.0,0.0,0.0,0.0,0.0,0.0,0.0,0.0,0.0,0.0,0.0,0.0,0.0,0.0,0.0,0.0,-0.2135,-0.3111,-0.3347,-0.341,-0.3354,0.0,0.0,0.0,0.0,0.0,0.0,0.0,0.0,0.0,0.0,0.0,0.0,0.0,0.0,0.0,0.0,0.0,0.0,0.0,0.0,0.0,0.0,0.0,0.0,0.0,0.0,0.0,0.0,0.0,0.0,0.0,0.0,0.0,0.0,0.0,0.0,0.0,0.0,0.0,0.0,0.0,0.0,0.0,0.0,0.0,0.0,0.0,0.0,0.0,0.0,0.0,0.0,0.0,0.0,0.0,0.0,0.0,0.0,0.0,0.0,0.0,0.0,0.0,0.0,0.0,0.0,0.0,0.0,0.0,0.0,0.0,0.0,0.0,0.0,0.0,0.0,0.0,0.0,0.0,0.0,0.0,0.0,0.0,0.0,0.0,0.0,0.0,0.0,0.0,0.0,0.0,0.0,0.0,0.0,0.0,0.0,0.0,0.0,0.0,0.0,0.0,0.0,0.0,0.0,0.0,0.0,0.0,0.0,0.0,0.0,-0.2432,-0.3331,-0.3751,-0.3944,-0.3904,0.0,0.0,0.0,0.0,0.0,0.0,0.0,0.0,0.0,0.0,0.0,0.0,0.0,0.0,0.0,0.0,0.0,0.0,0.0,0.0,0.0,0.0,0.0,0.0,0.0,0.0,0.0,0.0,0.0,0.0,0.0,0.0,0.0,0.0,0.0,0.0,0.0,0.0,0.0,0.0,0.0,0.0,0.0,0.0,0.0,0.0,0.0,0.0,0.0,0.0,0.0,0.0,0.0,0.0,0.0,0.0,0.0,0.0,0.0,0.0,0.0,0.0,0.0,0.0,0.0,0.0,0.0,0.0,0.0,0.0,0.0,0.0,0.0,0.0,0.0,0.0,0.0,0.0,0.0,0.0,0.0,0.0,0.0,0.0,0.0,0.0,0.0,0.0,0.0,0.0,0.0,0.0,0.0,0.0,0.0,0.0,0.0,0.0,0.0,0.0,0.0,0.0,0.0,0.0,0.0,0.0,0.0,0.0,0.0,0.0,-0.2517,-0.3378,-0.3921,-0.4283,-0.4392,-0.4256,0.0,0.0,0.0,0.0,0.0,0.0,0.0,0.0,0.0,0.0,0.0,0.0,0.0,0.0,0.0,0.0,0.0,0.0,0.0,0.0,0.0,0.0,0.0,0.0,0.0,0.0,0.0,0.0,0.0,0.0,0.0,0.0,0.0,0.0,0.0,0.0,0.0,0.0,0.0,0.0,0.0,0.0,0.0,0.0,0.0,0.0,0.0,0.0,0.0,0.0,0.0,0.0,0.0,0.0,0.0,0.0,0.0,0.0,0.0,0.0,0.0,0.0,0.0,0.0,0.0,0.0,0.0,0.0,0.0,0.0,0.0,0.0,0.0,0.0,0.0,0.0,0.0,0.0,0.0,0.0,0.0,0.0,0.0,0.0,0.0,0.0,0.0,0.0,0.0,0.0,0.0,0.0,0.0,0.0,0.0,0.0,0.0,0.0,0.0,0.0,0.0,0.0,0.0,0.0,0.0,0.0,0.0,0.0,0.0,-0.2532,-0.3325,-0.4005,-0.4491,-0.484,-0.4801,0.0,0.0,0.0,0.0,0.0,0.0,0.0,0.0,0.0,0.0,0.0,0.0,0.0,0.0,0.0,0.0,0.0,0.0,0.0,0.0,0.0,0.0,0.0,0.0,0.0,0.0,0.0,0.0,0.0,0.0,0.0,0.0,0.0,0.0,0.0,0.0,0.0,0.0,0.0,0.0,0.0,0.0,0.0,0.0,0.0,0.0,0.0,0.0,0.0,0.0,0.0,0.0,0.0,0.0,0.0,0.0,0.0,0.0,0.0,0.0,0.0,0.0,0.0,0.0,0.0,0.0,0.0,0.0,0.0,0.0,0.0,0.0,0.0,0.0,0.0,0.0,0.0,0.0,0.0,0.0,0.0,0.0,0.0,0.0,0.0,0.0,0.0,0.0,0.0,0.0,0.0,0.0,0.0,0.0,0.0,0.0,0.0,0.0,0.0,0.0,0.0,0.0,0.0,0.0,0.0,0.0,0.0,0.0,0.0,-0.2527,-0.3075,-0.4045,-0.4709,-0.5009,-0.5363,0.0,0.0,0.0,0.0,0.0,0.0,0.0,0.0,0.0,0.0,0.0,0.0,0.0,0.0,0.0,0.0,0.0,0.0,0.0,0.0,0.0,0.0,0.0,0.0,0.0,0.0,0.0,0.0,0.0,0.0,0.0,0.0,0.0,0.0,0.0,0.0,0.0,0.0,0.0,0.0,0.0,0.0,0.0,0.0,0.0,0.0,0.0,0.0,0.0,0.0,0.0,0.0,0.0,0.0,0.0,0.0,0.0,0.0,0.0,0.0,0.0,0.0,0.0,0.0,0.0,0.0,0.0,0.0,0.0,0.0,0.0,0.0,0.0,0.0,0.0,0.0,0.0,0.0,0.0,0.0,0.0,0.0,0.0,0.0,0.0,0.0,0.0,0.0,0.0,0.0,0.0,0.0,0.0,0.0,0.0,0.0,0.0,0.0,0.0,0.0,0.0,0.0,0.0,0.0,0.0,0.0,0.0,0.0,0.0,-0.3413,-0.4022,-0.4769,-0.5427,-0.5905,-0.6252,0.0,0.0,0.0,0.0,0.0,0.0,0.0,0.0,0.0,0.0,0.0,0.0,0.0,0.0,0.0,0.0,0.0,0.0,0.0,0.0,0.0,0.0,0.0,0.0,0.0,0.0,0.0,0.0,0.0,0.0,0.0,0.0,0.0,0.0,0.0,0.0,0.0,0.0,0.0,0.0,0.0,0.0,0.0,0.0,0.0,0.0,0.0,0.0,0.0,0.0,0.0,0.0,0.0,0.0,0.0,0.0,0.0,0.0,0.0,0.0,0.0,0.0,0.0,0.0,0.0,0.0,0.0,0.0,0.0,0.0,0.0,0.0,0.0,0.0,0.0,0.0,0.0,0.0,0.0,0.0,0.0,0.0,0.0,0.0,0.0,0.0,0.0,0.0,0.0,0.0,0.0,0.0,0.0,0.0,0.0,0.0,0.0,0.0,0.0,0.0,0.0,0.0,0.0,0.0,0.0,0.0,0.0,0.0,-0.4357,-0.4742,-0.5466,-0.5908,-0.6476,-0.7106,-0.7175,0.0,0.0,0.0,0.0,0.0,0.0,0.0,0.0,0.0,0.0,0.0,0.0,0.0,0.0,0.0,0.0,0.0,0.0,0.0,0.0,0.0,0.0,0.0,0.0,0.0,0.0,0.0,0.0,0.0,0.0,0.0,0.0,0.0,0.0,0.0,0.0,0.0,0.0,0.0,0.0,0.0,0.0,0.0,0.0,0.0,0.0,0.0,0.0,0.0,0.0,0.0,0.0,0.0,0.0,0.0,0.0,0.0,0.0,0.0,0.0,0.0,0.0,0.0,0.0,0.0,0.0,0.0,0.0,0.0,0.0,0.0,0.0,0.0,0.0,0.0,0.0,0.0,0.0,0.0,0.0,0.0,0.0,0.0,0.0,0.0,0.0,0.0,0.0,0.0,0.0,0.0,0.0,0.0,0.0,0.0,0.0,0.0,0.0,0.0,0.0,0.0,0.0,0.0,0.0,0.0,0.0,0.0,-0.5562,-0.6102,-0.6581,-0.6894,-0.7307,-0.7781,-0.8302,-0.8228,0.0,0.0,0.0,0.0,0.0,0.0,0.0,0.0,0.0,0.0,0.0,0.0,0.0,0.0,0.0,0.0,0.0,0.0,0.0,0.0,0.0,0.0,0.0,0.0,0.0,0.0,0.0,0.0,0.0,0.0,0.0,0.0,0.0,0.0,0.0,0.0,0.0,0.0,0.0,0.0,0.0,0.0,0.0,0.0,0.0,0.0,0.0,0.0,0.0,0.0,0.0,0.0,0.0,0.0,0.0,0.0,0.0,0.0,0.0,0.0,0.0,0.0,0.0,0.0,0.0,0.0,0.0,0.0,0.0,0.0,0.0,0.0,0.0,0.0,0.0,0.0,0.0,0.0,0.0,0.0,0.0,0.0,0.0,0.0,0.0,0.0,0.0,0.0,0.0,0.0,0.0,0.0,0.0,0.0,0.0,0.0,0.0,0.0,0.0,0.0,0.0,0.0,0.0,0.0,0.0,0.0,-0.6919,-0.7471,-0.7914,-0.8319,-0.8711,-0.9006,-0.9331,-0.9702,-0.9266,0.0,0.0,0.0,0.0,0.0,0.0,0.0,0.0,0.0,0.0,0.0,0.0,0.0,0.0,0.0,0.0,0.0,0.0,0.0,0.0,0.0,0.0,0.0,0.0,0.0,0.0,0.0,0.0,0.0,0.0,0.0,0.0,0.0,0.0,0.0,0.0,0.0,0.0,0.0,0.0,0.0,0.0,0.0,0.0,0.0,0.0,0.0,0.0,0.0,0.0,0.0,0.0,0.0,0.0,0.0,0.0,0.0,0.0,0.0,0.0,0.0,0.0,0.0,0.0,0.0,0.0,0.0,0.0,0.0,0.0,0.0,0.0,0.0,0.0,0.0,0.0,0.0,0.0,0.0,0.0,0.0,0.0,0.0,0.0,0.0,0.0,0.0,0.0,0.0,0.0,0.0,0.0,0.0,0.0,0.0,0.0,0.0,0.0,0.0,0.0,0.0,0.0,0.0,0.0,0.0,0.0,-0.8577,-0.9688,-0.9981,-1.0468,-1.1225,-1.1274,-1.1218,-1.1165,0.0,0.0,0.0,0.0,0.0,0.0,0.0,0.0,0.0,0.0,0.0,0.0,0.0,0.0,0.0,0.0,0.0,0.0,0.0,0.0,0.0,0.0,0.0,0.0,0.0,0.0,0.0,0.0,0.0,0.0,0.0,0.0,0.0,0.0,0.0,0.0,0.0,0.0,0.0,0.0,0.0,0.0,0.0,0.0,0.0,0.0,0.0,0.0,0.0,0.0,0.0,0.0,0.0,0.0,0.0,0.0,0.0,0.0,0.0,0.0,0.0,0.0,0.0,0.0,0.0,0.0,0.0,0.0,0.0,0.0,0.0,0.0,0.0,0.0,0.0,0.0,0.0,0.0,0.0,0.0,0.0,0.0,0.0,0.0,0.0,0.0,0.0,0.0,0.0,0.0,0.0,0.0,0.0,0.0,0.0,0.0,0.0,0.0,0.0,0.0,0.0,0.0,0.0,0.0,0.0,0.0,0.0,-1.0428,-1.2301,-1.2675,-1.3557,-1.5006,-1.4437,-1.3674,-1.2732,0.0,0.0,0.0,0.0,0.0,0.0,0.0,0.0,0.0,0.0,0.0,0.0,0.0,0.0,0.0,0.0,0.0,0.0,0.0,0.0,0.0,0.0,0.0,0.0,0.0,0.0,0.0,0.0,0.0,0.0,0.0,0.0,0.0,0.0,0.0,0.0,0.0,0.0,0.0,0.0,0.0,0.0,0.0,0.0,0.0,0.0,0.0,0.0,0.0,0.0,0.0,0.0,0.0,0.0,0.0,0.0,0.0,0.0,0.0,0.0,0.0,0.0,0.0,0.0,0.0,0.0,0.0,0.0,0.0,0.0,0.0,0.0,0.0,0.0,0.0,0.0,0.0,0.0,0.0,0.0,0.0,0.0,0.0,0.0,0.0,0.0,0.0,0.0,0.0,0.0,0.0,0.0,0.0,0.0,0.0,0.0,0.0,0.0,0.0,0.0,0.0,0.0,0.0,0.0,0.0,0.0,-0.9877,-1.1612,-1.3471,-1.4156,-1.495,-1.6047,-1.5515,-1.4751,-1.3851,0.0,0.0,0.0,0.0,0.0,0.0,0.0,0.0,0.0,0.0,0.0,0.0,0.0,0.0,0.0,0.0,0.0,0.0,0.0,0.0,0.0,0.0,0.0,0.0,0.0,0.0,0.0,0.0,0.0,0.0,0.0,0.0,0.0,0.0,0.0,0.0,0.0,0.0,0.0,0.0,0.0,0.0,0.0,0.0,0.0,0.0,0.0,0.0,0.0,0.0,0.0,0.0,0.0,0.0,0.0,0.0,0.0,0.0,0.0,0.0,0.0,0.0,0.0,0.0,0.0,0.0,0.0,0.0,0.0,0.0,0.0,0.0,0.0,0.0,0.0,0.0,0.0,0.0,0.0,0.0,0.0,0.0,0.0,0.0,0.0,0.0,0.0,0.0,0.0,0.0,0.0,0.0,0.0,0.0,0.0,0.0,0.0,0.0,0.0,0.0,0.0,0.0,0.0,0.0,0.0,-0.943,-1.0978,-1.2864,-1.4977,-1.5711,-1.6408,-1.7198,-1.6862,-1.6133,-1.5005,0.0,0.0,0.0,0.0,0.0,0.0,0.0,0.0,0.0,0.0,0.0,0.0,0.0,0.0,0.0,0.0,0.0,0.0,0.0,0.0,0.0,0.0,0.0,0.0,0.0,0.0,0.0,0.0,0.0,0.0,0.0,0.0,0.0,0.0,0.0,0.0,0.0,0.0,0.0,0.0,0.0,0.0,0.0,0.0,0.0,0.0,0.0,0.0,0.0,0.0,0.0,0.0,0.0,0.0,0.0,0.0,0.0,0.0,0.0,0.0,0.0,0.0,0.0,0.0,0.0,0.0,0.0,0.0,0.0,0.0,0.0,0.0,0.0,0.0,0.0,0.0,0.0,0.0,0.0,0.0,0.0,0.0,0.0,0.0,0.0,0.0,0.0,0.0,0.0,0.0,0.0,0.0,0.0,0.0,0.0,0.0,0.0,0.0,0.0,0.0,0.0,0.0,0.0,0.0,0.0,0.0,-1.2095,-1.4439,-1.7449,-1.7743,-1.8311,-1.9385,-1.9178,-1.8268,-1.6603,0.0,0.0,0.0,0.0,0.0,0.0,0.0,0.0,0.0,0.0,0.0,0.0,0.0,0.0,0.0,0.0,0.0,0.0,0.0,0.0,0.0,0.0,0.0,0.0,0.0,0.0,0.0,0.0,0.0,0.0,0.0,0.0,0.0,0.0,0.0,0.0,0.0,0.0,0.0,0.0,0.0,0.0,0.0,0.0,0.0,0.0,0.0,0.0,0.0,0.0,0.0,0.0,0.0,0.0,0.0,0.0,0.0,0.0,0.0,0.0,0.0,0.0,0.0,0.0,0.0,0.0,0.0,0.0,0.0,0.0,0.0,0.0,0.0,0.0,0.0,0.0,0.0,0.0,0.0,0.0,0.0,0.0,0.0,0.0,0.0,0.0,0.0,0.0,0.0,0.0,0.0,0.0,0.0,0.0,0.0,0.0,0.0,0.0,0.0,0.0,0.0,0.0,0.0,0.0,0.0,0.0,-1.3402,-1.5145,-1.7519,-1.8845,-1.9637,-1.9892,-1.9461,-1.8722,-1.7771,0.0,0.0,0.0,0.0,0.0,0.0,0.0,0.0,0.0,0.0,0.0,0.0,0.0,0.0,0.0,0.0,0.0,0.0,0.0,0.0,0.0,0.0,0.0,0.0,0.0,0.0,0.0,0.0,0.0,0.0,0.0,0.0,0.0,0.0,0.0,0.0,0.0,0.0,0.0,0.0,0.0,0.0,0.0,0.0,0.0,0.0,0.0,0.0,0.0,0.0,0.0,0.0,0.0,0.0,0.0,0.0,0.0,0.0,0.0,0.0,0.0,0.0,0.0,0.0,0.0,0.0,0.0,0.0,0.0,0.0,0.0,0.0,0.0,0.0,0.0,0.0,0.0,0.0,0.0,0.0,0.0,0.0,0.0,0.0,0.0,0.0,0.0,0.0,0.0,0.0,0.0,0.0,0.0,0.0,0.0,0.0,0.0,0.0,0.0,0.0,0.0,0.0,0.0,0.0,0.0,0.0,-1.4572,-1.6074,-1.8509,-2.0066,-2.0761,-2.0616,-2.0155,-1.9439,0.0,0.0,0.0,0.0,0.0,0.0,0.0,0.0,0.0,0.0,0.0,0.0,0.0,0.0,0.0,0.0,0.0,0.0,0.0,0.0,0.0,0.0,0.0,0.0,0.0,0.0,0.0,0.0,0.0,0.0,0.0,0.0,0.0,0.0,0.0,0.0,0.0,0.0,0.0,0.0,0.0,0.0,0.0,0.0,0.0,0.0,0.0,0.0,0.0,0.0,0.0,0.0,0.0,0.0,0.0,0.0,0.0,0.0,0.0,0.0,0.0,0.0,0.0,0.0,0.0,0.0,0.0,0.0,0.0,0.0,0.0,0.0,0.0,0.0,0.0,0.0,0.0,0.0,0.0,0.0,0.0,0.0,0.0,0.0,0.0,0.0,0.0,0.0,0.0,0.0,0.0,0.0,0.0,0.0,0.0,0.0,0.0,0.0,0.0,0.0,0.0,0.0,0.0,0.0,0.0,0.0,0.0,-1.5666,-1.7419,-2.0619,-2.1348,-2.167,-2.169,-2.1417,-2.0428,0.0,0.0,0.0,0.0,0.0,0.0,0.0,0.0,0.0,0.0,0.0,0.0,0.0,0.0,0.0,0.0,0.0,0.0,0.0,0.0,0.0,0.0,0.0,0.0,0.0,0.0,0.0,0.0,0.0,0.0,0.0,0.0,0.0,0.0,0.0,0.0,0.0,0.0,0.0,0.0,0.0,0.0,0.0,0.0,0.0,0.0,0.0,0.0,0.0,0.0,0.0,0.0,0.0,0.0,0.0,0.0,0.0,0.0,0.0,0.0,0.0,0.0,0.0,0.0,0.0,0.0,0.0,0.0,0.0,0.0,0.0,0.0,0.0,0.0,0.0,0.0,0.0,0.0,0.0,0.0,0.0,0.0,0.0,0.0,0.0,0.0,0.0,0.0,0.0,0.0,0.0,0.0,0.0,0.0,0.0,0.0,0.0,0.0,0.0,0.0,0.0,0.0,0.0,0.0,0.0,0.0,0.0,-1.9134,-1.9858,-2.0653,-2.1655,-2.2424,-2.2863,-2.1821,-2.1071,-2.0663,0.0,0.0,0.0,0.0,0.0,0.0,0.0,0.0,0.0,0.0,0.0,0.0,0.0,0.0,0.0,0.0,0.0,0.0,0.0,0.0,0.0,0.0,0.0,0.0,0.0,0.0,0.0,0.0,0.0,0.0,0.0,0.0,0.0,0.0,0.0,0.0,0.0,0.0,0.0,0.0,0.0,0.0,0.0,0.0,0.0,0.0,0.0,0.0,0.0,0.0,0.0,0.0,0.0,0.0,0.0,0.0,0.0,0.0,0.0,0.0,0.0,0.0,0.0,0.0,0.0,0.0,0.0,0.0,0.0,0.0,0.0,0.0,0.0,0.0,0.0,0.0,0.0,0.0,0.0,0.0,0.0,0.0,0.0,0.0,0.0,0.0,0.0,0.0,0.0,0.0,0.0,0.0,0.0,0.0,0.0,0.0,0.0,0.0,0.0,0.0,0.0,0.0,0.0,0.0,0.0,0.0,-2.2364,-2.325,-2.3335,-2.3882,-2.4531,-2.5225,-2.4182,-2.3081,-2.1888,0.0,0.0,0.0,0.0,0.0,0.0,0.0,0.0,0.0,0.0,0.0,0.0,0.0,0.0,0.0,0.0,0.0,0.0,0.0,0.0,0.0,0.0,0.0,0.0,0.0,0.0,0.0,0.0,0.0,0.0,0.0,0.0,0.0,0.0,0.0,0.0,0.0,0.0,0.0,0.0,0.0,0.0,0.0,0.0,0.0,0.0,0.0,0.0,0.0,0.0,0.0,0.0,0.0,0.0,0.0,0.0,0.0,0.0,0.0,0.0,0.0,0.0,0.0,0.0,0.0,0.0,0.0,0.0,0.0,0.0,0.0,0.0,0.0,0.0,0.0,0.0,0.0,0.0,0.0,0.0,0.0,0.0,0.0,0.0,0.0,0.0,0.0,0.0,0.0,0.0,0.0,0.0,0.0,0.0,0.0,0.0,0.0,0.0,0.0,0.0,0.0,0.0,0.0,0.0,0.0,0.0,0.0,-2.7092,-2.8145,-2.7826,-2.7922,-2.845,-2.7939,-2.6061,-2.2622,0.0,0.0,0.0,0.0,0.0,0.0,0.0,0.0,0.0,0.0,0.0,0.0,0.0,0.0,0.0,0.0,0.0,0.0,0.0,0.0,0.0,0.0,0.0,0.0,0.0,0.0,0.0,0.0,0.0,0.0,0.0,0.0,0.0,0.0,0.0,0.0,0.0,0.0,0.0,0.0,0.0,0.0,0.0,0.0,0.0,0.0,0.0,0.0,0.0,0.0,0.0,0.0,0.0,0.0,0.0,0.0,0.0,0.0,0.0,0.0,0.0,0.0,0.0,0.0,0.0,0.0,0.0,0.0,0.0,0.0,0.0,0.0,0.0,0.0,0.0,0.0,0.0,0.0,0.0,0.0,0.0,0.0,0.0,0.0,0.0,0.0,0.0,0.0,0.0,0.0,0.0,0.0,0.0,0.0,0.0,0.0,0.0,0.0,0.0,0.0,0.0,0.0,0.0,0.0,0.0,0.0,-2.5887,-2.8251,-3.1314,-3.2224,-3.2422,-3.1871,-2.9321,-2.7169,-2.5507,0.0,0.0,0.0,0.0,0.0,0.0,0.0,0.0,0.0,0.0,0.0,0.0,0.0,0.0,0.0,0.0,0.0,0.0,0.0,0.0,0.0,0.0,0.0,0.0,0.0,0.0,0.0,0.0,0.0,0.0,0.0,0.0,0.0,0.0,0.0,0.0,0.0,0.0,0.0,0.0,0.0,0.0,0.0,0.0,0.0,0.0,0.0,0.0,0.0,0.0,0.0,0.0,0.0,0.0,0.0,0.0,0.0,0.0,0.0,0.0,0.0,0.0,0.0,0.0,0.0,0.0,0.0,0.0,0.0,0.0,0.0,0.0,0.0,0.0,0.0,0.0,0.0,0.0,0.0,0.0,0.0,0.0,0.0,0.0,0.0,0.0,0.0,0.0,0.0,0.0,0.0,0.0,0.0,0.0,0.0,0.0,0.0,0.0,0.0,0.0,0.0,0.0,0.0,0.0,0.0,0.0,-2.711,-2.9379,-3.2646,-3.4299,-3.5112,-3.5175,-3.1946,-2.923,-2.7242,0.0,0.0,0.0,0.0,0.0,0.0,0.0,0.0,0.0,0.0,0.0,0.0,0.0,0.0,0.0,0.0,0.0,0.0,0.0,0.0,0.0,0.0,0.0,0.0,0.0,0.0,0.0,0.0,0.0,0.0,0.0,0.0,0.0,0.0,0.0,0.0,0.0,0.0,0.0,0.0,0.0,0.0,0.0,0.0,0.0,0.0,0.0,0.0,-2.5555,0.0,0.0,0.0,0.0,0.0,0.0,0.0,0.0,0.0,0.0,0.0,0.0,0.0,0.0,0.0,0.0,0.0,0.0,0.0,0.0,0.0,0.0,0.0,0.0,0.0,0.0,0.0,0.0,0.0,0.0,0.0,0.0,0.0,0.0,0.0,0.0,0.0,0.0,0.0,0.0,0.0,0.0,0.0,0.0,0.0,0.0,0.0,0.0,0.0,0.0,0.0,0.0,0.0,0.0,0.0,-2.4505,-2.6729,-2.839,-3.0372,-3.2654,-3.4642,-3.6325,-3.759,-3.4775,-3.1644,-2.8404,0.0,0.0,0.0,0.0,0.0,0.0,0.0,0.0,0.0,0.0,0.0,0.0,0.0,0.0,0.0,0.0,0.0,0.0,0.0,0.0,0.0,0.0,0.0,0.0,0.0,0.0,0.0,0.0,0.0,0.0,0.0,0.0,0.0,0.0,0.0,0.0,0.0,0.0,0.0,0.0,0.0,0.0,0.0,0.0,0.0,0.0,0.0,-3.0252,-2.7539,0.0,0.0,0.0,0.0,0.0,0.0,0.0,0.0,0.0,0.0,0.0,0.0,0.0,0.0,0.0,0.0,0.0,0.0,0.0,0.0,0.0,0.0,0.0,0.0,0.0,0.0,0.0,0.1136,0.0,0.1445,0.0,0.0,0.0,0.0,0.0,0.0,0.0,0.0,0.0,0.0,0.0,0.0,0.0,0.0,0.0,0.0,0.0,0.0,0.0,0.0,0.0,0.0,0.0,0.0,-2.2693,-2.4849,-2.7511,-2.8547,-3.0182,-3.2563,-3.3998,-3.5424,-3.6894,-3.4473,-3.2192,-3.0227,0.0,0.0,0.0,0.0,0.0,0.0,0.0,0.0,0.0,0.0,0.0,0.0,0.0,0.0,0.0,0.0,0.0,0.0,0.0,0.0,0.0,0.0,0.0,0.0,0.0,0.0,0.0,0.0,0.0,0.0,0.0,0.0,0.0,0.0,0.0,0.0,0.0,0.0,0.0,0.0,0.0,0.0,0.0,0.0,0.0,0.0,0.0,-3.1376,0.0,0.0,0.0,0.0,0.0,0.0,0.0,0.0,0.0,0.0,0.0,0.0,0.0,0.0,0.0,0.0,0.0,0.0,0.0,0.0,0.0,0.0,0.0,0.0,0.0,0.0,0.0,0.0,0.0301,0.0503,0.0639,0.0,0.0,0.0,0.0,0.0,0.0,0.0,0.0,0.0,0.0,0.0,0.0,0.0,0.0,0.0,0.0,0.0,0.0,0.0,0.0,0.0,0.0,0.0,-2.1043,-2.2855,-2.5136,-2.7806,-2.8332,-2.9796,-3.2321,-3.3393,-3.4735,-3.6324,-3.4177,-3.2417,-3.1375,0.0,0.0,0.0,0.0,0.0,0.0,0.0,0.0,0.0,0.0,0.0,0.0,0.0,0.0,0.0,0.0,0.0,0.0,0.0,0.0,0.0,0.0,0.0,0.0,0.0,0.0,0.0,0.0,0.0,0.0,0.0,0.0,0.0,0.0,0.0,0.0,0.0,-2.8169,-2.8885,0.0,0.0,0.0,0.0,0.0,0.0,0.0,0.0,-3.3283,-3.2004,0.0,0.0,0.0,0.0,0.0,0.0,0.0,0.0,0.0,0.0,0.0,0.0,0.0,0.0,0.0,0.0,0.0,0.0,0.0,0.0,0.0,0.0,0.0,0.0,0.0,0.0,0.0,-0.067,-0.0573,-0.0407,0.0,0.0,0.0,0.0,0.0,0.0,0.0,0.0,0.0,0.0,0.0,0.0,0.0,0.0,0.0,0.0,0.0,0.0,0.0,0.0,0.0,0.0,0.0,-2.092,-2.2978,-2.5363,-2.7867,-2.817,-2.9496,-3.2069,-3.2844,-3.4195,-3.6203,-3.3965,-3.2512,-3.2021,0.0,0.0,0.0,0.0,0.0,0.0,0.0,0.0,0.0,0.0,0.0,0.0,0.0,0.0,0.0,0.0,0.0,0.0,0.0,0.0,0.0,0.0,0.0,0.0,0.0,0.0,0.0,0.0,0.0,0.0,0.0,0.0,0.0,0.0,0.0,0.0,0.0,-2.8508,-2.9726,-3.1789,-3.3468,0.0,0.0,0.0,0.0,0.0,0.0,0.0,-3.4004,-3.2633,-3.2171,0.0,0.0,0.0,0.0,0.0,0.0,0.0,0.0,0.0,0.0,0.0,0.0,0.0,0.0,0.0,0.0,0.0,0.0,0.0,0.0,0.0,0.0,0.0,0.0,0.0,-0.1838,-0.1818,-0.1746,0.0,0.0,0.0,0.0,0.0,0.0,0.0,0.0,0.0,0.0,0.0,0.0,0.0,0.0,0.0,0.0,0.0,0.0,0.0,0.0,0.0,0.0,0.0,0.0,-2.3199,-2.5331,-2.7976,-2.8462,-2.9795,-3.2053,-3.2581,-3.3923,-3.613,-3.4075,-3.2677,-3.2105,-2.8294,0.0,0.0,0.0,0.0,0.0,0.0,0.0,0.0,0.0,0.0,0.0,0.0,0.0,0.0,0.0,0.0,0.0,0.0,0.0,0.0,0.0,0.0,0.0,0.0,0.0,0.0,0.0,0.0,0.0,0.0,0.0,0.0,0.0,0.0,0.0,0.0,-2.9664,-3.4004,-3.4005,-3.4499,-3.6887,0.0,0.0,0.0,0.0,0.0,-3.6682,-3.558,-3.4798,-3.5353,-3.2122,0.0,0.0,0.0,0.0,0.0,0.0,0.0,0.0,0.0,0.0,0.0,0.0,0.0,0.0,0.0,0.0,0.0,0.0,0.0,0.0,0.0,0.0,0.0,0.0,-0.3014,-0.3086,-0.3196,-0.3175,-0.3079,0.0,0.0,0.0,0.0,-0.3,0.0,0.0,0.0,0.0,0.0,0.0,0.0,0.0,0.0,0.0,0.0,0.0,0.0,0.0,0.0,0.0,0.0,-2.3668,-2.5725,-2.7962,-2.9168,-3.049,-3.2034,-3.2731,-3.4091,-3.6166,-3.4093,-3.2759,-3.2396,0.0,0.0,0.0,0.0,0.0,0.0,0.0,0.0,0.0,0.0,0.0,0.0,0.0,0.0,0.0,0.0,0.0,0.0,0.0,0.0,0.0,0.0,0.0,0.0,0.0,0.0,0.0,0.0,0.0,0.0,0.0,0.0,0.0,0.0,0.0,0.0,0.0,0.0,-3.4507,-3.6154,-3.7248,-3.7602,-3.6552,-3.5559,-3.4983,-3.5289,-3.5774,-3.6325,-3.5651,-3.5155,-3.5492,0.0,0.0,0.0,0.0,0.0,0.0,0.0,0.0,0.0,0.0,0.0,0.0,0.0,0.0,0.0,0.0,0.0,0.0,0.0,0.0,0.0,0.0,0.0,0.0,0.0,0.0,-0.4651,-0.4807,-0.4771,-0.4678,-0.4514,0.0,0.0,0.0,-0.3668,-0.3874,0.0,0.0,0.0,0.0,0.0,0.0,0.0,0.0,0.0,0.0,0.0,0.0,0.0,0.0,0.0,0.0,-2.4205,-2.6165,-2.7918,-2.9615,-3.1091,-3.2279,-3.2973,-3.4149,-3.5813,-3.4003,-3.2858,-3.2415,0.0,0.0,0.0,0.0,0.0,0.0,0.0,0.0,0.0,0.0,0.0,0.0,0.0,0.0,0.0,0.0,0.0,0.0,0.0,0.0,0.0,0.0,0.0,0.0,0.0,0.0,0.0,0.0,0.0,0.0,0.0,0.0,0.0,0.0,0.0,0.0,0.0,0.0,0.0,-3.7851,-3.955,-3.848,-3.7981,-3.7294,-3.6191,-3.6132,-3.6272,-3.6272,-3.6141,-3.5918,0.0,0.0,0.0,0.0,0.0,0.0,0.0,0.0,0.0,0.0,0.0,0.0,0.0,0.0,0.0,0.0,0.0,0.0,0.0,0.0,0.0,0.0,-0.6019,-0.6298,0.0,0.0,-0.6621,-0.6833,-0.6905,-0.6702,-0.6493,-0.6259,-0.5824,-0.5437,0.0,-0.5089,-0.5194,-0.5519,0.0,0.0,0.0,0.0,0.0,0.0,0.0,0.0,0.0,0.0,0.0,0.0,0.0,0.0,0.0,0.0,-2.642,-2.7341,-2.9207,-3.1092,-3.2938,-3.3047,-3.3529,-3.457,-3.3798,-3.2943,-3.2039,0.0,0.0,0.0,0.0,0.0,0.0,0.0,0.0,0.0,0.0,0.0,0.0,0.0,0.0,0.0,0.0,0.0,0.0,0.0,0.0,0.0,0.0,0.0,0.0,0.0,-1.9647,0.0,0.0,0.0,0.0,0.0,0.0,0.0,0.0,0.0,0.0,0.0,0.0,0.0,0.0,-3.9452,-4.1222,-3.9226,-3.7363,-3.6985,-3.7644,-3.8209,-3.8127,-3.8797,-3.8843,0.0,0.0,0.0,0.0,0.0,0.0,0.0,0.0,0.0,0.0,0.0,0.0,0.0,0.0,0.0,0.0,0.0,0.0,0.0,0.0,0.0,0.0,-0.7521,-0.7664,-0.7757,-0.7797,-0.8234,-0.8512,-0.8663,-0.8483,-0.8251,-0.7874,-0.7119,-0.6625,-0.6343,-0.6094,-0.6218,-0.6639,0.0,0.0,0.0,0.0,0.0,0.0,0.0,0.0,0.0,0.0,0.0,0.0,-1.7037,-1.9233,-2.177,-2.4951,-2.7113,-2.8308,-3.0463,-3.2148,-3.3278,-3.31,-3.3449,-3.437,-3.3665,-3.2912,0.0,0.0,0.0,0.0,0.0,0.0,0.0,0.0,0.0,0.0,0.0,0.0,0.0,0.0,0.0,0.0,0.0,0.0,0.0,0.0,0.0,0.0,0.0,0.0,0.0,-1.9811,-2.1054,-2.2832,0.0,0.0,0.0,0.0,0.0,0.0,0.0,0.0,0.0,0.0,0.0,0.0,0.0,-4.0551,-4.0593,-3.9927,-3.9073,-3.8076,-3.83,-3.8222,-3.7148,-3.8582,-3.8948,0.0,0.0,0.0,0.0,0.0,0.0,0.0,0.0,0.0,0.0,0.0,0.0,0.0,0.0,0.0,0.0,0.0,0.0,-1.0648,-1.0442,-0.9648,-0.93,-0.9286,-0.9289,-0.9469,-0.9801,-1.0034,-1.0362,-1.0681,-1.0508,-1.0148,-0.9636,-0.877,-0.815,-0.7802,-0.7397,-0.7551,-0.819,-0.8513,0.0,0.0,0.0,0.0,0.0,0.0,0.0,0.0,0.0,0.0,-1.5928,-1.7364,-1.9262,-2.1653,-2.5153,-2.7915,-2.9728,-3.1541,-3.2813,-3.344,-3.3018,-3.3111,-3.3872,-3.3306,-3.2651,0.0,0.0,0.0,0.0,0.0,0.0,0.0,0.0,0.0,0.0,0.0,0.0,0.0,0.0,0.0,0.0,0.0,0.0,0.0,0.0,0.0,0.0,0.0,-1.8776,-2.0146,-2.1427,-2.2852,-2.4415,-2.6094,0.0,-2.7924,0.0,0.0,0.0,0.0,0.0,0.0,0.0,0.0,0.0,0.0,-4.1368,-4.011,-4.0448,-4.0465,-3.9508,-3.8946,-3.8339,-3.7361,-3.9049,-3.9401,0.0,0.0,0.0,0.0,0.0,0.0,0.0,0.0,0.0,0.0,0.0,0.0,0.0,0.0,0.0,0.0,0.0,0.0,-1.2267,-1.2193,-1.1749,-1.1463,-1.1466,-1.1419,-1.1755,-1.2378,-1.2452,-1.2805,-1.3276,-1.2913,-1.2415,-1.1717,-1.1003,-1.0374,-0.9684,-0.9296,-0.9529,-1.0294,-1.0447,0.0,0.0,0.0,0.0,0.0,0.0,0.0,0.0,0.0,0.0,-1.6606,-1.817,-1.9911,-2.1807,-2.5404,-2.8641,-3.1339,-3.1711,-3.2493,-3.3692,-3.2647,-3.2242,-3.2603,-3.2453,-3.2074,0.0,0.0,0.0,0.0,0.0,0.0,0.0,0.0,0.0,0.0,0.0,0.0,0.0,0.0,0.0,0.0,0.0,0.0,0.0,0.0,0.0,0.0,0.0,0.0,-2.1488,-2.3322,-2.5144,-2.6813,-2.7251,-2.7884,-2.881,0.0,0.0,0.0,0.0,0.0,0.0,0.0,0.0,0.0,0.0,-4.1323,-4.1204,-4.0801,-4.0763,-4.1259,-3.9893,-3.9228,-4.0529,-4.1687,-4.1429,-3.8221,-3.694,-3.5431,0.0,0.0,0.0,0.0,0.0,0.0,0.0,0.0,0.0,0.0,0.0,0.0,0.0,0.0,0.0,-1.5289,-1.4595,-1.4412,-1.3802,-1.3012,-1.3036,-1.33,-1.3691,-1.3985,-1.4189,-1.4304,-1.3962,-1.3436,-1.2742,-1.1966,-1.1393,-1.1032,-1.0863,-1.1156,-1.1916,-1.3045,0.0,0.0,0.0,0.0,0.0,0.0,0.0,0.0,0.0,0.0,-1.7088,-1.8726,-2.0305,-2.1881,-2.5778,-2.8792,-3.0844,-3.1974,-3.2934,-3.3603,-3.2574,-3.2023,-3.2092,-3.2144,-3.1878,-3.1235,0.0,0.0,0.0,0.0,0.0,0.0,0.0,0.0,0.0,0.0,0.0,0.0,0.0,0.0,0.0,0.0,0.0,0.0,0.0,0.0,0.0,0.0,0.0,0.0,-2.5281,-2.685,-2.8237,-2.9334,-3.0058,-3.0328,-3.0814,0.0,0.0,0.0,0.0,0.0,0.0,0.0,-3.5744,0.0,-4.0979,-4.1684,-4.184,-4.1779,-4.1633,-4.0969,-4.0478,-4.0354,-4.1214,-4.0853,-3.7851,-3.6666,-3.53,-3.2739,0.0,0.0,0.0,0.0,0.0,0.0,0.0,0.0,0.0,0.0,0.0,0.0,0.0,0.0,-1.7811,-1.6789,-1.6823,-1.6102,-1.5029,-1.5024,-1.5286,-1.56,-1.5843,-1.599,-1.5954,-1.5369,-1.4755,-1.4064,-1.314,-1.2593,-1.2406,-1.2331,-1.2926,-1.4136,-1.6321,-1.7473,0.0,0.0,0.0,0.0,0.0,0.0,0.0,0.0,0.0,-1.8162,-1.953,-2.0966,-2.2513,-2.6177,-2.872,-2.9989,-3.1434,-3.2415,-3.292,-3.1828,-3.1335,-3.1462,-3.137,-3.1056,-3.0622,0.0,0.0,0.0,0.0,-2.4033,0.0,0.0,0.0,0.0,0.0,0.0,0.0,0.0,0.0,0.0,0.0,0.0,0.0,0.0,0.0,0.0,0.0,0.0,0.0,0.0,-2.8966,-3.017,-3.1136,-3.1668,-3.1628,-3.1715,-3.1954,-3.2432,0.0,0.0,0.0,0.0,0.0,0.0,-3.8517,-4.1028,-4.1461,-4.184,-4.201,-4.1734,-4.1241,-4.0707,-4.0325,-4.0878,-4.0525,-3.818,-3.7341,-3.6292,-3.4211,-3.3439,-3.2967,-3.2475,-3.2038,-3.1839,-3.1965,0.0,0.0,0.0,0.0,0.0,0.0,0.0,0.0,-1.936,-1.8435,-1.8614,-1.8349,-1.7669,-1.7541,-1.7811,-1.8375,-1.8239,-1.8349,-1.8623,-1.7468,-1.6614,-1.5963,-1.4864,-1.4247,-1.3986,-1.385,-1.4857,-1.7076,-2.0343,-2.1527,-2.1035,-2.1077,-2.0792,-2.0084,-1.8866,-1.8341,-1.8499,-1.8167,-1.8719,-1.9924,-2.0737,-2.2046,-2.3944,-2.6719,-2.8456,-2.9118,-2.9935,-3.0667,-3.1377,-3.0221,-2.9954,-3.0664,-2.9837,-2.936,-2.932,0.0,0.0,0.0,0.0,-2.4118,0.0,0.0,0.0,0.0,0.0,0.0,0.0,0.0,0.0,0.0,0.0,0.0,0.0,0.0,0.0,0.0,0.0,0.0,0.0,0.0,-3.1632,-3.2939,-3.2508,-3.2232,-3.2553,-3.1643,-3.1773,0.0,0.0,0.0,0.0,0.0,-3.5814,-3.5202,-3.903,-4.1518,-4.0373,-4.0502,-4.113,-4.1886,-4.0448,-3.9666,-4.0959,-4.1153,-4.0832,-3.9506,-3.9192,0.0,0.0,0.0,0.0,0.0,0.0,0.0,0.0,0.0,0.0,0.0,0.0,0.0,0.0,0.0,0.0,-2.1519,-2.039,-2.0237,-1.9538,-1.8593,-1.9014,-1.943,-1.9731,-2.0221,-2.0195,-1.9705,-1.9008,-1.813,-1.7075,-1.6273,-1.5913,-1.5987,-1.6467,-1.7961,-2.0116,-2.1518,-2.2696,-2.3688,-2.3505,-2.3331,-2.3119,-2.2032,-2.0979,-2.0099,-1.974,-1.9949,-2.0712,-2.1898,-2.3148,-2.4359,-2.7282,-2.8815,-2.8961,-3.0291,-3.0741,-3.0237,-2.9777,-2.9385,-2.9046,-2.8716,-2.8281,-2.7688,-2.6557,0.0,0.0,-2.4897,-2.4429,0.0,0.0,0.0,0.0,0.0,0.0,0.0,0.0,0.0,0.0,0.0,0.0,0.0,0.0,0.0,0.0,0.0,0.0,0.0,0.0,-3.2769,-3.438,-3.3848,-3.3552,-3.4076,-3.3901,-3.4145,-3.5122,-3.5605,-3.5807,-3.5863,-3.6273,-3.6911,-3.7813,-3.9282,-4.0422,-4.0835,-4.1374,-4.2082,-4.2888,-4.1811,-4.1045,-4.1444,-4.091,-3.9706,-3.7747,-3.7277,-3.6594,-3.4844,-3.5361,-3.6116,-3.641,-3.633,-3.5836,-3.4648,-3.5273,-3.6039,-3.6091,-3.6753,-3.7379,-3.7482,-3.7057,-3.6931,-2.3055,-2.2005,-2.1637,-2.0919,-2.0018,-2.0854,-2.1159,-2.1195,-2.1836,-2.1784,-2.1223,-2.0583,-1.9679,-1.8596,-1.8064,-1.7922,-1.8112,-1.9422,-2.083,-2.2305,-2.3211,-2.4067,-2.4952,-2.4718,-2.4627,-2.4695,-2.3936,-2.3219,-2.2448,-2.1647,-2.1611,-2.2248,-2.3311,-2.4311,-2.5179,-2.7342,-2.8685,-2.9161,-2.9472,-2.9472,-2.9125,-2.8676,-2.8163,-2.7529,-2.7387,-2.6589,-2.5167,-2.4957,-2.4692,0.0,-2.4351,0.0,0.0,0.0,0.0,0.0,0.0,0.0,0.0,0.0,0.0,0.0,0.0,0.0,0.0,0.0,0.0,0.0,0.0,0.0,0.0,-3.2337,-3.3951,-3.4926,-3.4772,-3.4718,-3.5206,-3.5208,-3.5354,-3.5711,-3.665,-3.729,-3.7236,-3.7638,-3.8099,-3.8578,-3.9742,-4.0549,-4.0496,-4.1454,-4.2102,-4.1938,-4.1312,-4.0793,-4.07,-4.03,-3.9534,-3.8175,-3.8083,-3.7703,-3.625,-3.7069,-3.8026,-3.8252,-3.9028,-3.8907,-3.6808,-3.7295,-3.8016,-3.7982,-3.8701,-3.9297,-3.9313,-3.9244,-3.9209,-2.4055,-2.3263,-2.2865,-2.2426,-2.2205,-2.2877,-2.3106,-2.2974,-2.3114,-2.3215,-2.308,-2.224,-2.1365,-2.0553,-2.0122,-2.0001,-2.0397,-2.2304,-2.3283,-2.354,-2.5236,-2.5807,-2.509,-2.4921,-2.4878,-2.4821,-2.45,-2.4775,-2.5425,-2.3877,-2.3603,-2.4657,-2.4984,-2.5559,-2.631,-2.6965,-2.8053,-2.9616,-2.7571,-2.6927,-2.8059,-2.6935,-2.6262,-2.6246,-2.5701,-2.4255,-2.196,-2.2873,-2.2836,-2.1657,-2.2974,0.0,0.0,0.0,0.0,0.0,0.0,0.0,0.0,0.0,0.0,0.0,0.0,0.0,0.0,0.0,0.0,0.0,0.0,0.0,-3.1137,-3.3533,-3.5156,-3.5084,-3.533,-3.5593,-3.5832,-3.5419,-3.5189,-3.5429,-3.6278,-3.7098,-3.7676,-3.8962,-3.9295,-3.7551,-4.0339,-4.1686,-3.9319,-4.057,-4.111,-3.9416,-3.91,-3.9042,-3.8962,-3.9491,-4.016,-4.0781,-4.1552,-4.1776,-4.0928,-4.0769,-4.0261,-3.8718,-4.0419,-4.1348,-3.8828,-3.8489,-3.851,-3.8437,-3.9164,-3.9527,-3.9613,-4.0628,-4.1136,-2.5231,-2.4511,-2.4269,-2.3839,-2.3367,-2.4027,-2.4326,-2.4429,-2.5012,-2.4717,-2.3892,-2.3815,-2.3027,-2.1838,-2.149,-2.1535,-2.1927,-2.2955,-2.3995,-2.4972,-2.554,-2.6044,-2.6641,-2.6021,-2.5974,-2.6326,-2.5574,-2.5588,-2.6222,-2.5941,-2.5776,-2.5614,-2.5399,-2.5591,-2.629,-2.7177,-2.7747,-2.7906,-2.7338,-2.6928,-2.6776,-2.5933,-2.5314,-2.4954,-2.3993,-2.3142,-2.2449,-2.1882,-2.1664,-2.1947,-2.1812,0.0,-2.292,0.0,0.0,0.0,0.0,-2.2091,-2.1228,-2.1424,0.0,0.0,0.0,-2.3408,0.0,0.0,0.0,0.0,-2.9457,-3.155,-3.427,-3.4653,-3.5249,-3.65,-3.6165,-3.599,-3.6278,-3.6168,-3.6208,-3.6589,-3.7394,-3.8366,-3.9488,-3.913,-3.8871,-3.9108,-3.942,-3.9405,-3.8707,-3.9669,-4.0533,-4.083,-4.024,-4.0015,-4.0756,-3.9904,-3.9031,-3.867,-3.9871,-4.0506,-3.9488,-4.0555,-4.1306,-4.0427,-4.0918,-4.1137,-4.0592,-4.1251,-4.1656,-4.1309,-4.1748,-4.1876,-4.1013,-4.1849,-4.2488,-2.6023,-2.5626,-2.5236,-2.4774,-2.4346,-2.4946,-2.5256,-2.5264,-2.5724,-2.5496,-2.4849,-2.4971,-2.4367,-2.3288,-2.3058,-2.3231,-2.3689,-2.3925,-2.4612,-2.5585,-2.5153,-2.5308,-2.5928,-2.5481,-2.5441,-2.5805,-2.5445,-2.565,-2.6323,-2.6166,-2.6175,-2.64,-2.6314,-2.6507,-2.7011,-2.7288,-2.7453,-2.7529,-2.6675,-2.6146,-2.593,-2.5033,-2.4292,-2.3749,-2.3039,-2.2466,-2.1941,-2.1237,-2.0817,-2.0785,-2.0555,-2.0655,0.0,-2.177,-2.2179,-2.2201,-2.2615,-2.2665,-2.2223,-2.2161,0.0,0.0,-2.342,-2.4372,-2.5218,0.0,0.0,-2.8669,-3.0392,-3.2701,-3.5408,-3.5442,-3.5684,-3.6502,-3.6478,-3.6344,-3.637,-3.6377,-3.6485,-3.6753,-3.7281,-3.7994,-3.8806,-3.8385,-3.8572,-4.0145,-3.9955,-3.9375,-3.867,-3.9725,-4.0559,-4.0481,-3.9926,-3.9748,-4.0399,-3.9797,-3.9185,-3.9007,-4.0037,-4.0593,-3.9882,-4.062,-4.1192,-4.1134,-4.1097,-4.1097,-4.1097,-4.1901,-4.2415,-4.1956,-4.2213,-4.2176,-4.1277,-4.1879,-4.2191,-2.6496,-2.637,-2.5845,-2.5371,-2.519,-2.5737,-2.582,-2.5661,-2.5624,-2.564,-2.5838,-2.5615,-2.5234,-2.472,-2.4716,-2.4925,-2.5274,-2.5006,-2.5071,-2.5435,-2.4456,-2.3966,-2.3929,-2.3929,-2.3941,-2.3917,-2.4506,-2.5129,-2.5844,-2.5136,-2.5527,-2.6982,-2.7399,-2.774,-2.802,-2.7248,-2.7254,-2.7881,-2.5834,-2.4956,-2.5292,-2.4154,-2.3275,-2.2754,-2.2646,-2.2072,-2.0911,-2.0825,-2.0195,-1.8958,-1.9474,-1.9464,-1.876,-2.0474,-2.1414,-2.1176,-2.2394,-2.309,-2.2957,-2.2873,-2.3019,-2.3463,-2.4305,-2.5342,-2.6462,-2.7936,-2.895,-2.9218,-3.1001,-3.3004,-3.4958,-3.5847,-3.6058,-3.5698,-3.6303,-3.6633,-3.619,-3.6174,-3.6165,-3.6259,-3.6402,-3.652,-3.6613,-3.7108,-3.8331,-4.065,-4.1108,-4.0619,-3.8921,-4.0207,-4.0818,-3.9173,-3.8836,-3.8817,-3.9099,-3.9399,-3.9827,-4.0451,-4.1364,-4.1364,-4.0855,-4.0533,-4.0496,-4.073,-4.0859,-4.0734,-4.0734,-4.061,-4.0683,-4.0518,-4.0914,-4.1079,-4.0771,-4.072,-4.0565,-2.6201,-2.5824,-2.6123,-2.6186,-2.6143,-2.6269,-2.6319,-2.6226,-2.5787,-2.5372,-2.5073,-2.5008,-2.4707,-2.423,-2.4981,-2.4981,-2.4342,-2.5109,-2.5034,-2.4381,-2.413,-2.3766,-2.3339,-2.3339,-2.3281,-2.3368,-2.3916,-2.433,-2.4633,-2.49,-2.5664,-2.685,-2.6384,-2.6418,-2.6873,-2.7409,-2.7269,-2.6523,-2.5982,-2.5188,-2.4053,-2.3305,-2.283,-2.2709,-2.2145,-2.1696,-2.1404,-2.0965,-2.0557,-2.0225,-1.9952,-1.9936,-2.0195,-2.1126,-2.18,-2.218,-2.3014,-2.3509,-2.3667,-2.4159,-2.4318,-2.3936,-2.5314,-2.6357,-2.6942,-2.861,-3.002,-3.0998,-3.2029,-3.321,-3.4683,-3.4438,-3.4584,-3.561,-3.5826,-3.5892,-3.5758,-3.5744,-3.5844,-3.6062,-3.6105,-3.6465,-3.7481,-3.7171,-3.7547,-3.9299,-3.9309,-3.8975,-3.8551,-3.9452,-4.0079,-3.9635,-3.9538,-3.9606,-3.9515,-3.9221,-3.9056,-3.9239,-3.9863,-4.0115,-3.9405,-3.9698,-3.9863,-3.9373,-3.8915,-3.8495,-3.7969,-3.75,-3.7198,-3.716,-3.914,-4.0592,-3.9018,-3.8622,-3.8287,-2.4614,-2.4743,-2.5259,-2.5698,-2.6101,-2.6352,-2.6314,-2.605,-2.5737,-2.5297,-2.4833,-2.4833,-2.4657,-2.4406,-2.4983,-2.4933,-2.4406,-2.4732,-2.4569,-2.3991,-2.374,-2.3439,-2.3138,-2.3125,-2.3117,-2.3108,-2.3429,-2.3654,-2.3729,-2.4058,-2.4696,-2.5586,-2.5226,-2.5206,-2.5612,-2.6849,-2.6895,-2.5705,-2.5386,-2.4413,-2.2814,-2.2629,-2.254,-2.2488,-2.2038,-2.1915,-2.2075,-2.1677,-2.1288,-2.0882,-2.054,-2.0328,-2.0305,-2.146,-2.2264,-2.2602,-2.379,-2.4403,-2.4219,-2.4658,-2.4687,-2.4112,-2.5867,-2.7286,-2.8057,-2.9387,-3.0875,-3.25,-3.2683,-3.3339,-3.4899,-3.4622,-3.4697,-3.5501,-3.5573,-3.558,-3.5607,-3.5631,-3.5667,-3.58,-3.5538,-3.5736,-3.6706,-3.6405,-3.6519,-3.7762,-3.8078,-3.8267,-3.8569,-3.9292,-3.9726,-3.9397,-3.9337,-3.9221,-3.8891,-3.845,-3.8028,-3.7753,-3.8205,-3.8407,-3.7753,-3.7778,-3.7869,-3.7649,-3.7212,-3.6772,-3.6338,-3.5842,-3.5456,-3.5592,-3.6868,-3.7814,-3.7079,-3.6674,-3.6237,-2.2773,-2.3454,-2.4078,-2.478,-2.5523,-2.6038,-2.5988,-2.5586,-2.5523,-2.5159,-2.4594,-2.4607,-2.4607,-2.4607,-2.4682,-2.4682,-2.4582,-2.418,-2.3954,-2.3866,-2.3364,-2.3125,-2.3125,-2.3125,-2.3125,-2.3125,-2.3125,-2.3125,-2.3125,-2.3125,-2.3427,-2.4016,-2.4136,-2.4203,-2.4394,-2.5867,-2.6118,-2.5161,-2.4362,-2.3305,-2.1896,-2.2241,-2.245,-2.2359,-2.2277,-2.2339,-2.2682,-2.2546,-2.2124,-2.1375,-2.1244,-2.0819,-2.0062,-2.1642,-2.259,-2.2552,-2.4264,-2.5084,-2.4471,-2.4702,-2.47,-2.4413,-2.6117,-2.7838,-2.9045,-3.0167,-3.1576,-3.3448,-3.2949,-3.3215,-3.4769,-3.4998,-3.507,-3.524,-3.5312,-3.5399,-3.548,-3.5448,-3.5436,-3.5351,-3.4759,-3.4607,-3.5226,-3.5179,-3.533,-3.6226,-3.6978,-3.7643,-3.8373,-3.9122,-3.9441,-3.8781,-3.8615,-3.8303,-3.7606,-3.7367,-3.711,-3.6541,-3.6772,-3.682,-3.6468,-3.6036,-3.5795,-3.6095,-3.5882,-3.5483,-3.5325,-3.4886,-3.4535,-3.4412,-3.45,-3.4783,-3.527,-3.5062,-3.4534,-2.3119,-2.2982,-2.4189,-2.4828,-2.4983,-2.5084,-2.531,-2.5561,-2.5159,-2.4393,-2.3403,-2.3452,-2.3452,-2.3489,-2.3941,-2.3891,-2.3477,-2.3841,-2.3753,-2.3288,-2.3128,-2.3125,-2.3125,-2.3125,-2.3125,-2.3125,-2.3125,-2.3125,-2.3125,-2.3125,-2.3439,-2.3966,-2.373,-2.362,-2.3782,-2.4243,-2.4506,-2.4433,-2.3644,-2.3007,-2.2595,-2.2844,-2.2902,-2.2763,-2.2703,-2.2683,-2.2786,-2.2729,-2.2673,-2.249,-2.2056,-2.1488,-2.0774,-2.2015,-2.249,-2.2034,-2.3204,-2.3957,-2.3999,-2.4447,-2.4823,-2.5005,-2.5855,-2.6895,-2.8154,-3.0889,-3.2467,-3.2224,-3.2642,-3.2749,-3.2304,-3.2715,-3.3291,-3.3841,-3.4409,-3.4781,-3.4691,-3.4672,-3.4489,-3.3897,-3.3694,-3.366,-3.3829,-3.3761,-3.4199,-3.5278,-3.5662,-3.6143,-3.6973,-3.8109,-3.8805,-3.8689,-3.812,-3.7441,-3.6633,-3.6523,-3.645,-3.634,-3.634,-3.634,-3.6182,-3.6127,-3.5937,-3.5732,-3.5298,-3.4588,-3.3758,-3.3173,-3.2741,-3.2418,-3.2127,-3.2427,-3.408,-3.391,-3.3269,-2.1118,-2.1742,-2.2698,-2.3393,-2.3818,-2.4501,-2.482,-2.4795,-2.4531,-2.3667,-2.2519,-2.2506,-2.2506,-2.2519,-2.2812,-2.3034,-2.309,-2.3439,-2.3414,-2.3078,-2.3125,-2.3125,-2.3125,-2.3125,-2.3125,-2.3125,-2.3125,-2.3125,-2.3125,-2.3125,-2.3288,-2.3565,-2.3349,-2.3119,-2.2959,-2.2528,-2.257,-2.3136,-2.2587,-2.1995,-2.1345,-2.1405,-2.1721,-2.2128,-2.2055,-2.2188,-2.2695,-2.2937,-2.2881,-2.2553,-2.2799,-2.2583,-2.1895,-2.2988,-2.3475,-2.3102,-2.3914,-2.432,-2.4077,-2.4295,-2.4368,-2.4172,-2.5061,-2.6343,-2.7896,-2.9652,-3.0738,-3.0724,-3.1091,-3.1136,-3.0627,-3.0866,-3.1313,-3.2006,-3.2416,-3.2825,-3.3383,-3.3516,-3.3477,-3.3398,-3.3068,-3.2966,-3.3355,-3.3051,-3.3294,-3.4213,-3.4599,-3.4934,-3.5473,-3.6557,-3.7326,-3.7207,-3.7094,-3.6615,-3.5862,-3.5661,-3.5495,-3.5202,-3.4895,-3.4779,-3.4761,-3.4564,-3.4362,-3.4071,-3.3668,-3.3001,-3.2141,-3.1524,-3.1031,-3.056,-3.0262,-3.0353,-3.1473,-3.1909,-3.197,-1.9044,-2.0442,-2.1158,-2.1916,-2.2619,-2.3784,-2.3889,-2.3319,-2.3542,-2.2872,-2.169,-2.169,-2.1753,-2.1889,-2.1889,-2.2322,-2.3065,-2.3125,-2.3125,-2.3125,-2.3125,-2.3125,-2.3125,-2.3125,-2.3125,-2.3125,-2.3125,-2.3125,-2.3125,-2.3125,-2.3125,-2.3065,-2.2977,-2.2661,-2.2008,-2.1016,-2.0889,-2.1565,-2.1534,-2.1016,-2.0026,-2.0153,-2.0641,-2.1497,-2.1339,-2.1665,-2.2549,-2.2913,-2.276,-2.2208,-2.3075,-2.3264,-2.2565,-2.3449,-2.3961,-2.3837,-2.4323,-2.4415,-2.3923,-2.3898,-2.3624,-2.3163,-2.4167,-2.5719,-2.7709,-2.8054,-2.8467,-2.9153,-2.9332,-2.9401,-2.9387,-2.9525,-2.9856,-3.0525,-3.0612,-3.1081,-3.2134,-3.2298,-3.2486,-3.2841,-3.2442,-3.229,-3.2831,-3.2442,-3.2374,-3.3059,-3.3579,-3.3878,-3.4042,-3.5041,-3.5757,-3.545,-3.5561,-3.5531,-3.4895,-3.4553,-3.4337,-3.389,-3.3422,-3.3093,-3.3014,-3.2745,-3.2484,-3.2541,-3.1987,-3.1409,-3.0749,-3.0304,-2.9739,-2.9093,-2.9011,-2.9011,-2.9113,-2.9939,-3.0654,-1.9233,-1.9628,-2.1181,-2.1934,-2.2059,-2.2255,-2.1596,-2.0595,-2.1732,-2.1675,-2.0782,-2.0782,-2.1175,-2.1889,-2.1889,-2.2322,-2.3065,-2.3125,-2.3125,-2.3125,-2.3125,-2.3125,-2.3125,-2.3125,-2.3125,-2.3125,-2.3125,-2.3125,-2.3125,-2.3113,-2.3125,-2.3062,-2.2661,-2.1907,-2.0928,-2.025,-1.9962,-2.0141,-2.0821,-2.104,-2.0752,-2.1491,-2.1895,-2.1931,-2.1851,-2.197,-2.2115,-2.2124,-2.2137,-2.206,-2.2159,-2.1924,-2.1224,-2.1784,-2.1843,-2.1314,-2.1756,-2.2178,-2.2581,-2.2594,-2.2711,-2.3088,-2.3261,-2.4536,-2.7086,-2.7446,-2.7505,-2.7621,-2.8168,-2.8579,-2.8635,-2.9148,-2.9713,-3.0397,-3.0581,-3.086,-3.1396,-3.1462,-3.1497,-3.1584,-3.1427,-3.1393,-3.1579,-3.1478,-3.1664,-3.2297,-3.2587,-3.2587,-3.2872,-3.3992,-3.4623,-3.4159,-3.4031,-3.3874,-3.3635,-3.3113,-3.306,-3.3262,-3.2903,-3.2563,-3.2403,-3.2343,-3.2159,-3.1916,-3.1236,-3.0679,-3.0179,-2.9624,-2.9127,-2.8839,-2.8825,-2.8822,-2.8789,-2.9124,-2.9479,-1.8551,-1.8986,-1.9808,-2.0113,-2.0102,-2.035,-1.9855,-1.892,-1.951,-1.961,-1.9174,-1.9184,-1.9503,-2.0113,-2.0124,-2.0711,-2.1729,-2.1729,-2.1575,-2.1376,-2.1801,-2.1848,-2.1709,-2.206,-2.2234,-2.2246,-2.2234,-2.2246,-2.2246,-2.2246,-2.2246,-2.2196,-2.1694,-2.1154,-2.0718,-2.0087,-1.9798,-1.9798,-2.0205,-2.0345,-2.0305,-2.0703,-2.0883,-2.0777,-2.079,-2.065,-2.0384,-2.0955,-2.0993,-2.0397,-2.1247,-2.1462,-2.0876,-2.1289,-2.1479,-2.1142,-2.1355,-2.1594,-2.1857,-2.187,-2.197,-2.2234,-2.2523,-2.3157,-2.4458,-2.5271,-2.5867,-2.6213,-2.661,-2.6945,-2.7345,-2.77,-2.8047,-2.8388,-2.8393,-2.8776,-2.9613,-2.9778,-3.0152,-3.0982,-3.119,-3.119,-3.119,-3.119,-3.1275,-3.1647,-3.1698,-3.1698,-3.1698,-3.2316,-3.2871,-3.2721,-3.2895,-3.2973,-3.283,-3.2648,-3.2438,-3.2304,-3.2168,-3.1758,-3.1217,-3.1063,-3.0939,-3.0413,-3.0,-2.9534,-2.9008,-2.8619,-2.8247,-2.7791,-2.774,-2.7705,-2.749,-2.7694,-2.8555,-1.7596,-1.8142,-1.8385,-1.8449,-1.847,-1.8747,-1.836,-1.7584,-1.749,-1.7438,-1.7459,-1.7585,-1.8009,-1.8449,-1.8543,-1.9307,-2.0336,-2.0546,-2.0385,-1.9997,-2.0514,-2.0546,-2.0228,-2.0722,-2.1018,-2.1006,-2.1018,-2.1006,-2.1018,-2.1018,-2.0945,-2.0809,-2.0416,-2.0146,-1.9998,-1.954,-1.9307,-1.9307,-1.9475,-1.9643,-1.9798,-1.9798,-1.9748,-1.9635,-1.9623,-1.9384,-1.8932,-1.966,-1.9723,-1.897,-2.0175,-2.069,-2.0188,-2.0752,-2.1054,-2.0966,-2.0877,-2.0933,-2.1058,-2.1375,-2.1481,-2.1493,-2.1882,-2.2133,-2.2216,-2.3077,-2.3949,-2.4565,-2.4966,-2.5384,-2.5795,-2.6184,-2.6294,-2.637,-2.6363,-2.6916,-2.7778,-2.8092,-2.8854,-3.0446,-3.0897,-3.1015,-3.1151,-3.119,-3.1207,-3.1224,-3.119,-3.114,-3.1004,-3.0954,-3.1062,-3.1192,-3.162,-3.195,-3.2052,-3.1756,-3.151,-3.117,-3.115,-3.0646,-2.9885,-2.9756,-2.9692,-2.9214,-2.8892,-2.8588,-2.796,-2.762,-2.7315,-2.6808,-2.6672,-2.645,-2.6089,-2.6562,-2.7421,-1.6787,-1.703,-1.7688,-1.8048,-1.7985,-1.7711,-1.7106,-1.6307,-1.5831,-1.5645,-1.5822,-1.6491,-1.7264,-1.805,-1.8396,-1.9039,-1.989,-2.0378,-2.0288,-1.984,-1.9963,-1.9765,-1.9349,-1.9456,-1.9479,-1.9503,-1.9492,-1.9505,-1.9505,-1.9539,-1.9297,-1.8794,-1.8703,-1.8497,-1.7977,-1.7875,-1.7841,-1.7786,-1.8447,-1.915,-1.9747,-1.9798,-1.9572,-1.9108,-1.9046,-1.8844,-1.8257,-1.838,-1.8392,-1.8329,-1.887,-1.8983,-1.8643,-1.9397,-1.9761,-1.9283,-1.9064,-1.918,-1.9793,-2.0859,-2.1443,-2.1493,-2.1506,-2.1556,-2.1568,-2.1731,-2.1971,-2.2674,-2.3733,-2.4158,-2.4028,-2.4878,-2.556,-2.5604,-2.5657,-2.5954,-2.659,-2.7221,-2.806,-2.9288,-2.9963,-3.0559,-3.0886,-3.1004,-3.1072,-3.0954,-3.092,-3.0751,-3.0328,-3.0192,-2.9939,-2.9607,-2.985,-3.0429,-3.0663,-2.9969,-2.9936,-3.0439,-2.9917,-2.9344,-2.9034,-2.8965,-2.9008,-2.8586,-2.8298,-2.7875,-2.7602,-2.7282,-2.6673,-2.6222,-2.5997,-2.5888,-2.5492,-2.5838,-2.6487,-1.6338,-1.639,-1.6748,-1.6709,-1.6446,-1.6264,-1.6018,-1.5654,-1.5488,-1.542,-1.5459,-1.5791,-1.6266,-1.687,-1.7052,-1.7451,-1.7968,-1.8217,-1.8051,-1.7747,-1.8091,-1.8084,-1.7709,-1.8135,-1.8295,-1.8306,-1.8295,-1.8295,-1.8306,-1.8306,-1.8194,-1.8014,-1.7947,-1.7835,-1.7644,-1.7578,-1.7578,-1.7622,-1.7664,-1.7845,-1.8159,-1.8585,-1.8545,-1.8032,-1.7675,-1.7374,-1.7204,-1.7446,-1.7698,-1.7756,-1.813,-1.814,-1.7678,-1.7984,-1.7934,-1.7509,-1.7618,-1.7905,-1.8412,-1.9304,-1.9818,-1.9818,-2.0586,-2.1004,-2.1029,-2.1292,-2.1481,-2.1461,-2.2115,-2.2708,-2.303,-2.3861,-2.4426,-2.4528,-2.4771,-2.5228,-2.5861,-2.6165,-2.6878,-2.8362,-2.8907,-2.9297,-2.9758,-2.9888,-2.9888,-2.9888,-2.9905,-2.9803,-2.9482,-2.9448,-2.911,-2.8552,-2.8586,-2.8996,-2.9501,-2.9377,-2.9085,-2.8987,-2.9034,-2.8876,-2.7892,-2.8078,-2.818,-2.7774,-2.7418,-2.7077,-2.6731,-2.6545,-2.6139,-2.5689,-2.5221,-2.4989,-2.4792,-2.503,-2.5222,-1.5889,-1.5889,-1.5879,-1.5693,-1.542,-1.542,-1.542,-1.542,-1.542,-1.542,-1.542,-1.542,-1.5576,-1.5869,-1.6066,-1.625,-1.6533,-1.6617,-1.6484,-1.6215,-1.6647,-1.6639,-1.6296,-1.6754,-1.7013,-1.7013,-1.6978,-1.6989,-1.6968,-1.7013,-1.7024,-1.7024,-1.7034,-1.7024,-1.7013,-1.7013,-1.6957,-1.698,-1.6775,-1.6638,-1.6569,-1.6928,-1.7038,-1.676,-1.6382,-1.6093,-1.5963,-1.635,-1.6633,-1.6666,-1.705,-1.7029,-1.662,-1.6722,-1.6665,-1.6354,-1.6726,-1.7064,-1.7324,-1.7961,-1.8501,-1.875,-1.9646,-2.0266,-2.0489,-2.0803,-2.0828,-2.0552,-2.079,-2.1329,-2.2049,-2.2807,-2.3314,-2.3439,-2.3968,-2.4505,-2.4909,-2.5102,-2.5815,-2.7195,-2.7575,-2.804,-2.8661,-2.8969,-2.9163,-2.9302,-2.9146,-2.8926,-2.8825,-2.8723,-2.8399,-2.7655,-2.752,-2.7841,-2.8484,-2.8401,-2.8129,-2.8095,-2.8213,-2.7841,-2.6894,-2.73,-2.733,-2.6957,-2.6639,-2.6349,-2.6056,-2.5791,-2.5577,-2.5067,-2.4608,-2.4282,-2.4184,-2.4306,-2.4432,-1.5439,-1.5439,-1.5449,-1.5439,-1.542,-1.542,-1.542,-1.542,-1.542,-1.542,-1.542,-1.542,-1.543,-1.5488,-1.5859,-1.6125,-1.6213,-1.6494,-1.6426,-1.6045,-1.6146,-1.594,-1.5488,-1.5468,-1.5526,-1.569,-1.569,-1.5633,-1.5584,-1.5584,-1.5526,-1.5584,-1.5633,-1.5584,-1.5642,-1.5633,-1.5526,-1.5698,-1.5825,-1.5743,-1.5227,-1.4927,-1.5078,-1.5471,-1.5519,-1.5247,-1.4878,-1.4811,-1.4868,-1.4846,-1.5364,-1.5421,-1.498,-1.5793,-1.6162,-1.5935,-1.6543,-1.6796,-1.6648,-1.7235,-1.7895,-1.8555,-1.8774,-1.9105,-1.982,-1.9947,-1.9947,-1.9874,-1.9974,-2.0297,-2.0895,-2.1897,-2.2603,-2.2772,-2.3275,-2.3641,-2.3771,-2.4326,-2.4893,-2.5621,-2.6251,-2.6949,-2.8003,-2.8682,-2.8868,-2.9076,-2.9113,-2.8668,-2.8142,-2.7906,-2.7449,-2.696,-2.6758,-2.6995,-2.7587,-2.7449,-2.7315,-2.7227,-2.6952,-2.6809,-2.6759,-2.6691,-2.64,-2.6225,-2.6085,-2.5835,-2.5411,-2.5105,-2.491,-2.4511,-2.4116,-2.3794,-2.3837,-2.3666,-2.3849,-1.4628,-1.4688,-1.5177,-1.542,-1.542,-1.542,-1.542,-1.542,-1.542,-1.542,-1.542,-1.542,-1.542,-1.542,-1.5566,-1.5644,-1.5664,-1.582,-1.5791,-1.5654,-1.5644,-1.5566,-1.5439,-1.542,-1.542,-1.542,-1.542,-1.542,-1.542,-1.542,-1.542,-1.542,-1.542,-1.542,-1.542,-1.542,-1.542,-1.54,-1.521,-1.4864,-1.4453,-1.3852,-1.3616,-1.381,-1.381,-1.3909,-1.4107,-1.4143,-1.4283,-1.4698,-1.4788,-1.458,-1.4193,-1.4152,-1.4214,-1.4387,-1.4828,-1.5195,-1.5457,-1.6315,-1.7191,-1.7895,-1.8004,-1.8501,-1.9423,-1.9423,-1.9254,-1.9695,-1.9798,-1.9952,-2.0233,-2.0943,-2.1599,-2.2063,-2.262,-2.3187,-2.3553,-2.3834,-2.4172,-2.4709,-2.5325,-2.5855,-2.6228,-2.6472,-2.6721,-2.701,-2.6824,-2.6677,-2.6595,-2.636,-2.6094,-2.5844,-2.5746,-2.5844,-2.604,-2.63,-2.6291,-2.6069,-2.5873,-2.5824,-2.5799,-2.5872,-2.5668,-2.5577,-2.5486,-2.5297,-2.4871,-2.443,-2.4241,-2.4074,-2.3638,-2.3508,-2.3595,-2.3363,-2.3569,-1.3786,-1.3906,-1.4392,-1.4815,-1.4991,-1.4991,-1.5167,-1.5362,-1.542,-1.542,-1.542,-1.542,-1.542,-1.542,-1.542,-1.542,-1.542,-1.542,-1.542,-1.542,-1.542,-1.542,-1.542,-1.542,-1.542,-1.542,-1.542,-1.542,-1.542,-1.542,-1.542,-1.542,-1.542,-1.542,-1.542,-1.542,-1.5439,-1.5271,-1.479,-1.4301,-1.3939,-1.3262,-1.2891,-1.2891,-1.2891,-1.3055,-1.3505,-1.3505,-1.3705,-1.401,-1.3987,-1.3813,-1.3508,-1.3113,-1.3076,-1.3477,-1.3779,-1.4189,-1.4772,-1.5548,-1.6325,-1.7124,-1.7246,-1.7786,-1.8939,-1.8833,-1.8992,-1.9371,-1.9695,-1.9773,-1.9674,-2.0092,-2.072,-2.139,-2.2161,-2.283,-2.3275,-2.3523,-2.3782,-2.4105,-2.4614,-2.4902,-2.4973,-2.5121,-2.5388,-2.5506,-2.5301,-2.5253,-2.5016,-2.5182,-2.5221,-2.5221,-2.5259,-2.5182,-2.5201,-2.5307,-2.5561,-2.5438,-2.5355,-2.5176,-2.5067,-2.5105,-2.5067,-2.4973,-2.4816,-2.4632,-2.4323,-2.3879,-2.3681,-2.3551,-2.3334,-2.3143,-2.3098,-2.3039,-2.3023,-1.3009,-1.3009,-1.3009,-1.3545,-1.4145,-1.4273,-1.4688,-1.5235,-1.5294,-1.5294,-1.5235,-1.5352,-1.5294,-1.5352,-1.5352,-1.542,-1.542,-1.542,-1.542,-1.542,-1.542,-1.542,-1.542,-1.542,-1.542,-1.542,-1.542,-1.542,-1.542,-1.541,-1.541,-1.5352,-1.5352,-1.5352,-1.5352,-1.5342,-1.5369,-1.5193,-1.4523,-1.4008,-1.3657,-1.3165,-1.2891,-1.2891,-1.2891,-1.2929,-1.2978,-1.2978,-1.3027,-1.3027,-1.2988,-1.2949,-1.2988,-1.2929,-1.3057,-1.3389,-1.3516,-1.3936,-1.4629,-1.4851,-1.5471,-1.6388,-1.6539,-1.6845,-1.7696,-1.8186,-1.8531,-1.8778,-1.931,-1.9571,-1.9208,-1.951,-2.0117,-2.0782,-2.1791,-2.2452,-2.283,-2.3246,-2.3595,-2.3709,-2.4055,-2.4358,-2.4496,-2.4618,-2.4854,-2.4973,-2.4989,-2.4752,-2.4155,-2.4524,-2.5035,-2.5105,-2.491,-2.4712,-2.4552,-2.443,-2.4752,-2.495,-2.4965,-2.4871,-2.4792,-2.4752,-2.4592,-2.4455,-2.4389,-2.4199,-2.3764,-2.3363,-2.3275,-2.3187,-2.2965,-2.268,-2.2575,-2.2423,-2.2179,-1.2205,-1.2266,-1.2757,-1.313,-1.3433,-1.3965,-1.4392,-1.4569,-1.4569,-1.4569,-1.4569,-1.4569,-1.4569,-1.4746,-1.5118,-1.542,-1.542,-1.542,-1.542,-1.5352,-1.5352,-1.5362,-1.541,-1.542,-1.542,-1.542,-1.542,-1.542,-1.5362,-1.5362,-1.5177,-1.4746,-1.5118,-1.505,-1.4628,-1.5099,-1.5282,-1.4926,-1.4218,-1.3739,-1.3525,-1.3155,-1.2891,-1.2891,-1.2891,-1.2891,-1.2891,-1.2891,-1.2891,-1.2891,-1.2891,-1.2891,-1.2891,-1.2891,-1.2988,-1.3086,-1.3359,-1.3721,-1.4258,-1.4639,-1.5299,-1.6095,-1.6026,-1.6259,-1.6971,-1.717,-1.7574,-1.8166,-1.875,-1.8995,-1.9033,-1.9108,-1.9544,-2.0154,-2.0933,-2.1777,-2.2443,-2.3143,-2.3551,-2.355,-2.339,-2.3413,-2.3667,-2.3825,-2.3707,-2.4092,-2.4138,-2.3845,-2.3804,-2.3871,-2.4059,-2.4116,-2.4074,-2.4148,-2.3921,-2.3865,-2.4035,-2.4302,-2.4389,-2.443,-2.4389,-2.4307,-2.4142,-2.3933,-2.3864,-2.3608,-2.3187,-2.2905,-2.2815,-2.2515,-2.2193,-2.2039,-2.1993,-2.1758,-2.1459,-1.1351,-1.1413,-1.1903,-1.2196,-1.2382,-1.2905,-1.3244,-1.3401,-1.3582,-1.3576,-1.3602,-1.3733,-1.3726,-1.3855,-1.4273,-1.451,-1.451,-1.451,-1.451,-1.4569,-1.4874,-1.4932,-1.4874,-1.4628,-1.451,-1.4501,-1.451,-1.4593,-1.4653,-1.4533,-1.4276,-1.4091,-1.4345,-1.4273,-1.3846,-1.4264,-1.4587,-1.479,-1.4145,-1.3616,-1.3533,-1.3262,-1.3037,-1.291,-1.2891,-1.2891,-1.2891,-1.2891,-1.2891,-1.2891,-1.2891,-1.2891,-1.2891,-1.2891,-1.2891,-1.2969,-1.3271,-1.3691,-1.4111,-1.4551,-1.513,-1.581,-1.5494,-1.5499,-1.6174,-1.6252,-1.6689,-1.7382,-1.8072,-1.8382,-1.8351,-1.856,-1.8824,-1.9019,-1.9719,-2.057,-2.1575,-2.2265,-2.2509,-2.2475,-2.242,-2.2682,-2.2951,-2.2742,-2.275,-2.3333,-2.3215,-2.3245,-2.3335,-2.3396,-2.3338,-2.3293,-2.3303,-2.3314,-2.329,-2.3293,-2.3368,-2.3588,-2.3752,-2.3837,-2.3837,-2.3837,-2.3752,-2.3391,-2.3275,-2.2921,-2.2529,-2.2377,-2.2239,-2.1805,-2.1459,-2.139,-2.1293,-2.1002,-2.0706,-1.0598,-1.0598,-1.0577,-1.0882,-1.1242,-1.1382,-1.1744,-1.2142,-1.2365,-1.2555,-1.2604,-1.2759,-1.2907,-1.294,-1.3183,-1.3243,-1.307,-1.3183,-1.3243,-1.3364,-1.3726,-1.3965,-1.4025,-1.3545,-1.3304,-1.3105,-1.3183,-1.3244,-1.3492,-1.3409,-1.3137,-1.3312,-1.3277,-1.3025,-1.3017,-1.3009,-1.3826,-1.4687,-1.4061,-1.369,-1.3753,-1.3625,-1.335,-1.2988,-1.2969,-1.2949,-1.2891,-1.2891,-1.2891,-1.2891,-1.2891,-1.291,-1.293,-1.293,-1.2969,-1.3057,-1.3359,-1.3769,-1.417,-1.4561,-1.5017,-1.538,-1.5204,-1.4951,-1.5414,-1.571,-1.5938,-1.6437,-1.7145,-1.7467,-1.7301,-1.7629,-1.7809,-1.7617,-1.8598,-1.9548,-2.0039,-2.067,-2.1138,-2.1235,-2.1433,-2.1874,-2.2473,-2.2039,-2.231,-2.2813,-2.249,-2.2535,-2.2832,-2.2881,-2.2694,-2.2622,-2.2607,-2.2607,-2.2592,-2.2936,-2.3026,-2.3191,-2.3415,-2.358,-2.3508,-2.3421,-2.3172,-2.286,-2.2589,-2.2253,-2.1974,-2.1771,-2.152,-2.1183,-2.0953,-2.0782,-2.0597,-2.0333,-2.0283,-1.0445,-1.0214,-1.02,-1.0239,-1.0474,-1.0806,-1.1328,-1.1781,-1.1461,-1.1585,-1.1881,-1.1827,-1.1919,-1.2128,-1.2696,-1.3009,-1.2887,-1.2948,-1.3009,-1.294,-1.2504,-1.2818,-1.3183,-1.3122,-1.2732,-1.244,-1.2704,-1.298,-1.2996,-1.3052,-1.2949,-1.2565,-1.2933,-1.2805,-1.2313,-1.2642,-1.3177,-1.3611,-1.3717,-1.3848,-1.4198,-1.4053,-1.376,-1.3389,-1.334,-1.3184,-1.293,-1.2891,-1.2891,-1.2891,-1.2891,-1.3047,-1.3281,-1.332,-1.3428,-1.3711,-1.3887,-1.415,-1.4521,-1.4727,-1.499,-1.5352,-1.5254,-1.5156,-1.4951,-1.5022,-1.5263,-1.5498,-1.5812,-1.6132,-1.6467,-1.6774,-1.6822,-1.6974,-1.8028,-1.9171,-1.9736,-2.0188,-2.0585,-2.1284,-2.0787,-2.1013,-2.1486,-2.1455,-2.133,-2.1924,-2.1939,-2.1734,-2.2129,-2.2219,-2.1949,-2.1949,-2.1949,-2.1949,-2.2069,-2.2458,-2.2768,-2.2892,-2.3176,-2.3522,-2.3363,-2.3143,-2.2665,-2.2146,-2.2021,-2.1724,-2.1369,-2.1042,-2.0782,-2.0607,-2.0383,-2.0245,-2.0144,-1.994,-1.9991,-1.0198,-0.9927,-0.9811,-0.9771,-0.9784,-1.0052,-1.0343,-1.0487,-1.0343,-1.0473,-1.0802,-1.0859,-1.0988,-1.1337,-1.1779,-1.1965,-1.1973,-1.1973,-1.1973,-1.1911,-1.1538,-1.16,-1.1903,-1.1973,-1.1819,-1.1626,-1.1962,-1.2153,-1.2189,-1.246,-1.227,-1.1984,-1.2195,-1.1973,-1.1373,-1.1717,-1.2281,-1.2622,-1.283,-1.3258,-1.4185,-1.4025,-1.3695,-1.3427,-1.3489,-1.3564,-1.3203,-1.2988,-1.2891,-1.2891,-1.29,-1.3066,-1.3447,-1.3506,-1.3701,-1.4038,-1.4297,-1.4531,-1.4756,-1.4932,-1.5156,-1.5312,-1.5283,-1.5156,-1.499,-1.4775,-1.4636,-1.5039,-1.4894,-1.5124,-1.5448,-1.5846,-1.6056,-1.6254,-1.7282,-1.8163,-1.8526,-1.8932,-1.9355,-1.974,-1.9918,-2.0052,-2.0887,-2.0525,-2.0752,-2.1105,-2.103,-2.1105,-2.13,-2.1261,-2.1276,-2.1276,-2.1276,-2.1276,-2.1267,-2.158,-2.1992,-2.22,-2.2482,-2.2922,-2.2848,-2.2577,-2.2067,-2.1582,-2.1438,-2.121,-2.0782,-2.0459,-2.0295,-2.0093,-1.985,-1.9798,-1.9798,-1.9798,-1.9798,-0.9833,-0.9633,-0.9407,-0.9262,-0.9216,-0.9143,-0.9213,-0.9025,-0.9193,-0.9475,-0.9825,-0.9993,-1.0309,-1.0514,-1.0836,-1.0661,-1.0627,-1.0836,-1.0744,-1.0807,-1.0681,-1.0807,-1.0863,-1.0933,-1.0863,-1.0758,-1.0893,-1.1215,-1.1478,-1.1526,-1.1478,-1.1472,-1.1283,-1.0934,-1.0812,-1.0744,-1.1192,-1.1787,-1.1981,-1.2361,-1.3109,-1.3313,-1.3331,-1.3039,-1.3474,-1.359,-1.3368,-1.3181,-1.3086,-1.3037,-1.2969,-1.3203,-1.3535,-1.3603,-1.3896,-1.4297,-1.4678,-1.4863,-1.4912,-1.5205,-1.5381,-1.5371,-1.5088,-1.5,-1.5137,-1.4697,-1.4307,-1.4631,-1.4438,-1.4416,-1.4693,-1.5175,-1.5626,-1.5832,-1.6256,-1.6504,-1.6696,-1.7428,-1.7833,-1.751,-1.8754,-1.9353,-1.9666,-1.9742,-1.9871,-2.0144,-2.0169,-2.043,-2.058,-2.0602,-2.0602,-2.0602,-2.0602,-2.0602,-2.0609,-2.0661,-2.1025,-2.1322,-2.1556,-2.1865,-2.1971,-2.1699,-2.1349,-2.0979,-2.0769,-2.0484,-2.0194,-1.9901,-1.985,-1.985,-1.9798,-1.9798,-1.9798,-1.9798,-1.9798,-0.9408,-0.9312,-0.903,-0.903,-0.913,-0.8951,-0.9118,-0.9426,-0.9051,-0.9319,-0.9853,-0.986,-0.996,-1.0234,-1.0441,-1.0448,-1.0301,-1.0441,-1.0618,-1.0618,-1.0618,-1.0618,-1.0618,-1.0618,-1.0631,-1.0665,-1.0621,-1.0942,-1.1316,-1.1483,-1.143,-1.141,-1.1323,-1.1069,-1.0692,-1.0624,-1.0624,-1.0996,-1.1476,-1.1527,-1.1691,-1.2587,-1.2932,-1.2653,-1.299,-1.3132,-1.3212,-1.3537,-1.3815,-1.3789,-1.3552,-1.3459,-1.3912,-1.4287,-1.4619,-1.4951,-1.5146,-1.5254,-1.5283,-1.5342,-1.542,-1.54,-1.5312,-1.5303,-1.5312,-1.4574,-1.4175,-1.4199,-1.3903,-1.3963,-1.4362,-1.5118,-1.5447,-1.5635,-1.6076,-1.6479,-1.6547,-1.6764,-1.7239,-1.7699,-1.7862,-1.7991,-1.8474,-1.8998,-1.9165,-1.9217,-1.9457,-1.9722,-1.9848,-1.993,-1.9975,-2.0013,-1.9961,-1.9968,-1.9982,-1.9932,-2.0121,-2.0353,-2.0522,-2.0753,-2.0849,-2.1056,-2.0743,-2.0396,-2.0042,-1.985,-1.9798,-1.9798,-1.985,-1.9798,-1.9798,-1.9798,-1.9798,-1.9798,-1.9798,-0.9092,-0.9018,-0.8871,-0.8898,-0.8998,-0.8884,-0.8985,-0.9178,-0.8958,-0.9218,-0.9766,-0.974,-0.9846,-1.0134,-1.0401,-1.0401,-1.0241,-1.0414,-1.0618,-1.0618,-1.0618,-1.0618,-1.0618,-1.0581,-1.0678,-1.0748,-1.0929,-1.1229,-1.155,-1.1724,-1.1717,-1.1443,-1.143,-1.1089,-1.0705,-1.0618,-1.0618,-1.0688,-1.0989,-1.101,-1.092,-1.1735,-1.2647,-1.2584,-1.2679,-1.2637,-1.2694,-1.2756,-1.2905,-1.295,-1.3014,-1.3468,-1.4286,-1.4658,-1.498,-1.5322,-1.542,-1.542,-1.541,-1.542,-1.542,-1.542,-1.542,-1.542,-1.5225,-1.4574,-1.4326,-1.4248,-1.3955,-1.3698,-1.4205,-1.4441,-1.4867,-1.5441,-1.582,-1.6163,-1.6473,-1.6748,-1.6961,-1.7449,-1.7604,-1.7858,-1.8235,-1.8462,-1.8798,-1.9004,-1.9058,-1.9262,-1.9139,-1.9226,-1.9435,-1.945,-1.9406,-1.9346,-1.9336,-1.931,-1.9218,-1.9307,-1.935,-1.9592,-1.9741,-2.0031,-2.0321,-2.0016,-1.985,-1.985,-1.9798,-1.9798,-1.9798,-1.9798,-1.9798,-1.9798,-1.9786,-1.9761,-1.9773,-0.8804,-0.8804,-0.8804,-0.8804,-0.8804,-0.8811,-0.8818,-0.8824,-0.8804,-0.9152,-0.9613,-0.9686,-0.984,-1.0134,-1.0421,-1.0394,-1.0327,-1.0408,-1.0618,-1.0618,-1.0618,-1.0618,-1.0618,-1.0581,-1.0772,-1.1002,-1.1149,-1.1463,-1.181,-1.2058,-1.183,-1.1503,-1.143,-1.1109,-1.0688,-1.0618,-1.0618,-1.0618,-1.0681,-1.0681,-1.0674,-1.1288,-1.1881,-1.2181,-1.237,-1.2319,-1.2263,-1.2258,-1.2052,-1.1914,-1.2265,-1.3278,-1.4241,-1.4733,-1.4953,-1.5342,-1.542,-1.542,-1.542,-1.542,-1.542,-1.542,-1.542,-1.542,-1.5234,-1.4785,-1.4473,-1.4228,-1.3945,-1.3564,-1.4027,-1.4068,-1.4307,-1.4879,-1.5337,-1.5812,-1.6324,-1.6873,-1.6942,-1.6809,-1.7119,-1.7466,-1.7758,-1.8041,-1.8438,-1.8741,-1.8783,-1.8755,-1.8632,-1.8612,-1.8817,-1.8893,-1.8803,-1.8574,-1.8503,-1.8565,-1.8495,-1.8561,-1.8468,-1.8799,-1.9071,-1.959,-1.9978,-1.9952,-1.9798,-1.9798,-1.9798,-1.9798,-1.9798,-1.9798,-1.9698,-1.9585,-1.961,-1.9647,-1.962,-0.8804,-0.8804,-0.8804,-0.8804,-0.8804,-0.8804,-0.8804,-0.8804,-0.8804,-0.9138,-0.9626,-0.9693,-0.984,-1.012,-1.0428,-1.0514,-1.0474,-1.0534,-1.0618,-1.0618,-1.0618,-1.0618,-1.0618,-1.0624,-1.0786,-1.1001,-1.1122,-1.1396,-1.1841,-1.1891,-1.181,-1.151,-1.143,-1.1129,-1.0715,-1.0618,-1.0618,-1.0618,-1.0618,-1.0618,-1.0681,-1.0807,-1.0982,-1.1288,-1.1613,-1.1836,-1.2027,-1.2421,-1.2767,-1.2775,-1.2825,-1.3374,-1.3951,-1.4196,-1.4604,-1.5206,-1.542,-1.542,-1.542,-1.542,-1.542,-1.542,-1.542,-1.542,-1.5293,-1.4961,-1.459,-1.417,-1.3721,-1.335,-1.4033,-1.3901,-1.3868,-1.4298,-1.4981,-1.5638,-1.5872,-1.6279,-1.671,-1.6697,-1.6853,-1.7079,-1.7527,-1.79,-1.8166,-1.8395,-1.8417,-1.8328,-1.8193,-1.8135,-1.8212,-1.8277,-1.8249,-1.7933,-1.7639,-1.7718,-1.7721,-1.7924,-1.8063,-1.8634,-1.8965,-1.9472,-1.9723,-1.9773,-1.9798,-1.9798,-1.9798,-1.9798,-1.9683,-1.9579,-1.947,-1.9296,-1.9152,-1.9052,-1.9187,-0.8804,-0.8804,-0.8804,-0.8804,-0.8804,-0.8804,-0.8804,-0.8804,-0.8818,-0.9045,-0.9399,-0.9613,-0.976,-0.9987,-1.0381,-1.0618,-1.0618,-1.0618,-1.0618,-1.0618,-1.0618,-1.0618,-1.0618,-1.0618,-1.0799,-1.1034,-1.1156,-1.1498,-1.2084,-1.2123,-1.183,-1.1516,-1.1423,-1.1129,-1.0681,-1.0618,-1.0618,-1.0618,-1.0618,-1.0618,-1.0618,-1.0618,-1.0618,-1.0744,-1.0919,-1.1163,-1.1233,-1.1476,-1.1717,-1.171,-1.1725,-1.2205,-1.2749,-1.3174,-1.3717,-1.4991,-1.5352,-1.5352,-1.541,-1.542,-1.542,-1.542,-1.542,-1.542,-1.5312,-1.5039,-1.4687,-1.4394,-1.4004,-1.3779,-1.4394,-1.3951,-1.396,-1.445,-1.5039,-1.5493,-1.5869,-1.6233,-1.6549,-1.6873,-1.7156,-1.7415,-1.766,-1.7918,-1.8016,-1.8067,-1.8061,-1.7972,-1.7877,-1.7797,-1.7839,-1.8018,-1.7991,-1.7544,-1.7348,-1.7479,-1.7493,-1.7599,-1.7959,-1.8534,-1.8933,-1.951,-1.9723,-1.9786,-1.9798,-1.9798,-1.9798,-1.9798,-1.9579,-1.9347,-1.9096,-1.8882,-1.8601,-1.849,-1.8529,-0.8646,-0.8804,-0.8804,-0.8804,-0.8804,-0.8804,-0.8804,-0.8804,-0.8804,-0.8971,-0.9196,-0.9539,-0.9686,-0.9826,-1.018,-1.0488,-1.0604,-1.0618,-1.0618,-1.0618,-1.0618,-1.0618,-1.0618,-1.0581,-1.0675,-1.0862,-1.1249,-1.1659,-1.2111,-1.2224,-1.1937,-1.1583,-1.1423,-1.1136,-1.0681,-1.0618,-1.0618,-1.0618,-1.0618,-1.0618,-1.0618,-1.0618,-1.0618,-1.0618,-1.0618,-1.0618,-1.0681,-1.0744,-1.0807,-1.0744,-1.0807,-1.1052,-1.1655,-1.1834,-1.281,-1.451,-1.4991,-1.505,-1.4932,-1.5352,-1.5294,-1.5059,-1.5294,-1.5352,-1.5312,-1.5078,-1.4795,-1.4785,-1.4268,-1.416,-1.4482,-1.4037,-1.4039,-1.4531,-1.4977,-1.5346,-1.5984,-1.648,-1.6961,-1.7276,-1.7522,-1.7777,-1.8028,-1.8016,-1.8139,-1.8113,-1.8118,-1.8125,-1.7976,-1.765,-1.7661,-1.7863,-1.7776,-1.728,-1.7196,-1.7517,-1.7651,-1.7794,-1.8319,-1.8921,-1.9246,-1.9572,-1.9685,-1.9798,-1.9798,-1.9798,-1.9798,-1.9747,-1.9463,-1.9165,-1.8778,-1.8437,-1.8139,-1.7668,-1.7444,-0.8215,-0.8804,-0.8804,-0.8804,-0.8804,-0.8804,-0.8804,-0.8804,-0.8804,-0.8918,-0.9163,-0.9526,-0.9666,-0.98,-1.0027,-1.0321,-1.0557,-1.0618,-1.0618,-1.0618,-1.0618,-1.0618,-1.0624,-1.0618,-1.0628,-1.0828,-1.1229,-1.1563,-1.1955,-1.2244,-1.2004,-1.157,-1.1403,-1.1149,-1.0681,-1.0638,-1.0618,-1.0618,-1.0618,-1.0618,-1.0618,-1.0618,-1.0618,-1.0618,-1.0618,-1.0618,-1.0618,-1.0618,-1.0618,-1.0618,-1.0618,-1.0982,-1.1648,-1.1834,-1.2266,-1.3183,-1.3795,-1.4034,-1.3795,-1.4569,-1.505,-1.4746,-1.4991,-1.5294,-1.5322,-1.5117,-1.4961,-1.5273,-1.4346,-1.4023,-1.4424,-1.3994,-1.392,-1.4297,-1.4877,-1.5425,-1.607,-1.6596,-1.7098,-1.7773,-1.8039,-1.8219,-1.8405,-1.8317,-1.8229,-1.8216,-1.8191,-1.8213,-1.8134,-1.7802,-1.7463,-1.7663,-1.7683,-1.7213,-1.726,-1.7529,-1.7798,-1.7965,-1.8618,-1.9258,-1.9459,-1.9673,-1.9723,-1.9798,-1.9747,-1.9631,-1.9579,-1.9411,-1.9307,-1.8879,-1.8212,-1.7901,-1.7741,-1.7147,-1.6526,-0.7777,-0.8804,-0.8804,-0.8804,-0.8804,-0.8804,-0.8804,-0.8804,-0.8811,-0.8878,-0.9031,-0.9305,-0.9599,-0.9886,-1.008,-1.0287,-1.0508,-1.0618,-1.0618,-1.0618,-1.0618,-1.0618,-1.0601,-1.0722,-1.0802,-1.0929,-1.1343,-1.171,-1.1951,-1.2098,-1.2064,-1.1717,-1.149,-1.1249,-1.0788,-1.0698,-1.0638,-1.0618,-1.0618,-1.0618,-1.0618,-1.0618,-1.0618,-1.0618,-1.0618,-1.0618,-1.0618,-1.0618,-1.0618,-1.0618,-1.0618,-1.0751,-1.1045,-1.1108,-1.1351,-1.16,-1.2381,-1.281,-1.313,-1.4094,-1.4332,-1.451,-1.4864,-1.5352,-1.5371,-1.5264,-1.5039,-1.5019,-1.4355,-1.4141,-1.4326,-1.4082,-1.4209,-1.4483,-1.4949,-1.5388,-1.5966,-1.6551,-1.7116,-1.7891,-1.8549,-1.8598,-1.8796,-1.8957,-1.8808,-1.8632,-1.8632,-1.8668,-1.8493,-1.8169,-1.7815,-1.7478,-1.7384,-1.7175,-1.7377,-1.7639,-1.7999,-1.8302,-1.8976,-1.9522,-1.9635,-1.9786,-1.9798,-1.9579,-1.9359,-1.9307,-1.9254,-1.9032,-1.8768,-1.8205,-1.7519,-1.7203,-1.689,-1.643,-1.591,-0.7343,-0.8533,-0.8699,-0.8804,-0.8804,-0.8804,-0.8804,-0.8804,-0.8804,-0.8804,-0.8858,-0.901,-0.9486,-0.9967,-1.0053,-1.0134,-1.0497,-1.0584,-1.0618,-1.0618,-1.0618,-1.0618,-1.0635,-1.0815,-1.0975,-1.1015,-1.1543,-1.1817,-1.1944,-1.2098,-1.2151,-1.187,-1.1557,-1.1269,-1.1009,-1.0802,-1.0681,-1.0618,-1.0618,-1.0618,-1.0618,-1.0618,-1.0618,-1.0618,-1.0618,-1.0618,-1.0618,-1.0618,-1.0618,-1.0618,-1.0618,-1.0624,-1.0681,-1.0744,-1.0744,-1.0926,-1.1406,-1.1779,-1.2397,-1.313,-1.3674,-1.3965,-1.4569,-1.5118,-1.541,-1.54,-1.5244,-1.4873,-1.457,-1.4336,-1.4297,-1.4316,-1.4541,-1.4844,-1.5194,-1.5532,-1.5898,-1.6439,-1.705,-1.7711,-1.8366,-1.8875,-1.9103,-1.9545,-1.9484,-1.9133,-1.9058,-1.9046,-1.887,-1.857,-1.8307,-1.794,-1.7702,-1.7601,-1.7727,-1.7965,-1.8216,-1.8553,-1.9279,-1.9673,-1.9749,-1.9747,-1.9631,-1.9411,-1.9032,-1.8715,-1.8555,-1.8394,-1.8232,-1.7533,-1.6903,-1.6327,-1.5921,-1.5526,-1.541,-0.7074,-0.783,-0.848,-0.8752,-0.8804,-0.8804,-0.8804,-0.8804,-0.8804,-0.8752,-0.8699,-0.8898,-0.9365,-0.9801,-0.984,-0.9947,-1.0174,-1.0434,-1.0465,-1.0491,-1.0561,-1.041,-1.0393,-1.0502,-1.081,-1.0888,-1.137,-1.1748,-1.1904,-1.1959,-1.2037,-1.1864,-1.163,-1.1303,-1.1096,-1.0982,-1.0795,-1.0719,-1.0651,-1.0618,-1.0618,-1.0618,-1.0618,-1.0618,-1.0618,-1.0618,-1.0618,-1.0618,-1.0618,-1.0618,-1.0618,-1.0618,-1.0618,-1.0618,-1.0618,-1.0681,-1.0744,-1.0989,-1.1421,-1.2274,-1.2573,-1.2687,-1.3416,-1.4697,-1.5118,-1.5352,-1.5195,-1.4863,-1.4668,-1.4668,-1.4687,-1.4775,-1.4844,-1.5127,-1.538,-1.5571,-1.592,-1.629,-1.6927,-1.7543,-1.8109,-1.8513,-1.8883,-1.9178,-1.9683,-1.9395,-1.9409,-1.9409,-1.9221,-1.897,-1.8883,-1.8668,-1.8342,-1.8216,-1.8216,-1.8417,-1.8643,-1.8794,-1.9245,-1.9573,-1.9761,-1.9683,-1.9631,-1.9097,-1.8661,-1.8286,-1.7797,-1.7512,-1.7191,-1.6821,-1.6322,-1.5921,-1.5642,-1.5468,-1.542,-0.6086,-0.6465,-0.7605,-0.8374,-0.8804,-0.8804,-0.8804,-0.8804,-0.8804,-0.8533,-0.8174,-0.8728,-0.8974,-0.9157,-0.9801,-1.0,-1.0154,-1.0428,-1.0212,-0.9982,-0.9851,-0.961,-0.9487,-0.9497,-0.9623,-0.9949,-1.0671,-1.1124,-1.1013,-1.1631,-1.1877,-1.177,-1.1744,-1.1677,-1.1496,-1.1169,-1.0929,-1.0815,-1.0719,-1.0624,-1.0618,-1.0618,-1.0618,-1.0618,-1.0618,-1.0618,-1.0618,-1.0618,-1.0618,-1.0618,-1.0618,-1.0618,-1.0618,-1.0618,-1.0618,-1.0618,-1.0618,-1.0618,-1.0681,-1.1663,-1.2266,-1.2879,-1.3545,-1.4332,-1.4756,-1.5108,-1.5138,-1.4951,-1.4805,-1.4844,-1.4785,-1.4795,-1.4902,-1.5254,-1.5468,-1.5633,-1.5864,-1.6151,-1.6436,-1.6946,-1.7446,-1.7927,-1.8317,-1.8661,-1.9202,-1.9658,-1.9709,-1.9723,-1.951,-1.9296,-1.9183,-1.9171,-1.8869,-1.8756,-1.8756,-1.8894,-1.9058,-1.9121,-1.9233,-1.9345,-1.9542,-1.9798,-1.9579,-1.8992,-1.8232,-1.7688,-1.7135,-1.6585,-1.6312,-1.6322,-1.6036,-1.569,-1.5526,-1.542,-1.542,-0.5483,-0.5701,-0.7063,-0.7996,-0.8427,-0.848,-0.8593,-0.8752,-0.8533,-0.8265,-0.7901,-0.8367,-0.8447,-0.8537,-0.9163,-0.9579,-0.9663,-0.9837,-0.9545,-0.9285,-0.8959,-0.8746,-0.8511,-0.8584,-0.9021,-0.9139,-1.0029,-1.0739,-1.0688,-1.1352,-1.1806,-1.1997,-1.1991,-1.1951,-1.171,-1.1323,-1.1002,-1.0929,-1.0735,-1.0624,-1.0618,-1.0618,-1.0618,-1.0618,-1.0618,-1.0618,-1.0618,-1.0618,-1.0618,-1.0618,-1.0618,-1.0618,-1.0618,-1.0618,-1.0618,-1.0618,-1.0618,-1.0618,-1.0737,-1.1108,-1.1841,-1.2389,-1.3243,-1.3846,-1.4332,-1.4923,-1.5167,-1.4883,-1.4873,-1.4932,-1.4873,-1.4922,-1.5068,-1.5391,-1.541,-1.5526,-1.5584,-1.5816,-1.5979,-1.6244,-1.6754,-1.7313,-1.7667,-1.8116,-1.8922,-1.95,-1.9734,-1.9748,-1.9623,-1.9497,-1.9434,-1.9384,-1.9309,-1.9271,-1.9271,-1.9296,-1.9296,-1.927,-1.9318,-1.9125,-1.9221,-1.9386,-1.8992,-1.7961,-1.7302,-1.6922,-1.6472,-1.5968,-1.5979,-1.6036,-1.5748,-1.5468,-1.5468,-1.542,-1.542,-0.5433,-0.5701,-0.7015,-0.7616,-0.7664,-0.7723,-0.8103,-0.8427,-0.7996,-0.7781,-0.7789,-0.7413,-0.747,-0.7989,-0.8508,-0.8769,-0.8692,-0.9039,-0.8877,-0.8213,-0.8184,-0.8145,-0.8191,-0.8279,-0.8529,-0.9076,-1.0035,-1.0754,-1.0701,-1.1557,-1.2078,-1.2198,-1.2158,-1.2131,-1.185,-1.1296,-1.1015,-1.0962,-1.0735,-1.0658,-1.0678,-1.0621,-1.0628,-1.0635,-1.0698,-1.0712,-1.0624,-1.0618,-1.0618,-1.0618,-1.0618,-1.0618,-1.0618,-1.0618,-1.0618,-1.0618,-1.0618,-1.0618,-1.0618,-1.0681,-1.1108,-1.1834,-1.2634,-1.3425,-1.4145,-1.4777,-1.5303,-1.499,-1.5117,-1.5127,-1.5107,-1.5117,-1.5303,-1.5391,-1.541,-1.542,-1.5478,-1.5526,-1.57,-1.5806,-1.6151,-1.6616,-1.6987,-1.7557,-1.853,-1.9223,-1.9604,-1.9645,-1.9403,-1.9366,-1.9265,-1.9202,-1.9138,-1.9138,-1.9125,-1.9455,-1.9581,-1.9542,-1.9193,-1.8802,-1.8537,-1.8424,-1.7786,-1.6933,-1.6698,-1.6585,-1.6026,-1.5468,-1.5642,-1.5758,-1.5642,-1.541,-1.542,-1.5439,-1.5459,-0.4838,-0.4948,-0.5869,-0.6249,-0.6357,-0.7289,-0.761,-0.7343,-0.7079,-0.6786,-0.6633,-0.6788,-0.6753,-0.6922,-0.7683,-0.8016,-0.7854,-0.8117,-0.7957,-0.7269,-0.7252,-0.694,-0.702,-0.7559,-0.8065,-0.8632,-0.9712,-1.0683,-1.0513,-1.1629,-1.1965,-1.2037,-1.2231,-1.2251,-1.2031,-1.161,-1.1283,-1.1189,-1.0882,-1.0705,-1.0815,-1.0848,-1.0842,-1.0842,-1.0828,-1.0806,-1.0638,-1.0624,-1.0618,-1.0618,-1.0618,-1.0618,-1.0618,-1.0618,-1.0618,-1.0618,-1.0618,-1.0618,-1.0618,-1.0618,-1.0681,-1.1351,-1.2143,-1.3,-1.3494,-1.4697,-1.5071,-1.5177,-1.5177,-1.5168,-1.5303,-1.5303,-1.54,-1.54,-1.542,-1.542,-1.542,-1.542,-1.5526,-1.5526,-1.5758,-1.6161,-1.6513,-1.6694,-1.7512,-1.7918,-1.8186,-1.8424,-1.8312,-1.8655,-1.8749,-1.8696,-1.8708,-1.8732,-1.8886,-1.8992,-1.8886,-1.8596,-1.8317,-1.8047,-1.7786,-1.7611,-1.7256,-1.6701,-1.6477,-1.6312,-1.5956,-1.5644,-1.5469,-1.542,-1.5518,-1.5478,-1.542,-1.5478,-1.5566,-0.4463,-0.457,-0.5214,-0.5378,-0.5382,-0.6416,-0.6632,-0.6253,-0.6204,-0.5959,-0.5815,-0.6258,-0.6284,-0.6162,-0.6855,-0.734,-0.6974,-0.7326,-0.7051,-0.6358,-0.6388,-0.6205,-0.6365,-0.6891,-0.7658,-0.833,-0.9648,-1.0689,-1.0668,-1.1591,-1.1985,-1.2118,-1.2204,-1.2271,-1.2131,-1.1837,-1.1577,-1.1456,-1.1189,-1.0989,-1.1102,-1.1122,-1.1082,-1.1009,-1.0942,-1.0855,-1.0648,-1.0618,-1.0618,-1.0618,-1.0618,-1.0618,-1.0618,-1.0618,-1.0618,-1.0618,-1.0618,-1.0618,-1.0618,-1.0618,-1.0618,-1.0744,-1.1903,-1.2451,-1.2765,-1.3726,-1.4451,-1.4787,-1.4991,-1.5225,-1.5342,-1.5352,-1.542,-1.542,-1.542,-1.542,-1.542,-1.542,-1.542,-1.542,-1.5468,-1.5816,-1.6046,-1.6093,-1.6425,-1.6553,-1.6623,-1.698,-1.7335,-1.7841,-1.8178,-1.8112,-1.8112,-1.8167,-1.8178,-1.8232,-1.8015,-1.7688,-1.7446,-1.7323,-1.7143,-1.697,-1.6717,-1.6601,-1.6504,-1.6397,-1.6118,-1.5918,-1.5918,-1.585,-1.5801,-1.5693,-1.5469,-1.5557,-1.5723,-0.4463,-0.457,-0.5218,-0.5054,-0.4677,-0.5328,-0.5483,-0.5487,-0.5487,-0.5536,-0.5719,-0.5195,-0.528,-0.5904,-0.648,-0.645,-0.6274,-0.6488,-0.6183,-0.5782,-0.5752,-0.571,-0.6215,-0.7017,-0.7786,-0.8609,-0.9809,-1.1224,-1.0989,-1.1777,-1.2238,-1.2258,-1.2278,-1.2305,-1.2191,-1.2051,-1.1857,-1.1697,-1.147,-1.1336,-1.141,-1.1436,-1.1303,-1.1182,-1.1062,-1.0882,-1.0688,-1.0618,-1.0618,-1.0618,-1.0618,-1.0618,-1.0618,-1.0618,-1.0618,-1.0618,-1.0618,-1.0618,-1.0618,-1.0618,-1.0618,-1.0681,-1.1288,-1.1655,-1.2205,-1.3,-1.3906,-1.4392,-1.4628,-1.4991,-1.5235,-1.5352,-1.542,-1.542,-1.542,-1.542,-1.542,-1.542,-1.542,-1.542,-1.542,-1.5584,-1.5584,-1.5642,-1.5806,-1.5853,-1.6053,-1.6327,-1.6733,-1.7191,-1.7468,-1.7291,-1.7346,-1.7578,-1.7523,-1.7413,-1.718,-1.6856,-1.68,-1.6644,-1.6512,-1.654,-1.6566,-1.6547,-1.6589,-1.6543,-1.6305,-1.6354,-1.649,-1.6445,-1.6211,-1.6084,-1.5918,-1.5859,-1.5986,-0.4463,-0.4515,-0.4677,-0.4677,-0.4519,-0.4732,-0.4791,-0.4787,-0.4787,-0.4882,-0.4984,-0.497,-0.5051,-0.5092,-0.5548,-0.5541,-0.5541,-0.5528,-0.565,-0.5456,-0.5494,-0.5593,-0.6298,-0.7368,-0.8304,-0.9399,-1.0571,-1.162,-1.1842,-1.2305,-1.2231,-1.2298,-1.215,-1.2231,-1.2271,-1.2211,-1.2058,-1.1884,-1.1637,-1.1643,-1.1703,-1.1737,-1.155,-1.139,-1.1269,-1.1035,-1.0715,-1.0601,-1.0588,-1.0561,-1.0631,-1.0624,-1.0618,-1.0618,-1.0618,-1.0618,-1.0618,-1.0618,-1.0618,-1.0618,-1.0618,-1.0618,-1.0863,-1.1288,-1.1896,-1.2749,-1.3606,-1.3846,-1.4204,-1.4569,-1.4932,-1.5177,-1.5294,-1.542,-1.542,-1.542,-1.542,-1.542,-1.542,-1.542,-1.542,-1.542,-1.542,-1.5468,-1.5584,-1.5468,-1.5526,-1.5806,-1.6083,-1.6585,-1.6698,-1.6585,-1.6743,-1.6912,-1.6641,-1.6415,-1.6301,-1.6104,-1.6181,-1.6266,-1.6347,-1.6407,-1.6458,-1.666,-1.6904,-1.6855,-1.6617,-1.6733,-1.7002,-1.6797,-1.6572,-1.6484,-1.6396,-1.6367,-1.6416,-0.4463,-0.4463,-0.4463,-0.4463,-0.4463,-0.4463,-0.4463,-0.4463,-0.4463,-0.4604,-0.4701,-0.4853,-0.487,-0.4924,-0.5229,-0.5308,-0.5119,-0.537,-0.5425,-0.5425,-0.5428,-0.5562,-0.6335,-0.738,-0.8398,-0.9585,-1.064,-1.1533,-1.1996,-1.1848,-1.1768,-1.2231,-1.207,-1.207,-1.2144,-1.2271,-1.2211,-1.2058,-1.1931,-1.1911,-1.1957,-1.2017,-1.185,-1.163,-1.1516,-1.1156,-1.0815,-1.0742,-1.0688,-1.0635,-1.0685,-1.0725,-1.0615,-1.0618,-1.0618,-1.0618,-1.0618,-1.0618,-1.0618,-1.0618,-1.0618,-1.0618,-1.0618,-1.0863,-1.1226,-1.1903,-1.2512,-1.2992,-1.3537,-1.4085,-1.4569,-1.4932,-1.5177,-1.5352,-1.5352,-1.542,-1.542,-1.542,-1.542,-1.542,-1.542,-1.542,-1.542,-1.542,-1.542,-1.542,-1.542,-1.5526,-1.5633,-1.5864,-1.5968,-1.5864,-1.6083,-1.6301,-1.5979,-1.5768,-1.5768,-1.5868,-1.6059,-1.6138,-1.6213,-1.6553,-1.6953,-1.7148,-1.7295,-1.7236,-1.7197,-1.7266,-1.7373,-1.7178,-1.707,-1.7051,-1.7002,-1.6953,-1.7061,-0.4463,-0.4463,-0.4463,-0.4463,-0.4463,-0.4463,-0.4463,-0.4463,-0.4463,-0.4548,-0.4697,-0.4833,-0.4877,-0.4894,-0.5159,-0.5216,-0.5148,-0.5257,-0.5428,-0.5428,-0.5428,-0.5511,-0.5965,-0.6873,-0.8096,-0.9094,-1.0168,-1.1224,-1.1694,-1.1694,-1.1768,-1.215,-1.162,-1.162,-1.2224,-1.2305,-1.2265,-1.2225,-1.2191,-1.2198,-1.2231,-1.2245,-1.2164,-1.1857,-1.161,-1.1329,-1.1116,-1.0989,-1.0915,-1.0822,-1.0768,-1.0828,-1.0655,-1.0618,-1.0618,-1.0618,-1.0618,-1.0618,-1.0618,-1.0618,-1.0618,-1.0618,-1.0618,-1.0681,-1.0989,-1.1413,-1.202,-1.2389,-1.2931,-1.3657,-1.4204,-1.451,-1.4746,-1.5177,-1.542,-1.542,-1.542,-1.542,-1.542,-1.542,-1.542,-1.542,-1.542,-1.542,-1.542,-1.542,-1.542,-1.542,-1.5547,-1.5664,-1.5557,-1.5498,-1.5662,-1.5884,-1.574,-1.5585,-1.5527,-1.5664,-1.5947,-1.6152,-1.6357,-1.6904,-1.7549,-1.7607,-1.7637,-1.7793,-1.7822,-1.7773,-1.7715,-1.7705,-1.7637,-1.7656,-1.7607,-1.748,-1.75,-0.4463,-0.4463,-0.4463,-0.4463,-0.4463,-0.4463,-0.4463,-0.4463,-0.4463,-0.4548,-0.4677,-0.4724,-0.4745,-0.4792,-0.5067,-0.5125,-0.5064,-0.5247,-0.5408,-0.5428,-0.5428,-0.5528,-0.5853,-0.6675,-0.7785,-0.8918,-0.9918,-1.0926,-1.1316,-1.162,-1.1545,-1.1391,-1.1316,-1.1922,-1.2231,-1.2305,-1.2305,-1.2305,-1.2305,-1.2305,-1.2305,-1.2265,-1.2164,-1.1951,-1.173,-1.159,-1.141,-1.1316,-1.1289,-1.1249,-1.1042,-1.0855,-1.0588,-1.0638,-1.0624,-1.0618,-1.0618,-1.0618,-1.0618,-1.0618,-1.0618,-1.0618,-1.0618,-1.0618,-1.08,-1.1226,-1.1593,-1.1896,-1.2328,-1.3114,-1.3786,-1.4085,-1.4451,-1.4932,-1.542,-1.542,-1.542,-1.542,-1.542,-1.542,-1.542,-1.5449,-1.5459,-1.5469,-1.542,-1.542,-1.542,-1.5498,-1.582,-1.5978,-1.5831,-1.5713,-1.5508,-1.5537,-1.5566,-1.5703,-1.5801,-1.6025,-1.6387,-1.6514,-1.6611,-1.7197,-1.7793,-1.7891,-1.7969,-1.8008,-1.8008,-1.7978,-1.7949,-1.7969,-1.7949,-1.7861,-1.7871,-1.7783,-1.7822,-0.4463,-0.4463,-0.4463,-0.4463,-0.4463,-0.4463,-0.4463,-0.4463,-0.4463,-0.4563,-0.4652,-0.465,-0.4657,-0.4677,-0.4962,-0.5057,-0.4999,-0.5233,-0.5397,-0.5428,-0.5446,-0.5528,-0.5928,-0.635,-0.7637,-0.8769,-1.0572,-1.1545,-1.1397,-1.1316,-1.1236,-1.1316,-1.1848,-1.1922,-1.2157,-1.2305,-1.2305,-1.2305,-1.2305,-1.2305,-1.2305,-1.2278,-1.2251,-1.2078,-1.1924,-1.1784,-1.1717,-1.161,-1.153,-1.1456,-1.1263,-1.1062,-1.0855,-1.0782,-1.0688,-1.0665,-1.0618,-1.0618,-1.0618,-1.0618,-1.0618,-1.0618,-1.0618,-1.0618,-1.0624,-1.0989,-1.0989,-1.1233,-1.1296,-1.1965,-1.3061,-1.3545,-1.4332,-1.4991,-1.5294,-1.542,-1.542,-1.542,-1.542,-1.542,-1.5537,-1.5781,-1.5859,-1.6094,-1.6004,-1.5962,-1.5865,-1.5887,-1.614,-1.6367,-1.6201,-1.6113,-1.6025,-1.5996,-1.6172,-1.625,-1.6279,-1.6543,-1.6777,-1.707,-1.7285,-1.7646,-1.8008,-1.8008,-1.8008,-1.8008,-1.8008,-1.8008,-1.8008,-1.7988,-1.7998,-1.7988,-1.8008,-1.8008,-1.7988,-0.4463,-0.4463,-0.4463,-0.4463,-0.4463,-0.4463,-0.4463,-0.4463,-0.4463,-0.4463,-0.4543,-0.4602,-0.4572,-0.4677,-0.488,-0.4945,-0.506,-0.5257,-0.5342,-0.5428,-0.5428,-0.549,-0.5538,-0.5899,-0.725,-0.9098,-1.1034,-1.1624,-1.1774,-1.162,-1.162,-1.1929,-1.1768,-1.1465,-1.2077,-1.2305,-1.2305,-1.2305,-1.2305,-1.2305,-1.2305,-1.2305,-1.2291,-1.2198,-1.2084,-1.1937,-1.1924,-1.1884,-1.1764,-1.165,-1.1516,-1.1249,-1.1049,-1.0922,-1.0755,-1.0705,-1.0618,-1.0618,-1.0618,-1.0618,-1.0618,-1.0618,-1.0624,-1.0631,-1.0638,-1.0638,-1.0694,-1.0708,-1.0708,-1.131,-1.2413,-1.3353,-1.4192,-1.5029,-1.5274,-1.5508,-1.5518,-1.5537,-1.5547,-1.5557,-1.584,-1.6123,-1.6299,-1.6553,-1.6568,-1.6481,-1.6446,-1.6529,-1.6558,-1.6772,-1.6797,-1.6855,-1.6904,-1.6885,-1.6738,-1.6768,-1.6768,-1.6797,-1.7041,-1.751,-1.7871,-1.7959,-1.8008,-1.8008,-1.8008,-1.8008,-1.8008,-1.8008,-1.8008,-1.8008,-1.8008,-1.8008,-1.8008,-1.8008,-1.8008,-0.4463,-0.4463,-0.4463,-0.4463,-0.4463,-0.4463,-0.4463,-0.4463,-0.4463,-0.4463,-0.447,-0.4487,-0.4535,-0.4653,-0.4847,-0.4972,-0.5101,-0.5281,-0.5342,-0.5428,-0.5428,-0.5452,-0.567,-0.6117,-0.7212,-0.9067,-1.0894,-1.1497,-1.181,-1.1848,-1.162,-1.1316,-1.2077,-1.2077,-1.215,-1.2305,-1.2305,-1.2305,-1.2305,-1.2305,-1.2305,-1.2305,-1.2305,-1.2271,-1.2258,-1.2225,-1.2225,-1.2225,-1.2191,-1.2091,-1.185,-1.1483,-1.1182,-1.0982,-1.0893,-1.0732,-1.0581,-1.0685,-1.0692,-1.0681,-1.0701,-1.0692,-1.0692,-1.0621,-1.0685,-1.0685,-1.0698,-1.0732,-1.091,-1.1479,-1.2437,-1.3238,-1.4108,-1.5008,-1.5527,-1.5771,-1.5879,-1.5967,-1.6035,-1.6201,-1.6445,-1.6582,-1.6631,-1.6797,-1.6855,-1.6757,-1.6767,-1.6889,-1.7142,-1.7229,-1.7353,-1.7471,-1.7588,-1.7246,-1.6894,-1.7168,-1.7217,-1.7207,-1.7275,-1.7686,-1.7939,-1.7978,-1.8008,-1.8008,-1.8008,-1.8008,-1.8008,-1.8008,-1.8008,-1.8008,-1.8008,-1.8008,-1.8008,-1.8008,-1.8008]},{"header":{"parameterUnit":"m.s-1","parameterCategory":1,"la1":31.0,"la2":29.5877,"lo1":-88.7671,"lo2":-86.6584,"dy":0.0162,"dx":0.0185,"nx":115,"ny":88,"refTime":"2023-05-16T18:00:00:Z","depth":0,"parameterNumber":3,"parameterNumberName":"V-component_of_WINDS"},"data":[0.0,0.0,0.0,0.0,0.0,0.0,0.0,0.0,0.0,0.0,0.0,0.0,0.0,0.0,0.0,0.0,0.0,0.0,0.0,0.0,0.0,0.0,0.0,0.0,0.0,0.0,0.0,0.0,0.0,0.0,0.0,0.0,0.0,0.0,0.0,0.0,0.0,0.0,0.0,0.0,0.0,-1.9585,-1.9521,-2.0204,-1.9825,-1.9168,-1.8316,0.0,0.0,0.0,0.0,0.0,0.0,0.0,0.0,0.0,0.0,0.0,0.0,0.0,0.0,0.0,0.0,0.0,0.0,0.0,0.0,0.0,0.0,0.0,0.0,0.0,0.0,0.0,0.0,0.0,0.0,0.0,0.0,0.0,0.0,0.0,0.0,0.0,0.0,0.0,0.0,0.0,0.0,0.0,0.0,0.0,0.0,0.0,0.0,0.0,0.0,0.0,0.0,0.0,0.0,0.0,0.0,0.0,0.0,0.0,0.0,0.0,0.0,0.0,0.0,0.0,0.0,0.0,0.0,0.0,0.0,0.0,0.0,0.0,0.0,0.0,0.0,0.0,0.0,0.0,0.0,0.0,0.0,0.0,0.0,0.0,0.0,0.0,0.0,0.0,0.0,0.0,0.0,0.0,0.0,0.0,0.0,0.0,0.0,0.0,0.0,0.0,0.0,0.0,0.0,0.0,0.0,0.0,0.0,0.0,0.0,-1.9493,-2.0211,-2.0272,-1.9846,-1.9023,0.0,0.0,0.0,0.0,0.0,0.0,0.0,0.0,0.0,0.0,0.0,0.0,0.0,0.0,0.0,0.0,0.0,0.0,0.0,0.0,0.0,0.0,0.0,0.0,0.0,0.0,0.0,0.0,0.0,0.0,0.0,0.0,0.0,0.0,0.0,0.0,0.0,0.0,0.0,0.0,0.0,0.0,0.0,0.0,0.0,0.0,0.0,0.0,0.0,0.0,0.0,0.0,0.0,0.0,0.0,0.0,0.0,0.0,0.0,0.0,0.0,0.0,0.0,0.0,0.0,0.0,0.0,0.0,0.0,0.0,0.0,0.0,0.0,0.0,0.0,0.0,0.0,0.0,0.0,0.0,0.0,0.0,0.0,0.0,0.0,0.0,0.0,0.0,0.0,0.0,0.0,0.0,0.0,0.0,0.0,0.0,0.0,0.0,0.0,0.0,0.0,0.0,0.0,0.0,0.0,0.0,0.0,0.0,0.0,0.0,-1.9458,-2.0176,-2.0241,-1.9826,-1.8978,0.0,0.0,0.0,0.0,0.0,0.0,0.0,0.0,0.0,0.0,0.0,0.0,0.0,0.0,0.0,0.0,0.0,0.0,0.0,0.0,0.0,0.0,0.0,0.0,0.0,0.0,0.0,0.0,0.0,0.0,0.0,0.0,0.0,0.0,0.0,0.0,0.0,0.0,0.0,0.0,0.0,0.0,0.0,0.0,0.0,0.0,0.0,0.0,0.0,0.0,0.0,0.0,0.0,0.0,0.0,0.0,0.0,0.0,0.0,0.0,0.0,0.0,0.0,0.0,0.0,0.0,0.0,0.0,0.0,0.0,0.0,0.0,0.0,0.0,0.0,0.0,0.0,0.0,0.0,0.0,0.0,0.0,0.0,0.0,0.0,0.0,0.0,0.0,0.0,0.0,0.0,0.0,0.0,0.0,0.0,0.0,0.0,0.0,0.0,0.0,0.0,0.0,0.0,0.0,0.0,0.0,0.0,0.0,0.0,0.0,-1.9447,-2.0188,-2.0169,-1.9936,-1.9412,-1.9002,0.0,0.0,0.0,0.0,0.0,0.0,0.0,0.0,0.0,0.0,0.0,0.0,0.0,0.0,0.0,0.0,0.0,0.0,0.0,0.0,0.0,0.0,0.0,0.0,0.0,0.0,0.0,0.0,0.0,0.0,0.0,0.0,0.0,0.0,0.0,0.0,0.0,0.0,0.0,0.0,0.0,0.0,0.0,0.0,0.0,0.0,0.0,0.0,0.0,0.0,0.0,0.0,0.0,0.0,0.0,0.0,0.0,0.0,0.0,0.0,0.0,0.0,0.0,0.0,0.0,0.0,0.0,0.0,0.0,0.0,0.0,0.0,0.0,0.0,0.0,0.0,0.0,0.0,0.0,0.0,0.0,0.0,0.0,0.0,0.0,0.0,0.0,0.0,0.0,0.0,0.0,0.0,0.0,0.0,0.0,0.0,0.0,0.0,0.0,0.0,0.0,0.0,0.0,0.0,0.0,0.0,0.0,0.0,0.0,-1.9563,-2.0137,-2.0133,-2.005,-1.9969,-1.9254,0.0,0.0,0.0,0.0,0.0,0.0,0.0,0.0,0.0,0.0,0.0,0.0,0.0,0.0,0.0,0.0,0.0,0.0,0.0,0.0,0.0,0.0,0.0,0.0,0.0,0.0,0.0,0.0,0.0,0.0,0.0,0.0,0.0,0.0,0.0,0.0,0.0,0.0,0.0,0.0,0.0,0.0,0.0,0.0,0.0,0.0,0.0,0.0,0.0,0.0,0.0,0.0,0.0,0.0,0.0,0.0,0.0,0.0,0.0,0.0,0.0,0.0,0.0,0.0,0.0,0.0,0.0,0.0,0.0,0.0,0.0,0.0,0.0,0.0,0.0,0.0,0.0,0.0,0.0,0.0,0.0,0.0,0.0,0.0,0.0,0.0,0.0,0.0,0.0,0.0,0.0,0.0,0.0,0.0,0.0,0.0,0.0,0.0,0.0,0.0,0.0,0.0,0.0,0.0,0.0,0.0,0.0,0.0,0.0,-2.0214,-2.0276,-2.0105,-2.0,-1.9907,-1.9673,0.0,0.0,0.0,0.0,0.0,0.0,0.0,0.0,0.0,0.0,0.0,0.0,0.0,0.0,0.0,0.0,0.0,0.0,0.0,0.0,0.0,0.0,0.0,0.0,0.0,0.0,0.0,0.0,0.0,0.0,0.0,0.0,0.0,0.0,0.0,0.0,0.0,0.0,0.0,0.0,0.0,0.0,0.0,0.0,0.0,0.0,0.0,0.0,0.0,0.0,0.0,0.0,0.0,0.0,0.0,0.0,0.0,0.0,0.0,0.0,0.0,0.0,0.0,0.0,0.0,0.0,0.0,0.0,0.0,0.0,0.0,0.0,0.0,0.0,0.0,0.0,0.0,0.0,0.0,0.0,0.0,0.0,0.0,0.0,0.0,0.0,0.0,0.0,0.0,0.0,0.0,0.0,0.0,0.0,0.0,0.0,0.0,0.0,0.0,0.0,0.0,0.0,0.0,0.0,0.0,0.0,0.0,0.0,0.0,-2.0123,-1.999,-1.9865,-1.9736,-1.9619,-1.9532,0.0,0.0,0.0,0.0,0.0,0.0,0.0,0.0,0.0,0.0,0.0,0.0,0.0,0.0,0.0,0.0,0.0,0.0,0.0,0.0,0.0,0.0,0.0,0.0,0.0,0.0,0.0,0.0,0.0,0.0,0.0,0.0,0.0,0.0,0.0,0.0,0.0,0.0,0.0,0.0,0.0,0.0,0.0,0.0,0.0,0.0,0.0,0.0,0.0,0.0,0.0,0.0,0.0,0.0,0.0,0.0,0.0,0.0,0.0,0.0,0.0,0.0,0.0,0.0,0.0,0.0,0.0,0.0,0.0,0.0,0.0,0.0,0.0,0.0,0.0,0.0,0.0,0.0,0.0,0.0,0.0,0.0,0.0,0.0,0.0,0.0,0.0,0.0,0.0,0.0,0.0,0.0,0.0,0.0,0.0,0.0,0.0,0.0,0.0,0.0,0.0,0.0,0.0,0.0,0.0,0.0,0.0,0.0,-1.986,-1.9751,-1.9543,-1.9475,-1.9355,-1.9133,-1.9191,0.0,0.0,0.0,0.0,0.0,0.0,0.0,0.0,0.0,0.0,0.0,0.0,0.0,0.0,0.0,0.0,0.0,0.0,0.0,0.0,0.0,0.0,0.0,0.0,0.0,0.0,0.0,0.0,0.0,0.0,0.0,0.0,0.0,0.0,0.0,0.0,0.0,0.0,0.0,0.0,0.0,0.0,0.0,0.0,0.0,0.0,0.0,0.0,0.0,0.0,0.0,0.0,0.0,0.0,0.0,0.0,0.0,0.0,0.0,0.0,0.0,0.0,0.0,0.0,0.0,0.0,0.0,0.0,0.0,0.0,0.0,0.0,0.0,0.0,0.0,0.0,0.0,0.0,0.0,0.0,0.0,0.0,0.0,0.0,0.0,0.0,0.0,0.0,0.0,0.0,0.0,0.0,0.0,0.0,0.0,0.0,0.0,0.0,0.0,0.0,0.0,0.0,0.0,0.0,0.0,0.0,0.0,-1.9557,-1.9354,-1.9113,-1.8941,-1.8911,-1.8784,-1.8538,-1.8699,0.0,0.0,0.0,0.0,0.0,0.0,0.0,0.0,0.0,0.0,0.0,0.0,0.0,0.0,0.0,0.0,0.0,0.0,0.0,0.0,0.0,0.0,0.0,0.0,0.0,0.0,0.0,0.0,0.0,0.0,0.0,0.0,0.0,0.0,0.0,0.0,0.0,0.0,0.0,0.0,0.0,0.0,0.0,0.0,0.0,0.0,0.0,0.0,0.0,0.0,0.0,0.0,0.0,0.0,0.0,0.0,0.0,0.0,0.0,0.0,0.0,0.0,0.0,0.0,0.0,0.0,0.0,0.0,0.0,0.0,0.0,0.0,0.0,0.0,0.0,0.0,0.0,0.0,0.0,0.0,0.0,0.0,0.0,0.0,0.0,0.0,0.0,0.0,0.0,0.0,0.0,0.0,0.0,0.0,0.0,0.0,0.0,0.0,0.0,0.0,0.0,0.0,0.0,0.0,0.0,0.0,-1.9139,-1.8846,-1.8644,-1.8467,-1.8263,-1.8163,-1.802,-1.7868,-1.8186,0.0,0.0,0.0,0.0,0.0,0.0,0.0,0.0,0.0,0.0,0.0,0.0,0.0,0.0,0.0,0.0,0.0,0.0,0.0,0.0,0.0,0.0,0.0,0.0,0.0,0.0,0.0,0.0,0.0,0.0,0.0,0.0,0.0,0.0,0.0,0.0,0.0,0.0,0.0,0.0,0.0,0.0,0.0,0.0,0.0,0.0,0.0,0.0,0.0,0.0,0.0,0.0,0.0,0.0,0.0,0.0,0.0,0.0,0.0,0.0,0.0,0.0,0.0,0.0,0.0,0.0,0.0,0.0,0.0,0.0,0.0,0.0,0.0,0.0,0.0,0.0,0.0,0.0,0.0,0.0,0.0,0.0,0.0,0.0,0.0,0.0,0.0,0.0,0.0,0.0,0.0,0.0,0.0,0.0,0.0,0.0,0.0,0.0,0.0,0.0,0.0,0.0,0.0,0.0,0.0,0.0,-1.8499,-1.8031,-1.7915,-1.7771,-1.7535,-1.7527,-1.7609,-1.7781,0.0,0.0,0.0,0.0,0.0,0.0,0.0,0.0,0.0,0.0,0.0,0.0,0.0,0.0,0.0,0.0,0.0,0.0,0.0,0.0,0.0,0.0,0.0,0.0,0.0,0.0,0.0,0.0,0.0,0.0,0.0,0.0,0.0,0.0,0.0,0.0,0.0,0.0,0.0,0.0,0.0,0.0,0.0,0.0,0.0,0.0,0.0,0.0,0.0,0.0,0.0,0.0,0.0,0.0,0.0,0.0,0.0,0.0,0.0,0.0,0.0,0.0,0.0,0.0,0.0,0.0,0.0,0.0,0.0,0.0,0.0,0.0,0.0,0.0,0.0,0.0,0.0,0.0,0.0,0.0,0.0,0.0,0.0,0.0,0.0,0.0,0.0,0.0,0.0,0.0,0.0,0.0,0.0,0.0,0.0,0.0,0.0,0.0,0.0,0.0,0.0,0.0,0.0,0.0,0.0,0.0,0.0,-1.7704,-1.7087,-1.7129,-1.7043,-1.6739,-1.7359,-1.8064,-1.8787,0.0,0.0,0.0,0.0,0.0,0.0,0.0,0.0,0.0,0.0,0.0,0.0,0.0,0.0,0.0,0.0,0.0,0.0,0.0,0.0,0.0,0.0,0.0,0.0,0.0,0.0,0.0,0.0,0.0,0.0,0.0,0.0,0.0,0.0,0.0,0.0,0.0,0.0,0.0,0.0,0.0,0.0,0.0,0.0,0.0,0.0,0.0,0.0,0.0,0.0,0.0,0.0,0.0,0.0,0.0,0.0,0.0,0.0,0.0,0.0,0.0,0.0,0.0,0.0,0.0,0.0,0.0,0.0,0.0,0.0,0.0,0.0,0.0,0.0,0.0,0.0,0.0,0.0,0.0,0.0,0.0,0.0,0.0,0.0,0.0,0.0,0.0,0.0,0.0,0.0,0.0,0.0,0.0,0.0,0.0,0.0,0.0,0.0,0.0,0.0,0.0,0.0,0.0,0.0,0.0,0.0,-1.7637,-1.6975,-1.6561,-1.6213,-1.6102,-1.6187,-1.6857,-1.758,-1.8298,0.0,0.0,0.0,0.0,0.0,0.0,0.0,0.0,0.0,0.0,0.0,0.0,0.0,0.0,0.0,0.0,0.0,0.0,0.0,0.0,0.0,0.0,0.0,0.0,0.0,0.0,0.0,0.0,0.0,0.0,0.0,0.0,0.0,0.0,0.0,0.0,0.0,0.0,0.0,0.0,0.0,0.0,0.0,0.0,0.0,0.0,0.0,0.0,0.0,0.0,0.0,0.0,0.0,0.0,0.0,0.0,0.0,0.0,0.0,0.0,0.0,0.0,0.0,0.0,0.0,0.0,0.0,0.0,0.0,0.0,0.0,0.0,0.0,0.0,0.0,0.0,0.0,0.0,0.0,0.0,0.0,0.0,0.0,0.0,0.0,0.0,0.0,0.0,0.0,0.0,0.0,0.0,0.0,0.0,0.0,0.0,0.0,0.0,0.0,0.0,0.0,0.0,0.0,0.0,0.0,-1.7924,-1.6904,-1.6172,-1.5783,-1.5305,-1.5367,-1.6038,-1.6642,-1.7376,-1.8283,0.0,0.0,0.0,0.0,0.0,0.0,0.0,0.0,0.0,0.0,0.0,0.0,0.0,0.0,0.0,0.0,0.0,0.0,0.0,0.0,0.0,0.0,0.0,0.0,0.0,0.0,0.0,0.0,0.0,0.0,0.0,0.0,0.0,0.0,0.0,0.0,0.0,0.0,0.0,0.0,0.0,0.0,0.0,0.0,0.0,0.0,0.0,0.0,0.0,0.0,0.0,0.0,0.0,0.0,0.0,0.0,0.0,0.0,0.0,0.0,0.0,0.0,0.0,0.0,0.0,0.0,0.0,0.0,0.0,0.0,0.0,0.0,0.0,0.0,0.0,0.0,0.0,0.0,0.0,0.0,0.0,0.0,0.0,0.0,0.0,0.0,0.0,0.0,0.0,0.0,0.0,0.0,0.0,0.0,0.0,0.0,0.0,0.0,0.0,0.0,0.0,0.0,0.0,0.0,0.0,0.0,-1.6124,-1.5216,-1.4512,-1.4432,-1.5094,-1.6338,-1.6818,-1.7718,-1.9184,0.0,0.0,0.0,0.0,0.0,0.0,0.0,0.0,0.0,0.0,0.0,0.0,0.0,0.0,0.0,0.0,0.0,0.0,0.0,0.0,0.0,0.0,0.0,0.0,0.0,0.0,0.0,0.0,0.0,0.0,0.0,0.0,0.0,0.0,0.0,0.0,0.0,0.0,0.0,0.0,0.0,0.0,0.0,0.0,0.0,0.0,0.0,0.0,0.0,0.0,0.0,0.0,0.0,0.0,0.0,0.0,0.0,0.0,0.0,0.0,0.0,0.0,0.0,0.0,0.0,0.0,0.0,0.0,0.0,0.0,0.0,0.0,0.0,0.0,0.0,0.0,0.0,0.0,0.0,0.0,0.0,0.0,0.0,0.0,0.0,0.0,0.0,0.0,0.0,0.0,0.0,0.0,0.0,0.0,0.0,0.0,0.0,0.0,0.0,0.0,0.0,0.0,0.0,0.0,0.0,0.0,-1.4819,-1.4,-1.3262,-1.3504,-1.4007,-1.472,-1.6186,-1.7382,-1.8163,0.0,0.0,0.0,0.0,0.0,0.0,0.0,0.0,0.0,0.0,0.0,0.0,0.0,0.0,0.0,0.0,0.0,0.0,0.0,0.0,0.0,0.0,0.0,0.0,0.0,0.0,0.0,0.0,0.0,0.0,0.0,0.0,0.0,0.0,0.0,0.0,0.0,0.0,0.0,0.0,0.0,0.0,0.0,0.0,0.0,0.0,0.0,0.0,0.0,0.0,0.0,0.0,0.0,0.0,0.0,0.0,0.0,0.0,0.0,0.0,0.0,0.0,0.0,0.0,0.0,0.0,0.0,0.0,0.0,0.0,0.0,0.0,0.0,0.0,0.0,0.0,0.0,0.0,0.0,0.0,0.0,0.0,0.0,0.0,0.0,0.0,0.0,0.0,0.0,0.0,0.0,0.0,0.0,0.0,0.0,0.0,0.0,0.0,0.0,0.0,0.0,0.0,0.0,0.0,0.0,0.0,-1.3412,-1.2672,-1.1622,-1.1997,-1.266,-1.3581,-1.5119,-1.6456,0.0,0.0,0.0,0.0,0.0,0.0,0.0,0.0,0.0,0.0,0.0,0.0,0.0,0.0,0.0,0.0,0.0,0.0,0.0,0.0,0.0,0.0,0.0,0.0,0.0,0.0,0.0,0.0,0.0,0.0,0.0,0.0,0.0,0.0,0.0,0.0,0.0,0.0,0.0,0.0,0.0,0.0,0.0,0.0,0.0,0.0,0.0,0.0,0.0,0.0,0.0,0.0,0.0,0.0,0.0,0.0,0.0,0.0,0.0,0.0,0.0,0.0,0.0,0.0,0.0,0.0,0.0,0.0,0.0,0.0,0.0,0.0,0.0,0.0,0.0,0.0,0.0,0.0,0.0,0.0,0.0,0.0,0.0,0.0,0.0,0.0,0.0,0.0,0.0,0.0,0.0,0.0,0.0,0.0,0.0,0.0,0.0,0.0,0.0,0.0,0.0,0.0,0.0,0.0,0.0,0.0,0.0,-1.1859,-1.1044,-0.9669,-0.9955,-1.1161,-1.3162,-1.371,-1.5047,0.0,0.0,0.0,0.0,0.0,0.0,0.0,0.0,0.0,0.0,0.0,0.0,0.0,0.0,0.0,0.0,0.0,0.0,0.0,0.0,0.0,0.0,0.0,0.0,0.0,0.0,0.0,0.0,0.0,0.0,0.0,0.0,0.0,0.0,0.0,0.0,0.0,0.0,0.0,0.0,0.0,0.0,0.0,0.0,0.0,0.0,0.0,0.0,0.0,0.0,0.0,0.0,0.0,0.0,0.0,0.0,0.0,0.0,0.0,0.0,0.0,0.0,0.0,0.0,0.0,0.0,0.0,0.0,0.0,0.0,0.0,0.0,0.0,0.0,0.0,0.0,0.0,0.0,0.0,0.0,0.0,0.0,0.0,0.0,0.0,0.0,0.0,0.0,0.0,0.0,0.0,0.0,0.0,0.0,0.0,0.0,0.0,0.0,0.0,0.0,0.0,0.0,0.0,0.0,0.0,0.0,0.0,-0.7489,-0.7228,-0.767,-0.8914,-1.0043,-1.1089,-1.2982,-1.4617,-1.5999,0.0,0.0,0.0,0.0,0.0,0.0,0.0,0.0,0.0,0.0,0.0,0.0,0.0,0.0,0.0,0.0,0.0,0.0,0.0,0.0,0.0,0.0,0.0,0.0,0.0,0.0,0.0,0.0,0.0,0.0,0.0,0.0,0.0,0.0,0.0,0.0,0.0,0.0,0.0,0.0,0.0,0.0,0.0,0.0,0.0,0.0,0.0,0.0,0.0,0.0,0.0,0.0,0.0,0.0,0.0,0.0,0.0,0.0,0.0,0.0,0.0,0.0,0.0,0.0,0.0,0.0,0.0,0.0,0.0,0.0,0.0,0.0,0.0,0.0,0.0,0.0,0.0,0.0,0.0,0.0,0.0,0.0,0.0,0.0,0.0,0.0,0.0,0.0,0.0,0.0,0.0,0.0,0.0,0.0,0.0,0.0,0.0,0.0,0.0,0.0,0.0,0.0,0.0,0.0,0.0,0.0,-0.5061,-0.4942,-0.5872,-0.7587,-0.9233,-1.0903,-1.2723,-1.4144,-1.5255,0.0,0.0,0.0,0.0,0.0,0.0,0.0,0.0,0.0,0.0,0.0,0.0,0.0,0.0,0.0,0.0,0.0,0.0,0.0,0.0,0.0,0.0,0.0,0.0,0.0,0.0,0.0,0.0,0.0,0.0,0.0,0.0,0.0,0.0,0.0,0.0,0.0,0.0,0.0,0.0,0.0,0.0,0.0,0.0,0.0,0.0,0.0,0.0,0.0,0.0,0.0,0.0,0.0,0.0,0.0,0.0,0.0,0.0,0.0,0.0,0.0,0.0,0.0,0.0,0.0,0.0,0.0,0.0,0.0,0.0,0.0,0.0,0.0,0.0,0.0,0.0,0.0,0.0,0.0,0.0,0.0,0.0,0.0,0.0,0.0,0.0,0.0,0.0,0.0,0.0,0.0,0.0,0.0,0.0,0.0,0.0,0.0,0.0,0.0,0.0,0.0,0.0,0.0,0.0,0.0,0.0,0.0,-0.4109,-0.4332,-0.6233,-0.8804,-1.2003,-1.2732,-1.3639,-1.4973,0.0,0.0,0.0,0.0,0.0,0.0,0.0,0.0,0.0,0.0,0.0,0.0,0.0,0.0,0.0,0.0,0.0,0.0,0.0,0.0,0.0,0.0,0.0,0.0,0.0,0.0,0.0,0.0,0.0,0.0,0.0,0.0,0.0,0.0,0.0,0.0,0.0,0.0,0.0,0.0,0.0,0.0,0.0,0.0,0.0,0.0,0.0,0.0,0.0,0.0,0.0,0.0,0.0,0.0,0.0,0.0,0.0,0.0,0.0,0.0,0.0,0.0,0.0,0.0,0.0,0.0,0.0,0.0,0.0,0.0,0.0,0.0,0.0,0.0,0.0,0.0,0.0,0.0,0.0,0.0,0.0,0.0,0.0,0.0,0.0,0.0,0.0,0.0,0.0,0.0,0.0,0.0,0.0,0.0,0.0,0.0,0.0,0.0,0.0,0.0,0.0,0.0,0.0,0.0,0.0,0.0,-0.3984,-0.4285,-0.517,-0.7588,-0.9373,-1.0432,-1.1995,-1.3398,-1.4727,0.0,0.0,0.0,0.0,0.0,0.0,0.0,0.0,0.0,0.0,0.0,0.0,0.0,0.0,0.0,0.0,0.0,0.0,0.0,0.0,0.0,0.0,0.0,0.0,0.0,0.0,0.0,0.0,0.0,0.0,0.0,0.0,0.0,0.0,0.0,0.0,0.0,0.0,0.0,0.0,0.0,0.0,0.0,0.0,0.0,0.0,0.0,0.0,0.0,0.0,0.0,0.0,0.0,0.0,0.0,0.0,0.0,0.0,0.0,0.0,0.0,0.0,0.0,0.0,0.0,0.0,0.0,0.0,0.0,0.0,0.0,0.0,0.0,0.0,0.0,0.0,0.0,0.0,0.0,0.0,0.0,0.0,0.0,0.0,0.0,0.0,0.0,0.0,0.0,0.0,0.0,0.0,0.0,0.0,0.0,0.0,0.0,0.0,0.0,0.0,0.0,0.0,0.0,0.0,0.0,0.0,-0.3569,-0.4129,-0.561,-0.8234,-0.9985,-1.067,-1.2263,-1.3708,-1.4868,0.0,0.0,0.0,0.0,0.0,0.0,0.0,0.0,0.0,0.0,0.0,0.0,0.0,0.0,0.0,0.0,0.0,0.0,0.0,0.0,0.0,0.0,0.0,0.0,0.0,0.0,0.0,0.0,0.0,0.0,0.0,0.0,0.0,0.0,0.0,0.0,0.0,0.0,0.0,0.0,0.0,0.0,0.0,0.0,0.0,0.0,0.0,0.0,-1.4165,0.0,0.0,0.0,0.0,0.0,0.0,0.0,0.0,0.0,0.0,0.0,0.0,0.0,0.0,0.0,0.0,0.0,0.0,0.0,0.0,0.0,0.0,0.0,0.0,0.0,0.0,0.0,0.0,0.0,0.0,0.0,0.0,0.0,0.0,0.0,0.0,0.0,0.0,0.0,0.0,0.0,0.0,0.0,0.0,0.0,0.0,0.0,0.0,0.0,0.0,0.0,0.0,0.0,0.0,0.0,-0.4431,-0.3757,-0.3235,-0.3931,-0.5905,-0.8477,-1.0502,-1.1852,-1.3175,-1.4255,-1.5182,0.0,0.0,0.0,0.0,0.0,0.0,0.0,0.0,0.0,0.0,0.0,0.0,0.0,0.0,0.0,0.0,0.0,0.0,0.0,0.0,0.0,0.0,0.0,0.0,0.0,0.0,0.0,0.0,0.0,0.0,0.0,0.0,0.0,0.0,0.0,0.0,0.0,0.0,0.0,0.0,0.0,0.0,0.0,0.0,0.0,0.0,0.0,-1.4919,-1.4183,0.0,0.0,0.0,0.0,0.0,0.0,0.0,0.0,0.0,0.0,0.0,0.0,0.0,0.0,0.0,0.0,0.0,0.0,0.0,0.0,0.0,0.0,0.0,0.0,0.0,0.0,0.0,-1.529,0.0,-1.5362,0.0,0.0,0.0,0.0,0.0,0.0,0.0,0.0,0.0,0.0,0.0,0.0,0.0,0.0,0.0,0.0,0.0,0.0,0.0,0.0,0.0,0.0,0.0,0.0,-0.6668,-0.4718,-0.3805,-0.3568,-0.4309,-0.6182,-0.8398,-1.0241,-1.1721,-1.3147,-1.4417,-1.5318,0.0,0.0,0.0,0.0,0.0,0.0,0.0,0.0,0.0,0.0,0.0,0.0,0.0,0.0,0.0,0.0,0.0,0.0,0.0,0.0,0.0,0.0,0.0,0.0,0.0,0.0,0.0,0.0,0.0,0.0,0.0,0.0,0.0,0.0,0.0,0.0,0.0,0.0,0.0,0.0,0.0,0.0,0.0,0.0,0.0,0.0,0.0,-1.6073,0.0,0.0,0.0,0.0,0.0,0.0,0.0,0.0,0.0,0.0,0.0,0.0,0.0,0.0,0.0,0.0,0.0,0.0,0.0,0.0,0.0,0.0,0.0,0.0,0.0,0.0,0.0,0.0,-1.5329,-1.5363,-1.5397,0.0,0.0,0.0,0.0,0.0,0.0,0.0,0.0,0.0,0.0,0.0,0.0,0.0,0.0,0.0,0.0,0.0,0.0,0.0,0.0,0.0,0.0,0.0,-0.8449,-0.5698,-0.3981,-0.3353,-0.3228,-0.4519,-0.7165,-0.8636,-1.0371,-1.233,-1.3635,-1.4773,-1.5643,0.0,0.0,0.0,0.0,0.0,0.0,0.0,0.0,0.0,0.0,0.0,0.0,0.0,0.0,0.0,0.0,0.0,0.0,0.0,0.0,0.0,0.0,0.0,0.0,0.0,0.0,0.0,0.0,0.0,0.0,0.0,0.0,0.0,0.0,0.0,0.0,0.0,-0.3896,-0.3995,0.0,0.0,0.0,0.0,0.0,0.0,0.0,0.0,-1.5965,-1.5957,0.0,0.0,0.0,0.0,0.0,0.0,0.0,0.0,0.0,0.0,0.0,0.0,0.0,0.0,0.0,0.0,0.0,0.0,0.0,0.0,0.0,0.0,0.0,0.0,0.0,0.0,0.0,-1.5356,-1.5439,-1.5542,0.0,0.0,0.0,0.0,0.0,0.0,0.0,0.0,0.0,0.0,0.0,0.0,0.0,0.0,0.0,0.0,0.0,0.0,0.0,0.0,0.0,0.0,0.0,-0.7152,-0.4518,-0.3058,-0.2806,-0.2713,-0.454,-0.8219,-0.8954,-1.0536,-1.3087,-1.4156,-1.4988,-1.5791,0.0,0.0,0.0,0.0,0.0,0.0,0.0,0.0,0.0,0.0,0.0,0.0,0.0,0.0,0.0,0.0,0.0,0.0,0.0,0.0,0.0,0.0,0.0,0.0,0.0,0.0,0.0,0.0,0.0,0.0,0.0,0.0,0.0,0.0,0.0,0.0,0.0,-0.2871,-0.2862,-0.5748,-0.8344,0.0,0.0,0.0,0.0,0.0,0.0,0.0,-1.5856,-1.6359,-1.7741,0.0,0.0,0.0,0.0,0.0,0.0,0.0,0.0,0.0,0.0,0.0,0.0,0.0,0.0,0.0,0.0,0.0,0.0,0.0,0.0,0.0,0.0,0.0,0.0,0.0,-1.5241,-1.5656,-1.6274,0.0,0.0,0.0,0.0,0.0,0.0,0.0,0.0,0.0,0.0,0.0,0.0,0.0,0.0,0.0,0.0,0.0,0.0,0.0,0.0,0.0,0.0,0.0,0.0,-0.4509,-0.2998,-0.2694,-0.2741,-0.4652,-0.8589,-0.8806,-1.029,-1.3061,-1.394,-1.472,-1.5486,-1.7338,0.0,0.0,0.0,0.0,0.0,0.0,0.0,0.0,0.0,0.0,0.0,0.0,0.0,0.0,0.0,0.0,0.0,0.0,0.0,0.0,0.0,0.0,0.0,0.0,0.0,0.0,0.0,0.0,0.0,0.0,0.0,0.0,0.0,0.0,0.0,0.0,-0.2204,-0.2303,-0.5158,-0.7806,-0.9712,0.0,0.0,0.0,0.0,0.0,-1.6814,-1.6497,-1.6691,-1.8502,-1.7989,0.0,0.0,0.0,0.0,0.0,0.0,0.0,0.0,0.0,0.0,0.0,0.0,0.0,0.0,0.0,0.0,0.0,0.0,0.0,0.0,0.0,0.0,0.0,0.0,-1.569,-1.5875,-1.6251,-1.6335,-1.6612,0.0,0.0,0.0,0.0,-1.8172,0.0,0.0,0.0,0.0,0.0,0.0,0.0,0.0,0.0,0.0,0.0,0.0,0.0,0.0,0.0,0.0,0.0,-0.4654,-0.3159,-0.2631,-0.2744,-0.4761,-0.8658,-0.8924,-1.0341,-1.3074,-1.3948,-1.4585,-1.5192,0.0,0.0,0.0,0.0,0.0,0.0,0.0,0.0,0.0,0.0,0.0,0.0,0.0,0.0,0.0,0.0,0.0,0.0,0.0,0.0,0.0,0.0,0.0,0.0,0.0,0.0,0.0,0.0,0.0,0.0,0.0,0.0,0.0,0.0,0.0,0.0,0.0,0.0,-0.1733,-0.4439,-0.7156,-0.9114,-1.1175,-1.303,-1.4759,-1.4888,-1.5093,-1.5889,-1.5966,-1.63,-1.7407,0.0,0.0,0.0,0.0,0.0,0.0,0.0,0.0,0.0,0.0,0.0,0.0,0.0,0.0,0.0,0.0,0.0,0.0,0.0,0.0,0.0,0.0,0.0,0.0,0.0,0.0,-1.6221,-1.6359,-1.6918,-1.7309,-1.7453,0.0,0.0,0.0,-1.8029,-1.8425,0.0,0.0,0.0,0.0,0.0,0.0,0.0,0.0,0.0,0.0,0.0,0.0,0.0,0.0,0.0,0.0,-0.5145,-0.3561,-0.2688,-0.3178,-0.5203,-0.8725,-0.9222,-1.0685,-1.3301,-1.3911,-1.4458,-1.5288,0.0,0.0,0.0,0.0,0.0,0.0,0.0,0.0,0.0,0.0,0.0,0.0,0.0,0.0,0.0,0.0,0.0,0.0,0.0,0.0,0.0,0.0,0.0,0.0,0.0,0.0,0.0,0.0,0.0,0.0,0.0,0.0,0.0,0.0,0.0,0.0,0.0,0.0,0.0,-0.4396,-0.7063,-0.8795,-1.0891,-1.2932,-1.4439,-1.469,-1.4655,-1.4655,-1.5528,-1.618,0.0,0.0,0.0,0.0,0.0,0.0,0.0,0.0,0.0,0.0,0.0,0.0,0.0,0.0,0.0,0.0,0.0,0.0,0.0,0.0,0.0,0.0,-1.8252,-1.7909,0.0,0.0,-1.6389,-1.6703,-1.7306,-1.6798,-1.7026,-1.7799,-1.7925,-1.8067,0.0,-1.916,-1.9556,-1.9569,0.0,0.0,0.0,0.0,0.0,0.0,0.0,0.0,0.0,0.0,0.0,0.0,0.0,0.0,0.0,0.0,-0.448,-0.3297,-0.4495,-0.6467,-0.898,-0.9946,-1.1627,-1.3967,-1.3741,-1.441,-1.6062,0.0,0.0,0.0,0.0,0.0,0.0,0.0,0.0,0.0,0.0,0.0,0.0,0.0,0.0,0.0,0.0,0.0,0.0,0.0,0.0,0.0,0.0,0.0,0.0,0.0,-1.6633,0.0,0.0,0.0,0.0,0.0,0.0,0.0,0.0,0.0,0.0,0.0,0.0,0.0,0.0,-0.8656,-0.9422,-1.1712,-1.3784,-1.4662,-1.4639,-1.4476,-1.4636,-1.6269,-1.7294,0.0,0.0,0.0,0.0,0.0,0.0,0.0,0.0,0.0,0.0,0.0,0.0,0.0,0.0,0.0,0.0,0.0,0.0,0.0,0.0,0.0,0.0,-1.8384,-1.7731,-1.722,-1.6816,-1.6606,-1.6706,-1.7002,-1.7202,-1.7595,-1.8108,-1.7957,-1.7958,-1.8163,-1.8618,-1.8721,-1.8617,0.0,0.0,0.0,0.0,0.0,0.0,0.0,0.0,0.0,0.0,0.0,0.0,-1.4487,-1.1901,-0.9297,-0.7155,-0.5455,-0.4168,-0.5166,-0.676,-0.8995,-1.0041,-1.1681,-1.4149,-1.3859,-1.4482,0.0,0.0,0.0,0.0,0.0,0.0,0.0,0.0,0.0,0.0,0.0,0.0,0.0,0.0,0.0,0.0,0.0,0.0,0.0,0.0,0.0,0.0,0.0,0.0,0.0,-1.7222,-1.6228,-1.5328,0.0,0.0,0.0,0.0,0.0,0.0,0.0,0.0,0.0,0.0,0.0,0.0,0.0,-0.7974,-1.0121,-1.1261,-1.2601,-1.4331,-1.4511,-1.4386,-1.4353,-1.6278,-1.7443,0.0,0.0,0.0,0.0,0.0,0.0,0.0,0.0,0.0,0.0,0.0,0.0,0.0,0.0,0.0,0.0,0.0,0.0,-1.951,-1.9333,-1.9458,-1.9281,-1.8831,-1.7844,-1.7439,-1.7411,-1.712,-1.6992,-1.7093,-1.7929,-1.8403,-1.861,-1.8387,-1.8414,-1.8606,-1.854,-1.8457,-1.8396,-1.8679,0.0,0.0,0.0,0.0,0.0,0.0,0.0,0.0,0.0,0.0,-1.7006,-1.5094,-1.2689,-1.0039,-0.8416,-0.696,-0.551,-0.6417,-0.7727,-0.951,-1.0569,-1.2215,-1.4378,-1.4309,-1.4966,0.0,0.0,0.0,0.0,0.0,0.0,0.0,0.0,0.0,0.0,0.0,0.0,0.0,0.0,0.0,0.0,0.0,0.0,0.0,0.0,0.0,0.0,0.0,-1.9528,-1.814,-1.6892,-1.5853,-1.5182,-1.4763,0.0,-1.3544,0.0,0.0,0.0,0.0,0.0,0.0,0.0,0.0,0.0,0.0,-0.7761,-1.028,-1.0838,-1.1794,-1.37,-1.4175,-1.4239,-1.4342,-1.6274,-1.7337,0.0,0.0,0.0,0.0,0.0,0.0,0.0,0.0,0.0,0.0,0.0,0.0,0.0,0.0,0.0,0.0,0.0,0.0,-1.9071,-1.9419,-1.9554,-1.9656,-1.9563,-1.8726,-1.8541,-1.8789,-1.8033,-1.7952,-1.8527,-1.8877,-1.9208,-1.9596,-1.985,-2.0251,-2.0417,-1.9823,-1.9756,-2.0095,-1.9241,0.0,0.0,0.0,0.0,0.0,0.0,0.0,0.0,0.0,0.0,-1.7576,-1.5656,-1.3684,-1.1779,-1.0783,-0.9375,-0.7596,-0.9018,-1.0089,-1.0704,-1.2287,-1.3769,-1.5117,-1.5392,-1.6167,0.0,0.0,0.0,0.0,0.0,0.0,0.0,0.0,0.0,0.0,0.0,0.0,0.0,0.0,0.0,0.0,0.0,0.0,0.0,0.0,0.0,0.0,0.0,0.0,-1.7872,-1.6712,-1.5636,-1.4634,-1.4186,-1.3978,-1.3819,0.0,0.0,0.0,0.0,0.0,0.0,0.0,0.0,0.0,0.0,-0.8878,-0.9324,-1.1028,-1.2365,-1.3009,-1.3542,-1.4084,-1.4851,-1.6526,-1.7266,-1.6027,-1.7324,-1.8053,0.0,0.0,0.0,0.0,0.0,0.0,0.0,0.0,0.0,0.0,0.0,0.0,0.0,0.0,0.0,-2.0198,-1.9814,-2.002,-1.9711,-1.9022,-1.853,-1.839,-1.8418,-1.79,-1.7838,-1.8145,-1.8361,-1.8749,-1.9251,-1.972,-2.0034,-2.0213,-1.9904,-1.9719,-1.9636,-1.907,0.0,0.0,0.0,0.0,0.0,0.0,0.0,0.0,0.0,0.0,-1.7465,-1.6207,-1.4551,-1.2569,-1.168,-1.0551,-0.9063,-0.9852,-1.0701,-1.1653,-1.2749,-1.4174,-1.6,-1.5939,-1.6507,-1.7852,0.0,0.0,0.0,0.0,0.0,0.0,0.0,0.0,0.0,0.0,0.0,0.0,0.0,0.0,0.0,0.0,0.0,0.0,0.0,0.0,0.0,0.0,0.0,0.0,-1.6972,-1.6293,-1.5733,-1.5927,-1.5731,-1.4629,-1.3478,0.0,0.0,0.0,0.0,0.0,0.0,0.0,-0.7598,0.0,-0.8897,-1.0586,-1.0529,-1.1,-1.2728,-1.3213,-1.3642,-1.4588,-1.6235,-1.6922,-1.5389,-1.6613,-1.7312,-1.6057,0.0,0.0,0.0,0.0,0.0,0.0,0.0,0.0,0.0,0.0,0.0,0.0,0.0,0.0,-2.1132,-2.0458,-2.0682,-2.0334,-1.9586,-1.9144,-1.8961,-1.9008,-1.855,-1.8475,-1.8763,-1.8894,-1.9229,-1.9717,-2.0041,-2.0251,-2.0344,-2.0023,-1.9621,-1.9279,-1.945,-1.9406,0.0,0.0,0.0,0.0,0.0,0.0,0.0,0.0,0.0,-1.7463,-1.668,-1.5303,-1.3461,-1.298,-1.2117,-1.0915,-1.1286,-1.1959,-1.2885,-1.3592,-1.4695,-1.6291,-1.6592,-1.7214,-1.8128,0.0,0.0,0.0,0.0,-2.3107,0.0,0.0,0.0,0.0,0.0,0.0,0.0,0.0,0.0,0.0,0.0,0.0,0.0,0.0,0.0,0.0,0.0,0.0,0.0,0.0,-1.6977,-1.6637,-1.6906,-1.6573,-1.5171,-1.3708,-1.2186,-1.0538,0.0,0.0,0.0,0.0,0.0,0.0,-0.907,-0.9566,-1.1207,-1.0529,-1.0572,-1.2461,-1.2806,-1.3325,-1.4379,-1.5589,-1.6066,-1.5039,-1.5851,-1.6348,-1.5501,-1.5682,-1.5901,-1.5752,-1.6324,-1.6751,-1.6551,0.0,0.0,0.0,0.0,0.0,0.0,0.0,0.0,-2.1596,-2.1395,-2.1602,-2.1675,-2.1529,-2.0721,-2.067,-2.1138,-2.0346,-2.0378,-2.105,-2.091,-2.1075,-2.1475,-2.1327,-2.1323,-2.1332,-2.0437,-1.9716,-1.9471,-2.0701,-2.1062,-2.0671,-2.0712,-2.0612,-2.0707,-2.0409,-2.0016,-1.9494,-1.8731,-1.8235,-1.7861,-1.7095,-1.5944,-1.453,-1.4887,-1.4577,-1.3347,-1.3721,-1.4138,-1.4465,-1.5068,-1.5593,-1.5963,-1.7575,-1.8435,-1.8499,0.0,0.0,0.0,0.0,-2.3189,0.0,0.0,0.0,0.0,0.0,0.0,0.0,0.0,0.0,0.0,0.0,0.0,0.0,0.0,0.0,0.0,0.0,0.0,0.0,0.0,-1.7624,-1.6965,-1.6564,-1.607,-1.518,-1.3923,-1.2757,0.0,0.0,0.0,0.0,0.0,-0.9262,-1.0094,-1.0916,-1.1222,-1.0818,-1.1232,-1.16,-1.2011,-1.2463,-1.3176,-1.4404,-1.4674,-1.4761,-1.4967,-1.5241,0.0,0.0,0.0,0.0,0.0,0.0,0.0,0.0,0.0,0.0,0.0,0.0,0.0,0.0,0.0,0.0,-2.3382,-2.2058,-2.2279,-2.1987,-2.1388,-2.1303,-2.177,-2.2598,-2.2556,-2.2527,-2.2569,-2.2753,-2.2489,-2.1954,-2.2193,-2.2309,-2.2207,-2.1461,-2.103,-2.0922,-2.1239,-2.1538,-2.1706,-2.2698,-2.3128,-2.3119,-2.3626,-2.2498,-1.9924,-1.9398,-1.9014,-1.8649,-1.8051,-1.7051,-1.5744,-1.5831,-1.5241,-1.4047,-1.4206,-1.458,-1.4993,-1.5254,-1.5955,-1.711,-1.777,-1.8454,-1.9298,-2.0286,0.0,0.0,-2.3217,-2.4323,0.0,0.0,0.0,0.0,0.0,0.0,0.0,0.0,0.0,0.0,0.0,0.0,0.0,0.0,0.0,0.0,0.0,0.0,0.0,0.0,-1.8071,-1.8088,-1.7714,-1.7096,-1.598,-1.5094,-1.4231,-1.3307,-1.226,-1.1204,-1.0199,-1.0401,-1.0933,-1.1922,-1.1729,-1.1591,-1.1709,-1.1377,-1.1079,-1.1392,-1.1989,-1.2647,-1.3266,-1.3887,-1.4256,-1.3926,-1.4123,-1.4323,-1.4433,-1.4919,-1.5238,-1.4989,-1.5234,-1.5397,-1.5336,-1.5613,-1.5764,-1.5693,-1.5885,-1.5963,-1.5718,-1.5921,-1.5867,-2.4941,-2.3598,-2.3406,-2.3031,-2.2527,-2.2958,-2.3603,-2.4275,-2.4465,-2.4407,-2.42,-2.4313,-2.3872,-2.3067,-2.3436,-2.3569,-2.3498,-2.3146,-2.3033,-2.3097,-2.311,-2.3241,-2.3473,-2.4503,-2.4952,-2.4912,-2.5669,-2.4575,-2.1964,-2.0996,-2.0241,-1.9597,-1.9131,-1.8236,-1.6983,-1.7168,-1.6645,-1.5505,-1.567,-1.5919,-1.6145,-1.6307,-1.6838,-1.7963,-1.8213,-1.8791,-1.9751,-2.0849,-2.1846,0.0,-2.3929,0.0,0.0,0.0,0.0,0.0,0.0,0.0,0.0,0.0,0.0,0.0,0.0,0.0,0.0,0.0,0.0,0.0,0.0,0.0,0.0,-1.8482,-1.8434,-1.8766,-1.8391,-1.769,-1.6698,-1.6045,-1.5281,-1.4428,-1.4069,-1.3297,-1.174,-1.1958,-1.2563,-1.3283,-1.2817,-1.2397,-1.2768,-1.1887,-1.138,-1.1828,-1.2237,-1.2667,-1.3028,-1.368,-1.4097,-1.3895,-1.4144,-1.4378,-1.4554,-1.4977,-1.5267,-1.5068,-1.5177,-1.5326,-1.5152,-1.5353,-1.5553,-1.5636,-1.5735,-1.5877,-1.5784,-1.5955,-1.6041,-2.6251,-2.5836,-2.5063,-2.4907,-2.5209,-2.5631,-2.6002,-2.6197,-2.6126,-2.601,-2.5973,-2.5697,-2.5237,-2.4822,-2.5072,-2.5144,-2.5076,-2.5433,-2.5633,-2.5689,-2.6132,-2.6147,-2.5756,-2.592,-2.5988,-2.6042,-2.6504,-2.6221,-2.5315,-2.3464,-2.1914,-2.069,-2.0232,-1.9436,-1.8337,-1.8969,-1.8833,-1.7795,-1.8077,-1.8163,-1.7789,-1.8082,-1.8304,-1.8293,-1.9018,-1.9642,-2.0035,-2.1236,-2.1957,-2.2038,-2.3999,0.0,0.0,0.0,0.0,0.0,0.0,0.0,0.0,0.0,0.0,0.0,0.0,0.0,0.0,0.0,0.0,0.0,0.0,0.0,-1.8524,-1.8587,-1.8791,-1.9049,-1.8588,-1.8038,-1.738,-1.6704,-1.5944,-1.5405,-1.5306,-1.4801,-1.3434,-1.3606,-1.4012,-1.4227,-1.3988,-1.3847,-1.3827,-1.2986,-1.2569,-1.2997,-1.3083,-1.3253,-1.3606,-1.3985,-1.432,-1.4843,-1.5124,-1.5308,-1.5404,-1.5548,-1.5455,-1.5057,-1.5313,-1.5562,-1.5099,-1.5161,-1.5267,-1.5238,-1.5526,-1.567,-1.5504,-1.5697,-1.5791,-2.8269,-2.7103,-2.6953,-2.6709,-2.6528,-2.7039,-2.7739,-2.8477,-2.8773,-2.8434,-2.7728,-2.8256,-2.7565,-2.6141,-2.6302,-2.624,-2.6016,-2.6524,-2.6649,-2.6546,-2.6679,-2.6735,-2.6641,-2.7301,-2.7854,-2.8355,-2.9034,-2.9178,-2.8742,-2.6863,-2.4676,-2.2364,-2.1597,-2.0816,-1.9991,-2.011,-1.9791,-1.8912,-1.8877,-1.8681,-1.8317,-1.799,-1.8056,-1.855,-1.9778,-2.0474,-2.0571,-2.1787,-2.263,-2.2927,-2.4014,0.0,-2.5906,0.0,0.0,0.0,0.0,-2.8148,-2.8171,-2.8561,0.0,0.0,0.0,-2.7166,0.0,0.0,0.0,0.0,-2.0722,-1.9906,-1.9587,-1.9506,-1.964,-1.9921,-1.9636,-1.9136,-1.8585,-1.8329,-1.7856,-1.7062,-1.7041,-1.6682,-1.5555,-1.5021,-1.4824,-1.4914,-1.464,-1.4342,-1.4088,-1.395,-1.3661,-1.307,-1.3367,-1.3486,-1.3046,-1.3449,-1.3822,-1.3789,-1.4315,-1.4743,-1.4568,-1.5062,-1.5341,-1.5014,-1.5095,-1.5176,-1.5076,-1.532,-1.5575,-1.5445,-1.5609,-1.5657,-1.5232,-1.5335,-1.5464,-3.0068,-2.9093,-2.8525,-2.8125,-2.8007,-2.8571,-2.9182,-2.9844,-3.0119,-2.9852,-2.9223,-2.9759,-2.9169,-2.7754,-2.7971,-2.8056,-2.8106,-2.8137,-2.8189,-2.8291,-2.7813,-2.7619,-2.7683,-2.8175,-2.863,-2.9039,-2.9792,-2.99,-2.9493,-2.8183,-2.6635,-2.4727,-2.3077,-2.1948,-2.1293,-2.1224,-2.0687,-1.9727,-1.9738,-1.9435,-1.8839,-1.8608,-1.8809,-1.949,-2.0383,-2.1042,-2.1561,-2.2282,-2.3018,-2.3701,-2.4388,-2.5168,0.0,-2.6527,-2.7025,-2.7661,-2.7803,-2.7989,-2.8317,-2.8365,0.0,0.0,-2.7181,-2.625,-2.5439,0.0,0.0,-2.1702,-2.0986,-2.0533,-2.0546,-2.0566,-2.0498,-2.0442,-2.0324,-2.0042,-1.9338,-1.924,-1.8993,-1.8425,-1.8284,-1.802,-1.7379,-1.6392,-1.5584,-1.521,-1.4543,-1.4137,-1.4075,-1.397,-1.3768,-1.3447,-1.3748,-1.3783,-1.3322,-1.3703,-1.3972,-1.4005,-1.4375,-1.4674,-1.4516,-1.4885,-1.5197,-1.5073,-1.506,-1.506,-1.506,-1.5251,-1.5438,-1.5271,-1.5364,-1.5351,-1.5023,-1.5139,-1.5252,-3.1437,-3.1287,-2.9731,-2.9315,-2.9625,-3.0134,-3.0499,-3.0582,-3.0537,-3.0421,-3.0253,-3.0391,-3.0073,-2.946,-2.9717,-3.0102,-3.0524,-2.9933,-2.9879,-3.0313,-2.9146,-2.8562,-2.8517,-2.8517,-2.8532,-2.8629,-2.9205,-2.9163,-2.8452,-2.8039,-2.7736,-2.7457,-2.4562,-2.2969,-2.269,-2.2461,-2.1679,-2.0537,-2.0734,-2.039,-1.9495,-1.9735,-2.0144,-2.0759,-2.0934,-2.1595,-2.2721,-2.2826,-2.3334,-2.4374,-2.4814,-2.5366,-2.6059,-2.6683,-2.7164,-2.7473,-2.7531,-2.764,-2.7725,-2.7871,-2.7801,-2.735,-2.6525,-2.5453,-2.4142,-2.386,-2.3028,-2.1423,-2.1307,-2.1331,-2.1527,-2.1645,-2.1559,-2.1133,-2.1066,-2.0726,-1.9957,-1.9743,-1.9636,-1.9381,-1.9152,-1.9011,-1.8958,-1.77,-1.6369,-1.5198,-1.4155,-1.3591,-1.407,-1.3649,-1.3361,-1.4064,-1.4135,-1.4128,-1.4038,-1.4243,-1.4496,-1.4723,-1.4953,-1.4953,-1.487,-1.4953,-1.494,-1.4925,-1.4972,-1.5028,-1.5028,-1.5082,-1.511,-1.5048,-1.4993,-1.5053,-1.5041,-1.5123,-1.5369,-3.1225,-3.0776,-3.0857,-3.0932,-3.1019,-3.1168,-3.1228,-3.1255,-3.0731,-3.0238,-2.9749,-2.9804,-2.9445,-2.8876,-2.9903,-2.9903,-2.9139,-2.9924,-2.9834,-2.9056,-2.8757,-2.8323,-2.7814,-2.7814,-2.8117,-2.8601,-2.8756,-2.8996,-2.9227,-2.8144,-2.8008,-2.8667,-2.604,-2.4851,-2.5279,-2.4463,-2.3497,-2.2355,-2.2388,-2.1513,-1.9828,-2.0258,-2.0646,-2.0809,-2.2242,-2.3165,-2.3461,-2.3906,-2.4283,-2.4535,-2.4204,-2.4292,-2.4938,-2.5514,-2.6096,-2.6669,-2.7065,-2.7284,-2.7225,-2.7548,-2.7486,-2.6937,-2.6328,-2.5789,-2.5234,-2.4544,-2.3879,-2.3253,-2.2531,-2.2506,-2.3394,-2.3338,-2.3437,-2.3906,-2.3044,-2.2319,-2.2128,-2.1055,-2.0177,-1.9784,-1.9706,-1.9491,-1.8892,-1.8331,-1.7409,-1.6078,-1.4991,-1.4379,-1.451,-1.4554,-1.4488,-1.4622,-1.4489,-1.4416,-1.4382,-1.4275,-1.4215,-1.4282,-1.4509,-1.4502,-1.4342,-1.4449,-1.4509,-1.4428,-1.5036,-1.5358,-1.5148,-1.5725,-1.5789,-1.5013,-1.4829,-1.5076,-1.5468,-1.5408,-1.5664,-3.1083,-3.0555,-3.1192,-3.1313,-3.1106,-3.1405,-3.136,-3.1046,-3.0672,-3.0148,-2.9594,-2.9594,-2.9385,-2.9086,-2.9774,-2.9714,-2.9086,-2.9475,-2.928,-2.8592,-2.8293,-2.7934,-2.7575,-2.756,-2.7795,-2.8157,-2.8171,-2.8314,-2.8658,-2.792,-2.8037,-2.892,-2.6816,-2.6215,-2.6989,-2.5815,-2.4537,-2.3349,-2.2858,-2.1982,-2.0723,-2.101,-2.139,-2.1811,-2.2921,-2.3708,-2.4091,-2.4502,-2.4815,-2.5107,-2.4807,-2.488,-2.5526,-2.6149,-2.6651,-2.7055,-2.761,-2.7827,-2.7495,-2.7627,-2.7418,-2.6779,-2.6553,-2.6121,-2.5262,-2.4988,-2.478,-2.4602,-2.3964,-2.3891,-2.4664,-2.4582,-2.4408,-2.4172,-2.3434,-2.2667,-2.1927,-2.1093,-2.0489,-2.0255,-2.0004,-1.9809,-1.962,-1.885,-1.8108,-1.7409,-1.6065,-1.4977,-1.4517,-1.4593,-1.4656,-1.4534,-1.4415,-1.4275,-1.4155,-1.3995,-1.3841,-1.3741,-1.3811,-1.3884,-1.3741,-1.3843,-1.3877,-1.3796,-1.4565,-1.5137,-1.4959,-1.5678,-1.6065,-1.5568,-1.5365,-1.5374,-1.5264,-1.5473,-1.5945,-3.0917,-3.0428,-3.0957,-3.0875,-3.0417,-3.1031,-3.0971,-3.0492,-3.0417,-2.9983,-2.931,-2.9325,-2.9325,-2.9325,-2.9415,-2.9415,-2.9295,-2.8816,-2.8547,-2.8442,-2.7844,-2.756,-2.756,-2.756,-2.756,-2.756,-2.756,-2.756,-2.756,-2.756,-2.7919,-2.8495,-2.7281,-2.7117,-2.7939,-2.6553,-2.5222,-2.3877,-2.2818,-2.2116,-2.1801,-2.1952,-2.2352,-2.3154,-2.3475,-2.4061,-2.4753,-2.493,-2.5228,-2.5815,-2.5771,-2.594,-2.6383,-2.7208,-2.7648,-2.7603,-2.8284,-2.8477,-2.8027,-2.7798,-2.7432,-2.6876,-2.7045,-2.6533,-2.5027,-2.5426,-2.5684,-2.555,-2.5397,-2.5372,-2.5611,-2.5662,-2.5131,-2.3547,-2.3262,-2.2552,-2.1003,-2.0672,-2.0459,-2.041,-2.0068,-1.998,-2.0236,-1.92,-1.8588,-1.8558,-1.7243,-1.5688,-1.4538,-1.4433,-1.4355,-1.4115,-1.4055,-1.3941,-1.3687,-1.3601,-1.3507,-1.33,-1.3293,-1.322,-1.3273,-1.3205,-1.3294,-1.3495,-1.4316,-1.4879,-1.4904,-1.5715,-1.6288,-1.6138,-1.6179,-1.6035,-1.5427,-1.5702,-1.6472,-3.0266,-2.9682,-2.9871,-2.9853,-2.9774,-2.9894,-3.0163,-3.0462,-2.9983,-2.9071,-2.8015,-2.7949,-2.7949,-2.7993,-2.8532,-2.8472,-2.7979,-2.8412,-2.8308,-2.7754,-2.7685,-2.756,-2.756,-2.756,-2.756,-2.756,-2.756,-2.756,-2.756,-2.756,-2.7934,-2.8562,-2.7661,-2.7292,-2.7358,-2.6924,-2.5937,-2.454,-2.3032,-2.2315,-2.2399,-2.3145,-2.3716,-2.4092,-2.5104,-2.5751,-2.5868,-2.5918,-2.5967,-2.61,-2.5597,-2.5159,-2.4867,-2.589,-2.6332,-2.6027,-2.6929,-2.7439,-2.7246,-2.7632,-2.769,-2.7288,-2.7726,-2.7488,-2.6254,-2.6266,-2.6291,-2.6095,-2.6198,-2.6284,-2.6276,-2.6729,-2.6481,-2.5386,-2.4544,-2.346,-2.2101,-2.0833,-1.9912,-1.957,-1.9453,-1.9434,-1.9531,-1.9296,-1.8957,-1.8561,-1.8073,-1.7046,-1.5315,-1.4629,-1.422,-1.4082,-1.3874,-1.3627,-1.3333,-1.3293,-1.3267,-1.3227,-1.3227,-1.3227,-1.3259,-1.3239,-1.3526,-1.4165,-1.5165,-1.6037,-1.6374,-1.7361,-1.7592,-1.6696,-1.7082,-1.7515,-1.7178,-1.6907,-1.7134,-3.03,-2.9517,-2.985,-2.9807,-2.9544,-2.9591,-2.9579,-2.9549,-2.9235,-2.871,-2.8057,-2.8042,-2.8042,-2.8057,-2.8423,-2.8193,-2.764,-2.7934,-2.7904,-2.7625,-2.756,-2.756,-2.756,-2.756,-2.756,-2.756,-2.756,-2.756,-2.756,-2.756,-2.7754,-2.8083,-2.7703,-2.7309,-2.6881,-2.6145,-2.5511,-2.4919,-2.3801,-2.3178,-2.3091,-2.3565,-2.3912,-2.4149,-2.482,-2.5301,-2.5427,-2.5812,-2.5862,-2.5604,-2.5883,-2.5864,-2.5298,-2.6444,-2.7004,-2.6811,-2.7632,-2.7977,-2.7697,-2.7948,-2.7909,-2.7563,-2.7712,-2.7398,-2.6472,-2.6349,-2.6022,-2.5553,-2.5629,-2.5667,-2.5699,-2.59,-2.5698,-2.467,-2.4096,-2.3198,-2.1679,-2.074,-2.0015,-1.938,-1.9092,-1.9033,-1.9258,-1.9082,-1.8933,-1.877,-1.83,-1.7608,-1.6635,-1.5895,-1.5175,-1.4469,-1.3777,-1.3327,-1.3053,-1.2979,-1.2919,-1.2812,-1.3134,-1.3438,-1.3431,-1.3877,-1.4321,-1.4903,-1.57,-1.6454,-1.6465,-1.7295,-1.7736,-1.694,-1.7034,-1.7348,-1.7267,-1.7325,-1.7539,-3.0477,-2.9605,-2.9938,-2.9753,-2.9345,-2.9371,-2.9109,-2.8541,-2.8559,-2.8625,-2.8654,-2.8654,-2.8606,-2.8527,-2.8527,-2.8189,-2.761,-2.756,-2.756,-2.756,-2.756,-2.756,-2.756,-2.756,-2.756,-2.756,-2.756,-2.756,-2.756,-2.756,-2.756,-2.761,-2.7505,-2.7006,-2.6228,-2.5046,-2.4566,-2.4808,-2.4447,-2.4069,-2.3761,-2.3806,-2.3955,-2.4192,-2.4332,-2.4487,-2.4716,-2.5336,-2.55,-2.5102,-2.6082,-2.641,-2.5958,-2.6975,-2.7565,-2.7543,-2.8104,-2.8335,-2.801,-2.798,-2.7906,-2.7604,-2.7436,-2.7102,-2.6526,-2.6276,-2.5857,-2.5231,-2.5052,-2.5,-2.4988,-2.4885,-2.4394,-2.3423,-2.3278,-2.2581,-2.0769,-2.0477,-2.0103,-1.9249,-1.873,-1.8643,-1.8955,-1.873,-1.8691,-1.899,-1.8422,-1.7824,-1.7721,-1.6996,-1.6014,-1.4957,-1.4277,-1.355,-1.3134,-1.3264,-1.3009,-1.2755,-1.3419,-1.3962,-1.4099,-1.4665,-1.5234,-1.5434,-1.6035,-1.6351,-1.6264,-1.6798,-1.7084,-1.6797,-1.6665,-1.6665,-1.6724,-1.7285,-1.7609,-3.0335,-3.0081,-2.9153,-2.8714,-2.8618,-2.8614,-2.8529,-2.8347,-2.845,-2.8763,-2.9271,-2.9271,-2.9012,-2.8527,-2.8527,-2.8189,-2.761,-2.756,-2.756,-2.756,-2.756,-2.756,-2.756,-2.756,-2.756,-2.756,-2.756,-2.756,-2.756,-2.7545,-2.756,-2.7485,-2.7006,-2.6108,-2.4941,-2.4133,-2.3789,-2.3791,-2.4058,-2.4204,-2.4297,-2.4614,-2.4857,-2.5007,-2.5026,-2.5051,-2.5106,-2.5228,-2.5242,-2.5154,-2.5379,-2.5221,-2.4741,-2.5393,-2.5575,-2.5178,-2.5699,-2.6314,-2.6792,-2.6807,-2.7066,-2.7515,-2.7599,-2.737,-2.6968,-2.6854,-2.6794,-2.6674,-2.6038,-2.5733,-2.567,-2.5116,-2.4384,-2.343,-2.3254,-2.2421,-2.0292,-2.0044,-1.9586,-1.8419,-1.8144,-1.8125,-1.8232,-1.8174,-1.8281,-1.8553,-1.8437,-1.8437,-1.8128,-1.7134,-1.6053,-1.5567,-1.533,-1.4817,-1.3932,-1.4312,-1.4289,-1.3608,-1.4307,-1.4925,-1.4852,-1.5168,-1.5598,-1.6262,-1.626,-1.6312,-1.6901,-1.6931,-1.6816,-1.665,-1.6558,-1.6641,-1.6621,-1.6899,-1.7105,-2.9978,-2.9658,-2.9092,-2.8858,-2.8842,-2.8139,-2.7965,-2.8183,-2.8255,-2.8399,-2.8695,-2.8712,-2.8779,-2.8858,-2.8874,-2.877,-2.8575,-2.8575,-2.8373,-2.7984,-2.7655,-2.7344,-2.6929,-2.6642,-2.6497,-2.6512,-2.6497,-2.6512,-2.6512,-2.6512,-2.6512,-2.6452,-2.5854,-2.5211,-2.4582,-2.3939,-2.3595,-2.3595,-2.3762,-2.3926,-2.3985,-2.4133,-2.4236,-2.4327,-2.4342,-2.4178,-2.3867,-2.4535,-2.4579,-2.3881,-2.4877,-2.5129,-2.4551,-2.5148,-2.5371,-2.5196,-2.545,-2.5734,-2.6048,-2.6063,-2.6183,-2.6497,-2.6841,-2.6994,-2.6808,-2.6747,-2.6553,-2.6213,-2.5809,-2.5459,-2.5057,-2.4723,-2.406,-2.2886,-2.2787,-2.1981,-2.0257,-1.9803,-1.9302,-1.825,-1.8008,-1.8008,-1.8008,-1.8008,-1.8057,-1.8271,-1.8301,-1.8301,-1.8301,-1.7638,-1.6839,-1.6225,-1.569,-1.5201,-1.4617,-1.4879,-1.4869,-1.4214,-1.5171,-1.5661,-1.5479,-1.5742,-1.6364,-1.6599,-1.6459,-1.6455,-1.6748,-1.6523,-1.6309,-1.6045,-1.6016,-1.6076,-1.6517,-1.7305,-1.7843,-2.9576,-2.9175,-2.8999,-2.8959,-2.8852,-2.7664,-2.7477,-2.8004,-2.7855,-2.7772,-2.7805,-2.8141,-2.8543,-2.8959,-2.9107,-2.917,-2.9179,-2.9342,-2.8978,-2.8295,-2.785,-2.7266,-2.6601,-2.6168,-2.5955,-2.594,-2.5955,-2.594,-2.5955,-2.5955,-2.5864,-2.5697,-2.5212,-2.4878,-2.4696,-2.4237,-2.3948,-2.3948,-2.3837,-2.3724,-2.3595,-2.3595,-2.3535,-2.34,-2.3385,-2.3101,-2.2562,-2.343,-2.3505,-2.2607,-2.4044,-2.4657,-2.4059,-2.4732,-2.5091,-2.4986,-2.5213,-2.5394,-2.5545,-2.5586,-2.56,-2.5615,-2.6078,-2.6378,-2.6359,-2.6314,-2.6136,-2.5774,-2.5741,-2.5273,-2.4372,-2.4099,-2.3571,-2.2324,-2.2121,-2.1506,-2.0182,-1.9946,-1.9462,-1.8384,-1.82,-1.8269,-1.8076,-1.8008,-1.8018,-1.8027,-1.8008,-1.7978,-1.79,-1.7871,-1.7484,-1.676,-1.6025,-1.567,-1.546,-1.5489,-1.5369,-1.4951,-1.5786,-1.6124,-1.5974,-1.6579,-1.697,-1.6782,-1.6597,-1.6422,-1.6143,-1.6027,-1.593,-1.5791,-1.5868,-1.5972,-1.6701,-1.7832,-1.8583,-2.9076,-2.8912,-2.8445,-2.8194,-2.8096,-2.7273,-2.7243,-2.7683,-2.7147,-2.6826,-2.6994,-2.8277,-2.859,-2.8333,-2.8876,-2.8902,-2.8538,-2.9102,-2.8974,-2.8334,-2.8247,-2.7838,-2.7127,-2.7026,-2.7058,-2.6968,-2.6952,-2.6846,-2.6846,-2.6893,-2.6683,-2.6227,-2.61,-2.5694,-2.5203,-2.5059,-2.5012,-2.5051,-2.4592,-2.4074,-2.3638,-2.3595,-2.3325,-2.2772,-2.2798,-2.2458,-2.1854,-2.1904,-2.1919,-2.1844,-2.2589,-2.2724,-2.2218,-2.3116,-2.355,-2.3083,-2.3967,-2.4771,-2.5333,-2.5531,-2.5555,-2.5615,-2.563,-2.5689,-2.5704,-2.567,-2.5953,-2.6199,-2.6358,-2.5568,-2.3923,-2.3608,-2.3014,-2.1868,-2.1625,-2.1205,-2.0403,-2.0606,-2.0293,-1.8659,-1.8723,-1.8911,-1.8103,-1.79,-1.7939,-1.7871,-1.7852,-1.7754,-1.751,-1.7432,-1.7285,-1.6922,-1.6889,-1.6694,-1.6133,-1.6272,-1.6169,-1.5846,-1.6244,-1.6434,-1.6427,-1.6471,-1.6748,-1.6504,-1.6338,-1.6094,-1.6097,-1.5831,-1.579,-1.6306,-1.6482,-1.6652,-1.7357,-1.8092,-1.846,-2.8298,-2.8245,-2.8012,-2.7671,-2.7236,-2.6935,-2.6924,-2.7114,-2.6826,-2.6708,-2.6776,-2.7351,-2.7752,-2.7938,-2.8239,-2.8477,-2.8754,-2.9013,-2.8748,-2.7993,-2.7725,-2.7192,-2.6503,-2.6142,-2.6007,-2.6023,-2.6007,-2.6007,-2.6023,-2.6023,-2.5863,-2.5607,-2.563,-2.547,-2.5198,-2.5221,-2.5221,-2.5166,-2.4537,-2.4116,-2.388,-2.3575,-2.3107,-2.2568,-2.2725,-2.2439,-2.1629,-2.1835,-2.1758,-2.1255,-2.2388,-2.2806,-2.2125,-2.3226,-2.3585,-2.3025,-2.37,-2.4532,-2.5226,-2.5045,-2.4915,-2.4915,-2.4972,-2.5031,-2.5061,-2.5375,-2.56,-2.5463,-2.5779,-2.5442,-2.4269,-2.3758,-2.2978,-2.1796,-2.125,-2.0704,-1.9844,-1.9897,-1.9528,-1.833,-1.8239,-1.813,-1.7441,-1.7256,-1.7256,-1.7256,-1.7266,-1.7207,-1.7021,-1.7002,-1.6807,-1.6484,-1.6504,-1.6573,-1.6353,-1.6536,-1.6456,-1.6233,-1.6427,-1.6587,-1.6103,-1.6211,-1.6269,-1.6035,-1.5909,-1.595,-1.63,-1.6267,-1.6255,-1.6922,-1.7578,-1.7907,-1.8178,-1.9034,-1.9617,-2.752,-2.752,-2.7503,-2.7182,-2.6708,-2.6708,-2.6708,-2.6708,-2.6708,-2.6708,-2.6708,-2.6708,-2.6979,-2.7486,-2.7688,-2.8146,-2.8636,-2.8926,-2.8552,-2.7805,-2.7434,-2.6889,-2.6206,-2.5799,-2.5582,-2.5582,-2.5652,-2.5668,-2.5635,-2.5582,-2.5598,-2.5598,-2.5615,-2.5598,-2.5582,-2.5582,-2.5619,-2.5533,-2.4754,-2.4209,-2.3996,-2.3407,-2.2817,-2.2342,-2.2548,-2.2251,-2.128,-2.1697,-2.1579,-2.0859,-2.222,-2.2702,-2.2056,-2.3122,-2.369,-2.3574,-2.3887,-2.4484,-2.5325,-2.495,-2.4552,-2.4436,-2.4478,-2.4476,-2.4418,-2.4792,-2.4822,-2.4492,-2.4777,-2.4754,-2.4062,-2.3617,-2.2811,-2.1572,-2.0835,-2.02,-1.9637,-1.9612,-1.9453,-1.843,-1.86,-1.8036,-1.7222,-1.6894,-1.6753,-1.6747,-1.6743,-1.6617,-1.6558,-1.65,-1.6396,-1.5967,-1.5889,-1.6074,-1.6445,-1.6315,-1.624,-1.6221,-1.6289,-1.6074,-1.5527,-1.5762,-1.6098,-1.6038,-1.577,-1.5989,-1.668,-1.6909,-1.709,-1.7797,-1.8459,-1.8886,-1.898,-1.9858,-2.032,-2.6742,-2.6742,-2.6759,-2.6742,-2.6708,-2.6708,-2.6708,-2.6708,-2.6708,-2.6708,-2.6708,-2.6708,-2.6725,-2.6826,-2.7469,-2.7789,-2.7941,-2.8569,-2.845,-2.7791,-2.7687,-2.7332,-2.6691,-2.6657,-2.6624,-2.6505,-2.6505,-2.6539,-2.659,-2.659,-2.6624,-2.659,-2.6539,-2.659,-2.6556,-2.6539,-2.6624,-2.6386,-2.5325,-2.4475,-2.3902,-2.3096,-2.2459,-2.2095,-2.2061,-2.1775,-2.115,-2.1054,-2.1038,-2.1006,-2.174,-2.182,-2.1294,-2.2346,-2.3517,-2.4421,-2.4297,-2.4668,-2.5635,-2.5433,-2.4973,-2.4511,-2.4467,-2.4234,-2.3831,-2.3878,-2.3878,-2.3684,-2.3804,-2.3555,-2.3105,-2.2974,-2.2309,-2.1143,-2.0322,-1.9925,-1.977,-2.0142,-2.0158,-1.9483,-1.9425,-1.8958,-1.784,-1.7149,-1.6835,-1.6787,-1.6724,-1.6635,-1.6412,-1.6274,-1.6088,-1.5802,-1.5683,-1.5664,-1.6007,-1.6088,-1.593,-1.6118,-1.6274,-1.5713,-1.5527,-1.5488,-1.5941,-1.6228,-1.6379,-1.6698,-1.7302,-1.7743,-1.8015,-1.8555,-1.9097,-1.9527,-1.9475,-1.9683,-2.0012,-2.7083,-2.7051,-2.6825,-2.6708,-2.6708,-2.6708,-2.6708,-2.6708,-2.6708,-2.6708,-2.6708,-2.6708,-2.6708,-2.6708,-2.6962,-2.7097,-2.7131,-2.7402,-2.7351,-2.7114,-2.7097,-2.6962,-2.6742,-2.6708,-2.6708,-2.6708,-2.6708,-2.6708,-2.6708,-2.6708,-2.6708,-2.6708,-2.6708,-2.6708,-2.6708,-2.6708,-2.6708,-2.6539,-2.5313,-2.4495,-2.4173,-2.3053,-2.2328,-2.2209,-2.2209,-2.1939,-2.1415,-2.1368,-2.1275,-2.0991,-2.1924,-2.2133,-2.1546,-2.2108,-2.2969,-2.3825,-2.4197,-2.4796,-2.5598,-2.5733,-2.5486,-2.4973,-2.4894,-2.4552,-2.3879,-2.3879,-2.3991,-2.3681,-2.3595,-2.3465,-2.3275,-2.2956,-2.2367,-2.1492,-2.0818,-2.0245,-1.9939,-1.9999,-1.9837,-1.9132,-1.8739,-1.8272,-1.7942,-1.7438,-1.727,-1.729,-1.7254,-1.7159,-1.7106,-1.7037,-1.6945,-1.6864,-1.68,-1.6864,-1.6992,-1.6514,-1.6269,-1.6768,-1.6963,-1.6931,-1.6754,-1.6641,-1.6989,-1.709,-1.7191,-1.7468,-1.807,-1.8661,-1.8939,-1.915,-1.9747,-1.9901,-1.9798,-2.0042,-2.0041,-2.75,-2.7439,-2.721,-2.7004,-2.6906,-2.6906,-2.6808,-2.6742,-2.6708,-2.6708,-2.6708,-2.6708,-2.6708,-2.6708,-2.6708,-2.6708,-2.6708,-2.6708,-2.6708,-2.6708,-2.6708,-2.6708,-2.6708,-2.6708,-2.6708,-2.6708,-2.6708,-2.6708,-2.6708,-2.6708,-2.6708,-2.6708,-2.6708,-2.6708,-2.6708,-2.6708,-2.6607,-2.6185,-2.5108,-2.4399,-2.4022,-2.297,-2.2327,-2.2327,-2.2327,-2.2163,-2.1823,-2.1823,-2.1721,-2.1573,-2.2167,-2.2322,-2.1936,-2.2152,-2.2649,-2.3342,-2.3866,-2.4577,-2.5458,-2.5748,-2.5749,-2.5508,-2.5449,-2.5051,-2.4241,-2.4323,-2.4199,-2.3921,-2.3681,-2.3565,-2.3342,-2.3113,-2.2711,-2.2053,-2.1307,-2.0646,-2.0144,-1.9914,-1.9604,-1.9174,-1.8548,-1.8093,-1.7895,-1.7754,-1.7612,-1.7612,-1.7634,-1.76,-1.7598,-1.7633,-1.7578,-1.7578,-1.7523,-1.7633,-1.781,-1.7556,-1.7079,-1.7401,-1.759,-1.771,-1.7797,-1.7743,-1.7797,-1.7895,-1.8112,-1.8394,-1.8833,-1.9423,-1.9695,-1.985,-2.0105,-2.0295,-2.0346,-2.0383,-2.0549,-2.7897,-2.7897,-2.7897,-2.7619,-2.7317,-2.7272,-2.7051,-2.6791,-2.6758,-2.6758,-2.6791,-2.6725,-2.6758,-2.6725,-2.6725,-2.6708,-2.6708,-2.6708,-2.6708,-2.6708,-2.6708,-2.6708,-2.6708,-2.6708,-2.6708,-2.6708,-2.6708,-2.6708,-2.6708,-2.6691,-2.6691,-2.6725,-2.6725,-2.6725,-2.6725,-2.6708,-2.6354,-2.5664,-2.4903,-2.414,-2.3418,-2.2688,-2.2327,-2.2327,-2.2327,-2.2282,-2.2254,-2.2254,-2.2225,-2.2225,-2.2271,-2.2316,-2.2271,-2.2282,-2.2615,-2.319,-2.341,-2.4137,-2.5338,-2.5593,-2.5748,-2.5848,-2.5961,-2.5693,-2.4923,-2.4689,-2.448,-2.4143,-2.3846,-2.3428,-2.2993,-2.3148,-2.3142,-2.268,-2.1602,-2.1028,-2.0646,-2.0207,-1.9798,-1.9631,-1.9049,-1.8691,-1.8543,-1.8216,-1.7893,-1.7895,-1.7907,-1.7901,-1.7955,-1.7982,-1.7775,-1.7743,-1.8015,-1.8286,-1.8501,-1.8661,-1.8232,-1.7961,-1.7972,-1.807,-1.8178,-1.8232,-1.8447,-1.8596,-1.8715,-1.8992,-1.9503,-2.0042,-2.0144,-2.0245,-2.0497,-2.0782,-2.0868,-2.1002,-2.1232,-2.8237,-2.821,-2.7992,-2.784,-2.7695,-2.7409,-2.721,-2.7115,-2.7115,-2.7115,-2.7115,-2.7115,-2.7115,-2.7019,-2.6858,-2.6708,-2.6708,-2.6708,-2.6708,-2.6725,-2.6725,-2.6742,-2.6691,-2.6708,-2.6708,-2.6708,-2.6708,-2.6708,-2.6742,-2.6742,-2.6825,-2.7019,-2.6858,-2.6873,-2.7083,-2.6824,-2.6336,-2.5594,-2.4876,-2.416,-2.3427,-2.2671,-2.2327,-2.2327,-2.2327,-2.2327,-2.2327,-2.2327,-2.2327,-2.2327,-2.2327,-2.2327,-2.2327,-2.2327,-2.2383,-2.2665,-2.3139,-2.3765,-2.4695,-2.5355,-2.5715,-2.6009,-2.628,-2.5768,-2.4809,-2.5099,-2.4866,-2.3997,-2.3892,-2.3773,-2.2987,-2.2873,-2.2683,-2.209,-2.2059,-2.1588,-2.0837,-2.0206,-1.985,-1.9761,-1.9281,-1.9129,-1.9251,-1.8867,-1.8606,-1.8907,-1.8943,-1.8967,-1.9019,-1.8903,-1.9137,-1.9097,-1.915,-1.8867,-1.9028,-1.9068,-1.8948,-1.8732,-1.8715,-1.8661,-1.8715,-1.8821,-1.9032,-1.9294,-1.9411,-1.9722,-2.0245,-2.0534,-2.0633,-2.0904,-2.1245,-2.1376,-2.1424,-2.1663,-2.1932,-2.8633,-2.8608,-2.8386,-2.8049,-2.7647,-2.7363,-2.7005,-2.6731,-2.6946,-2.7081,-2.7133,-2.7395,-2.753,-2.7487,-2.7272,-2.7147,-2.7147,-2.7147,-2.7147,-2.7115,-2.6971,-2.6939,-2.6971,-2.7083,-2.7147,-2.7129,-2.7147,-2.7302,-2.7558,-2.7333,-2.7425,-2.7805,-2.7411,-2.7272,-2.747,-2.7255,-2.6727,-2.5876,-2.5388,-2.4564,-2.3558,-2.297,-2.2581,-2.2361,-2.2327,-2.2327,-2.2327,-2.2327,-2.2327,-2.2327,-2.2327,-2.2327,-2.2327,-2.2327,-2.2327,-2.2462,-2.2987,-2.3714,-2.4441,-2.5203,-2.5815,-2.6183,-2.6303,-2.6051,-2.5266,-2.5634,-2.4977,-2.4595,-2.4092,-2.3634,-2.2762,-2.2415,-2.204,-2.1403,-2.1614,-2.1487,-2.0563,-1.9872,-1.9566,-1.9366,-1.898,-1.9032,-1.9258,-1.9083,-1.8921,-1.932,-1.9308,-1.9333,-1.9408,-1.9458,-1.9496,-1.9459,-1.9295,-1.9219,-1.937,-1.9459,-1.9521,-1.9531,-1.9579,-1.9475,-1.9475,-1.9475,-1.9579,-1.9978,-2.0144,-2.0458,-2.0917,-2.1051,-2.1197,-2.1615,-2.1932,-2.2053,-2.2146,-2.2423,-2.2696,-2.892,-2.892,-2.8865,-2.8166,-2.7308,-2.7144,-2.6691,-2.6039,-2.6366,-2.6772,-2.703,-2.7518,-2.7837,-2.7908,-2.7794,-2.7765,-2.7869,-2.7794,-2.7765,-2.7707,-2.753,-2.7409,-2.7378,-2.7619,-2.7736,-2.7787,-2.7794,-2.824,-2.8771,-2.827,-2.8333,-2.8876,-2.8311,-2.7933,-2.7915,-2.7897,-2.7282,-2.636,-2.6169,-2.5214,-2.3701,-2.3482,-2.3122,-2.2496,-2.2462,-2.2429,-2.2327,-2.2327,-2.2327,-2.2327,-2.2327,-2.2361,-2.2395,-2.2395,-2.2462,-2.2615,-2.3139,-2.3849,-2.4543,-2.522,-2.588,-2.6505,-2.6201,-2.5896,-2.6169,-2.5512,-2.5139,-2.519,-2.426,-2.3179,-2.2446,-2.1965,-2.1413,-2.081,-2.0837,-2.0599,-2.0039,-1.953,-1.9285,-1.912,-1.8631,-1.8355,-1.8857,-1.8493,-1.8473,-1.8722,-1.8622,-1.8659,-1.8821,-1.8946,-1.8958,-1.8982,-1.897,-1.897,-1.8957,-1.9246,-1.9321,-1.9459,-1.9648,-1.9786,-1.9901,-2.0003,-2.0232,-2.0584,-2.0881,-2.121,-2.15,-2.1677,-2.1899,-2.2225,-2.2469,-2.268,-2.2875,-2.3084,-2.3128,-2.8123,-2.8062,-2.7464,-2.7387,-2.7465,-2.6747,-2.6849,-2.742,-2.6516,-2.6803,-2.7653,-2.7528,-2.7743,-2.8228,-2.802,-2.7897,-2.7954,-2.7926,-2.7897,-2.7908,-2.8084,-2.7964,-2.7794,-2.7823,-2.7939,-2.7942,-2.8037,-2.8319,-2.902,-2.8973,-2.9084,-2.9422,-2.9048,-2.8592,-2.8318,-2.8065,-2.7472,-2.6713,-2.635,-2.5773,-2.4842,-2.434,-2.3833,-2.319,-2.3105,-2.2835,-2.2395,-2.2327,-2.2327,-2.2327,-2.2327,-2.2598,-2.3004,-2.3071,-2.3257,-2.3748,-2.4052,-2.4509,-2.5152,-2.5507,-2.5964,-2.659,-2.642,-2.6251,-2.5896,-2.5629,-2.503,-2.4562,-2.3777,-2.3039,-2.1952,-2.147,-2.0959,-2.0228,-2.0377,-2.0739,-2.0798,-2.0277,-1.962,-1.9588,-1.8799,-1.8428,-1.827,-1.8003,-1.7818,-1.8234,-1.8246,-1.8157,-1.8323,-1.8398,-1.8417,-1.8417,-1.8417,-1.8417,-1.8518,-1.8844,-1.9021,-1.9208,-1.9447,-1.9825,-2.0042,-2.0295,-2.0769,-2.1293,-2.1452,-2.1724,-2.2128,-2.2466,-2.268,-2.2786,-2.3039,-2.3187,-2.3275,-2.345,-2.3406,-2.7277,-2.7273,-2.6775,-2.6664,-2.6701,-2.6016,-2.6091,-2.6454,-2.6091,-2.6418,-2.7422,-2.7567,-2.7894,-2.8597,-2.8438,-2.836,-2.8378,-2.8378,-2.8378,-2.8404,-2.8558,-2.8533,-2.8386,-2.8378,-2.8358,-2.8417,-2.8701,-2.934,-2.998,-3.008,-3.0179,-3.0231,-2.9809,-2.9267,-2.8687,-2.8464,-2.8076,-2.7538,-2.7204,-2.6737,-2.5857,-2.5432,-2.4834,-2.4223,-2.3964,-2.3494,-2.2868,-2.2496,-2.2327,-2.2327,-2.2344,-2.2632,-2.3291,-2.3393,-2.3731,-2.4438,-2.4763,-2.5169,-2.5558,-2.5862,-2.6251,-2.6522,-2.6471,-2.6251,-2.5964,-2.5592,-2.4723,-2.4663,-2.3835,-2.285,-2.2063,-2.1318,-2.0643,-2.0162,-2.0146,-2.044,-2.0848,-2.0214,-1.9782,-1.9398,-1.8819,-1.8214,-1.8157,-1.753,-1.7413,-1.7631,-1.7568,-1.7631,-1.7793,-1.784,-1.7852,-1.7852,-1.7852,-1.7852,-1.7924,-1.8188,-1.87,-1.8877,-1.9716,-2.0014,-2.0393,-2.0779,-2.1403,-2.1866,-2.2007,-2.2253,-2.268,-2.3024,-2.3143,-2.3319,-2.3551,-2.3595,-2.3595,-2.3595,-2.3595,-2.6475,-2.6465,-2.6381,-2.5976,-2.5495,-2.5293,-2.5142,-2.4795,-2.5087,-2.5858,-2.6811,-2.7457,-2.7944,-2.8888,-2.879,-2.8897,-2.8805,-2.879,-2.8929,-2.8905,-2.8952,-2.8905,-2.8863,-2.8858,-2.8863,-2.8965,-2.9727,-3.04,-3.0906,-3.1242,-3.1323,-3.1096,-3.0583,-2.9837,-2.9112,-2.8929,-2.8779,-2.8456,-2.8226,-2.7763,-2.7028,-2.6557,-2.6022,-2.5316,-2.4687,-2.4266,-2.3629,-2.3061,-2.2665,-2.2581,-2.2462,-2.2868,-2.3444,-2.3562,-2.4069,-2.4763,-2.5423,-2.5744,-2.5828,-2.6336,-2.664,-2.6623,-2.6133,-2.5981,-2.6218,-2.5456,-2.478,-2.5088,-2.3794,-2.2959,-2.241,-2.1275,-2.0457,-2.0174,-1.9985,-1.9756,-1.9722,-1.9786,-1.9633,-1.9109,-1.8673,-1.8365,-1.7942,-1.739,-1.6822,-1.7434,-1.7226,-1.7067,-1.7192,-1.7287,-1.7287,-1.7287,-1.7287,-1.7287,-1.737,-1.7491,-1.8117,-1.8699,-1.9926,-2.0569,-2.0941,-2.1417,-2.2011,-2.2498,-2.2665,-2.295,-2.3231,-2.3508,-2.3551,-2.3551,-2.3595,-2.3595,-2.3595,-2.3595,-2.3595,-2.5674,-2.5585,-2.498,-2.498,-2.5256,-2.476,-2.5052,-2.5897,-2.4869,-2.5603,-2.7071,-2.709,-2.7365,-2.8117,-2.8686,-2.8705,-2.8301,-2.8686,-2.8975,-2.8975,-2.8975,-2.8975,-2.8975,-2.8975,-2.9012,-2.9104,-2.9182,-3.0063,-3.1091,-3.1549,-3.1403,-3.1347,-3.1109,-3.0411,-2.9177,-2.8994,-2.8994,-2.8834,-2.8583,-2.8352,-2.8052,-2.7619,-2.7113,-2.638,-2.5495,-2.4959,-2.4718,-2.4296,-2.4049,-2.3883,-2.3592,-2.3667,-2.4218,-2.4746,-2.5321,-2.5896,-2.6234,-2.642,-2.6471,-2.6573,-2.6708,-2.6674,-2.6522,-2.6505,-2.6522,-2.537,-2.4675,-2.4594,-2.384,-2.3123,-2.2762,-2.1292,-2.0592,-2.0376,-2.003,-1.9726,-1.972,-1.9715,-1.9744,-1.9571,-1.9155,-1.863,-1.8234,-1.7716,-1.7332,-1.7303,-1.7063,-1.6696,-1.6728,-1.6872,-1.691,-1.7017,-1.7048,-1.713,-1.7293,-1.7557,-1.8197,-1.8897,-2.0079,-2.0844,-2.1216,-2.1995,-2.2637,-2.3054,-2.3363,-2.3551,-2.3595,-2.3595,-2.3551,-2.3595,-2.3595,-2.3595,-2.3595,-2.3595,-2.3595,-2.4812,-2.4777,-2.4373,-2.4447,-2.4722,-2.441,-2.4685,-2.5217,-2.4612,-2.5328,-2.6833,-2.6759,-2.7053,-2.7842,-2.8576,-2.8576,-2.8136,-2.8613,-2.8975,-2.8975,-2.8975,-2.8975,-2.8975,-2.9072,-2.914,-2.9531,-3.0026,-3.0852,-3.1733,-3.221,-3.2192,-3.1439,-3.1403,-3.0467,-2.9214,-2.8975,-2.8975,-2.897,-2.8815,-2.8682,-2.8633,-2.833,-2.7913,-2.7297,-2.6433,-2.591,-2.5883,-2.5307,-2.5056,-2.501,-2.4999,-2.4935,-2.4995,-2.5389,-2.5947,-2.6539,-2.6708,-2.6708,-2.6691,-2.6708,-2.6708,-2.6708,-2.6708,-2.6708,-2.637,-2.537,-2.4814,-2.4678,-2.4171,-2.3371,-2.341,-2.1921,-2.1134,-2.0962,-2.0431,-1.996,-1.9807,-1.9959,-2.0035,-1.9897,-1.9551,-1.9319,-1.8883,-1.8302,-1.8153,-1.8193,-1.8165,-1.7805,-1.7157,-1.7235,-1.6969,-1.6982,-1.6944,-1.7041,-1.7258,-1.7695,-1.8478,-1.9307,-2.0302,-2.0827,-2.1169,-2.2149,-2.3172,-2.3436,-2.3551,-2.3551,-2.3595,-2.3595,-2.3595,-2.3595,-2.3595,-2.3595,-2.358,-2.355,-2.3565,-2.419,-2.419,-2.419,-2.419,-2.419,-2.4208,-2.4226,-2.4245,-2.419,-2.5144,-2.641,-2.6612,-2.7034,-2.7842,-2.8631,-2.8558,-2.8374,-2.8594,-2.8975,-2.8975,-2.8975,-2.8975,-2.8975,-2.9072,-2.9397,-3.0228,-3.0632,-3.1494,-3.2449,-3.3128,-3.2504,-3.1604,-3.1403,-3.0522,-2.9365,-2.8975,-2.8975,-2.8975,-2.8952,-2.8952,-2.8934,-2.8658,-2.8332,-2.8013,-2.746,-2.7032,-2.6908,-2.6437,-2.5994,-2.5993,-2.6606,-2.6487,-2.6093,-2.5909,-2.603,-2.6708,-2.6708,-2.6708,-2.6708,-2.6708,-2.6708,-2.6708,-2.6708,-2.6708,-2.6387,-2.5609,-2.5067,-2.4644,-2.4154,-2.3494,-2.4174,-2.2623,-2.1822,-2.1649,-2.0917,-2.0239,-1.998,-2.0287,-2.0102,-1.9856,-1.9693,-1.9569,-1.9464,-1.9095,-1.9093,-1.9071,-1.903,-1.8755,-1.8072,-1.7585,-1.7394,-1.7312,-1.7381,-1.7626,-1.7868,-1.8085,-1.882,-1.9731,-2.0691,-2.1155,-2.1462,-2.2436,-2.3391,-2.3465,-2.3595,-2.3595,-2.3595,-2.3595,-2.3595,-2.3595,-2.3475,-2.334,-2.337,-2.3518,-2.3591,-2.419,-2.419,-2.419,-2.419,-2.419,-2.419,-2.419,-2.419,-2.419,-2.5107,-2.6447,-2.6631,-2.7034,-2.7805,-2.865,-2.8888,-2.8778,-2.8943,-2.8975,-2.8975,-2.8975,-2.8975,-2.8975,-2.8994,-2.9434,-3.002,-3.0558,-3.1311,-3.2313,-3.2669,-3.2449,-3.1623,-3.1403,-3.0577,-2.9439,-2.8975,-2.8975,-2.8975,-2.8975,-2.8975,-2.8952,-2.8905,-2.8797,-2.8658,-2.8211,-2.8054,-2.7994,-2.7736,-2.7536,-2.7553,-2.766,-2.742,-2.7087,-2.6982,-2.6897,-2.674,-2.6708,-2.6708,-2.6708,-2.6708,-2.6708,-2.6708,-2.6708,-2.6708,-2.6488,-2.5913,-2.527,-2.4543,-2.3765,-2.3122,-2.4306,-2.2909,-2.1873,-2.15,-2.1198,-2.0472,-2.0316,-2.0193,-2.0092,-1.9899,-1.9819,-1.9909,-1.9985,-1.9968,-1.9912,-1.9727,-1.9492,-1.9145,-1.8514,-1.8214,-1.8054,-1.7961,-1.7933,-1.8249,-1.8588,-1.8835,-1.9339,-2.026,-2.1149,-2.1817,-2.2304,-2.3001,-2.3505,-2.3565,-2.3595,-2.3595,-2.3595,-2.3595,-2.3666,-2.3752,-2.3411,-2.3098,-2.3546,-2.3952,-2.3694,-2.419,-2.419,-2.419,-2.419,-2.419,-2.419,-2.419,-2.419,-2.4226,-2.485,-2.5823,-2.641,-2.6814,-2.7438,-2.8521,-2.8975,-2.8975,-2.8975,-2.8975,-2.8975,-2.8975,-2.8975,-2.8975,-2.8975,-2.947,-3.0112,-3.065,-3.1378,-3.2535,-3.3083,-3.2504,-3.1641,-3.1384,-3.0577,-2.9347,-2.8975,-2.8975,-2.8975,-2.8975,-2.8975,-2.8975,-2.8975,-2.8975,-2.8929,-2.8821,-2.8707,-2.87,-2.8583,-2.8464,-2.8446,-2.8482,-2.8237,-2.7974,-2.7776,-2.7512,-2.6906,-2.6725,-2.6725,-2.6691,-2.6708,-2.6708,-2.6708,-2.6708,-2.6708,-2.6522,-2.6048,-2.5439,-2.4932,-2.4255,-2.3866,-2.4932,-2.3449,-2.2781,-2.2683,-2.2297,-2.172,-2.1155,-2.0778,-2.0527,-2.0287,-2.0356,-2.0571,-2.0953,-2.0887,-2.0725,-2.0421,-2.0059,-1.9613,-1.9088,-1.9002,-1.8963,-1.8658,-1.863,-1.865,-1.9098,-1.9584,-1.9859,-2.0697,-2.1594,-2.2284,-2.2765,-2.3251,-2.3505,-2.358,-2.3595,-2.3595,-2.3595,-2.3595,-2.3752,-2.3891,-2.3793,-2.3738,-2.4132,-2.4315,-2.4039,-2.4247,-2.419,-2.419,-2.419,-2.419,-2.419,-2.419,-2.419,-2.419,-2.4649,-2.5439,-2.6209,-2.6612,-2.6998,-2.797,-2.8815,-2.8938,-2.8975,-2.8975,-2.8975,-2.8975,-2.8975,-2.8975,-2.9072,-2.9329,-2.9843,-3.0907,-3.1818,-3.2609,-3.3358,-3.2797,-3.1825,-3.1384,-3.0595,-2.9347,-2.8975,-2.8975,-2.8975,-2.8975,-2.8975,-2.8975,-2.8975,-2.8975,-2.8975,-2.8975,-2.8975,-2.8952,-2.8929,-2.8905,-2.8929,-2.8905,-2.8791,-2.8489,-2.8394,-2.7946,-2.7147,-2.6906,-2.6873,-2.6939,-2.6725,-2.6758,-2.6891,-2.6758,-2.6725,-2.6522,-2.6116,-2.5625,-2.5609,-2.4712,-2.4526,-2.5084,-2.4191,-2.3715,-2.3829,-2.3736,-2.3406,-2.2306,-2.1672,-2.1323,-2.1145,-2.1068,-2.1186,-2.1485,-2.147,-2.1238,-2.1208,-2.0843,-2.0759,-2.0318,-2.0215,-2.005,-1.958,-1.9315,-1.9107,-1.9522,-2.033,-2.0576,-2.1019,-2.1929,-2.275,-2.3038,-2.3325,-2.346,-2.3595,-2.3595,-2.3595,-2.3595,-2.3638,-2.3822,-2.3987,-2.4143,-2.4356,-2.4626,-2.4655,-2.4455,-2.4375,-2.419,-2.419,-2.419,-2.419,-2.419,-2.419,-2.419,-2.419,-2.4668,-2.5348,-2.6172,-2.6557,-2.6924,-2.7548,-2.8356,-2.881,-2.8975,-2.8975,-2.8975,-2.8975,-2.8975,-2.8994,-2.8975,-2.92,-2.9751,-3.0852,-3.177,-3.2625,-3.3413,-3.2981,-3.1788,-3.1329,-3.0632,-2.9347,-2.903,-2.8975,-2.8975,-2.8975,-2.8975,-2.8975,-2.8975,-2.8975,-2.8975,-2.8975,-2.8975,-2.8975,-2.8975,-2.8975,-2.8975,-2.8975,-2.8797,-2.8471,-2.8394,-2.821,-2.7794,-2.7517,-2.7396,-2.7517,-2.7115,-2.6873,-2.7019,-2.6906,-2.6758,-2.6539,-2.6184,-2.5913,-2.6454,-2.4847,-2.4289,-2.4983,-2.4239,-2.3988,-2.4152,-2.4396,-2.3867,-2.3058,-2.2634,-2.2282,-2.1948,-2.1883,-2.1809,-2.1934,-2.1829,-2.1724,-2.171,-2.168,-2.161,-2.1421,-2.1216,-2.0812,-2.023,-1.9899,-1.9715,-1.9855,-2.0706,-2.1117,-2.141,-2.2188,-2.3053,-2.3293,-2.3445,-2.3505,-2.3595,-2.3638,-2.3709,-2.3752,-2.3864,-2.3948,-2.4164,-2.45,-2.4752,-2.4987,-2.4949,-2.4968,-2.4478,-2.419,-2.419,-2.419,-2.419,-2.419,-2.419,-2.419,-2.4208,-2.4392,-2.4814,-2.5566,-2.6374,-2.7163,-2.7695,-2.8264,-2.887,-2.8975,-2.8975,-2.8975,-2.8975,-2.8975,-2.9127,-2.9457,-2.9677,-3.0026,-3.1164,-3.2173,-3.2834,-3.3238,-3.3146,-3.2192,-3.1568,-3.0907,-2.9641,-2.9195,-2.903,-2.8975,-2.8975,-2.8975,-2.8975,-2.8975,-2.8975,-2.8975,-2.8975,-2.8975,-2.8975,-2.8975,-2.8975,-2.8975,-2.8975,-2.8947,-2.8773,-2.8749,-2.8633,-2.8533,-2.8139,-2.7946,-2.784,-2.7365,-2.7241,-2.7147,-2.6954,-2.6725,-2.6623,-2.6437,-2.6048,-2.6015,-2.4864,-2.4492,-2.4814,-2.4391,-2.4611,-2.4835,-2.5128,-2.4746,-2.4237,-2.3747,-2.3343,-2.3002,-2.2702,-2.2662,-2.26,-2.2592,-2.2514,-2.2304,-2.2304,-2.2248,-2.2039,-2.1749,-2.1231,-2.0646,-2.0444,-2.0288,-2.0527,-2.1021,-2.1356,-2.1715,-2.2218,-2.2959,-2.34,-2.358,-2.3595,-2.3752,-2.3906,-2.3948,-2.3991,-2.4142,-2.4348,-2.4602,-2.4904,-2.5266,-2.564,-2.5914,-2.5962,-2.4591,-2.4266,-2.4228,-2.419,-2.419,-2.419,-2.419,-2.419,-2.419,-2.419,-2.4337,-2.4925,-2.6062,-2.7383,-2.7622,-2.7842,-2.8645,-2.8883,-2.8975,-2.8975,-2.8975,-2.8975,-2.9219,-2.9714,-3.0155,-3.0265,-3.1715,-3.2467,-3.2816,-3.3238,-3.3385,-3.2614,-3.1751,-3.0962,-3.0246,-2.9677,-2.9347,-2.8975,-2.8975,-2.8975,-2.8975,-2.8975,-2.8975,-2.8975,-2.8975,-2.8975,-2.8975,-2.8975,-2.8975,-2.8975,-2.8975,-2.8994,-2.8952,-2.8929,-2.8929,-2.8839,-2.859,-2.8438,-2.8174,-2.784,-2.7577,-2.7409,-2.7115,-2.6858,-2.6691,-2.6674,-2.6404,-2.5761,-2.5236,-2.4831,-2.4763,-2.4797,-2.5186,-2.571,-2.6184,-2.5849,-2.5441,-2.4837,-2.4351,-2.4044,-2.3721,-2.3518,-2.3485,-2.3501,-2.3323,-2.3005,-2.2915,-2.29,-2.2589,-2.2229,-2.1914,-2.138,-2.1096,-2.0976,-2.1126,-2.141,-2.171,-2.2013,-2.2473,-2.2933,-2.3432,-2.3638,-2.3709,-2.3864,-2.4142,-2.4389,-2.4511,-2.4632,-2.4752,-2.5157,-2.5538,-2.6002,-2.6367,-2.6624,-2.6691,-2.467,-2.4461,-2.4284,-2.4209,-2.419,-2.419,-2.419,-2.419,-2.419,-2.4209,-2.4228,-2.4447,-2.5731,-2.7111,-2.7221,-2.7328,-2.7952,-2.8668,-2.8948,-2.9021,-2.9017,-2.9195,-2.9554,-3.0074,-3.0525,-3.0746,-3.2109,-3.272,-3.2706,-3.3081,-3.3073,-3.2596,-3.1953,-3.1054,-3.0485,-3.0173,-2.9659,-2.925,-2.9067,-2.8975,-2.8975,-2.8975,-2.8975,-2.8975,-2.8975,-2.8975,-2.8975,-2.8975,-2.8975,-2.8975,-2.8975,-2.8975,-2.8975,-2.8975,-2.8975,-2.8952,-2.8929,-2.8815,-2.8626,-2.8228,-2.8075,-2.8002,-2.766,-2.7068,-2.6858,-2.6725,-2.6319,-2.5744,-2.5406,-2.5406,-2.5439,-2.5592,-2.571,-2.6201,-2.6505,-2.6303,-2.5979,-2.5818,-2.5334,-2.5054,-2.4697,-2.4346,-2.4061,-2.4002,-2.3666,-2.332,-2.3233,-2.3233,-2.3008,-2.2709,-2.2604,-2.2248,-2.1859,-2.171,-2.171,-2.1949,-2.2218,-2.2398,-2.2733,-2.3121,-2.355,-2.3666,-2.3709,-2.4116,-2.443,-2.4712,-2.5067,-2.5243,-2.5486,-2.5779,-2.612,-2.6367,-2.6556,-2.6657,-2.6708,-2.4872,-2.4776,-2.4491,-2.4321,-2.419,-2.419,-2.419,-2.419,-2.419,-2.4266,-2.443,-2.4819,-2.5519,-2.6407,-2.7298,-2.7475,-2.7897,-2.865,-2.9038,-2.9407,-2.9657,-3.0023,-3.0553,-3.1306,-3.2227,-3.2291,-3.3087,-3.3247,-3.2913,-3.2845,-3.2632,-3.2339,-3.2265,-3.2082,-3.1586,-3.0687,-3.0026,-2.9714,-2.925,-2.8994,-2.8975,-2.8975,-2.8975,-2.8975,-2.8975,-2.8975,-2.8975,-2.8975,-2.8975,-2.8975,-2.8975,-2.8975,-2.8975,-2.8975,-2.8975,-2.8975,-2.8975,-2.8975,-2.8952,-2.8507,-2.821,-2.7936,-2.7619,-2.7241,-2.7036,-2.6841,-2.6352,-2.5896,-2.5642,-2.571,-2.5609,-2.5625,-2.5812,-2.642,-2.6657,-2.6539,-2.6401,-2.6227,-2.6049,-2.5603,-2.5265,-2.4902,-2.4641,-2.443,-2.4032,-2.3636,-2.3593,-2.3505,-2.3251,-2.3098,-2.2963,-2.2847,-2.2488,-2.2353,-2.2353,-2.2517,-2.2712,-2.2888,-2.3023,-2.3363,-2.3706,-2.3595,-2.3752,-2.4199,-2.4752,-2.5144,-2.5524,-2.5908,-2.6104,-2.612,-2.6297,-2.6505,-2.6624,-2.6708,-2.6708,-2.4991,-2.4943,-2.4632,-2.4428,-2.4303,-2.4284,-2.4266,-2.4209,-2.4266,-2.4524,-2.4869,-2.5375,-2.5616,-2.608,-2.7189,-2.7624,-2.7864,-2.8569,-2.9161,-2.9675,-3.0244,-3.0753,-3.1487,-3.2317,-3.3089,-3.3523,-3.3858,-3.3804,-3.339,-3.2508,-3.2658,-3.2963,-3.2944,-3.2834,-3.2173,-3.1109,-3.0228,-3.0026,-2.9494,-2.8994,-2.8975,-2.8975,-2.8975,-2.8975,-2.8975,-2.8975,-2.8975,-2.8975,-2.8975,-2.8975,-2.8975,-2.8975,-2.8975,-2.8975,-2.8975,-2.8975,-2.8975,-2.8975,-2.891,-2.8749,-2.8412,-2.8156,-2.7765,-2.747,-2.7241,-2.6922,-2.6403,-2.5778,-2.5761,-2.5862,-2.5761,-2.5845,-2.6099,-2.6657,-2.6691,-2.6624,-2.659,-2.6453,-2.6332,-2.6123,-2.5799,-2.5427,-2.523,-2.4934,-2.4328,-2.3867,-2.3623,-2.3535,-2.3385,-2.3236,-2.3161,-2.3101,-2.3011,-2.2966,-2.2966,-2.3098,-2.32,-2.3272,-2.3435,-2.3618,-2.3842,-2.3834,-2.4199,-2.495,-2.5411,-2.5689,-2.598,-2.6315,-2.6332,-2.6297,-2.647,-2.6657,-2.6657,-2.6708,-2.6708,-2.5022,-2.4943,-2.4666,-2.4528,-2.4493,-2.4495,-2.4393,-2.4303,-2.4428,-2.4866,-2.5476,-2.5853,-2.5836,-2.613,-2.7401,-2.781,-2.7568,-2.8667,-2.9494,-2.9868,-3.0544,-3.0938,-3.1673,-3.2598,-3.3582,-3.358,-3.3877,-3.4106,-3.3939,-3.3326,-3.3411,-3.3513,-3.3403,-3.333,-3.2559,-3.1035,-3.0265,-3.0118,-2.9494,-2.9085,-2.914,-2.9182,-2.92,-2.9219,-2.9195,-2.9232,-2.8994,-2.8975,-2.8975,-2.8975,-2.8975,-2.8975,-2.8975,-2.8975,-2.8975,-2.8975,-2.8975,-2.8975,-2.8975,-2.8952,-2.8749,-2.8394,-2.8047,-2.7678,-2.7317,-2.6935,-2.6505,-2.5964,-2.6184,-2.6201,-2.6167,-2.6184,-2.6505,-2.6657,-2.6691,-2.6708,-2.6674,-2.6624,-2.6521,-2.6436,-2.6227,-2.5957,-2.5787,-2.5426,-2.4701,-2.4166,-2.3782,-2.3621,-2.3643,-2.3598,-2.358,-2.3606,-2.3633,-2.3633,-2.3618,-2.3601,-2.3649,-2.3706,-2.3914,-2.4174,-2.4378,-2.4561,-2.5051,-2.5705,-2.5835,-2.5908,-2.628,-2.6657,-2.6556,-2.6487,-2.6556,-2.6691,-2.6708,-2.6742,-2.6776,-2.5184,-2.5163,-2.4924,-2.4831,-2.4804,-2.4607,-2.451,-2.4591,-2.4689,-2.4892,-2.5418,-2.6246,-2.6113,-2.6291,-2.7704,-2.8422,-2.7616,-2.878,-2.9695,-2.9991,-3.0798,-3.163,-3.2333,-3.3073,-3.3918,-3.4302,-3.4438,-3.3883,-3.3343,-3.3301,-3.3099,-3.3073,-3.3605,-3.366,-3.3054,-3.1898,-3.0999,-3.0742,-2.9898,-2.9214,-2.9714,-2.9806,-2.9787,-2.9787,-2.9751,-2.9489,-2.903,-2.8994,-2.8975,-2.8975,-2.8975,-2.8975,-2.8975,-2.8975,-2.8975,-2.8975,-2.8975,-2.8975,-2.8975,-2.8975,-2.8952,-2.8633,-2.8264,-2.788,-2.7666,-2.7068,-2.6638,-2.642,-2.6555,-2.6538,-2.6505,-2.6505,-2.6674,-2.6674,-2.6708,-2.6708,-2.6708,-2.6708,-2.6624,-2.6624,-2.6487,-2.6243,-2.6046,-2.5954,-2.5362,-2.5005,-2.4689,-2.4561,-2.4523,-2.4312,-2.4215,-2.4256,-2.4271,-2.4302,-2.4282,-2.4199,-2.4282,-2.4455,-2.4641,-2.4839,-2.5051,-2.5269,-2.5584,-2.6089,-2.6115,-2.6104,-2.6687,-2.7097,-2.6793,-2.6708,-2.6877,-2.681,-2.6708,-2.681,-2.6962,-2.5313,-2.5274,-2.5069,-2.5034,-2.5053,-2.4809,-2.4752,-2.485,-2.4883,-2.5063,-2.5698,-2.6839,-2.6953,-2.6961,-2.8283,-2.9169,-2.7972,-2.9112,-2.9943,-3.0237,-3.1049,-3.1922,-3.2746,-3.3498,-3.4192,-3.4698,-3.4496,-3.3902,-3.358,-3.3191,-3.3154,-3.3293,-3.3532,-3.3715,-3.333,-3.2522,-3.1806,-3.1476,-3.0742,-3.0191,-3.0503,-3.0558,-3.0448,-3.0246,-3.0063,-2.9824,-2.9255,-2.8975,-2.8975,-2.8975,-2.8975,-2.8975,-2.8975,-2.8975,-2.8975,-2.8975,-2.8975,-2.8975,-2.8975,-2.8975,-2.8975,-2.8929,-2.8386,-2.8129,-2.801,-2.753,-2.7178,-2.6952,-2.6906,-2.6774,-2.6708,-2.6725,-2.6708,-2.6708,-2.6708,-2.6708,-2.6708,-2.6708,-2.6708,-2.6708,-2.6657,-2.6453,-2.6314,-2.6262,-2.6033,-2.5859,-2.5721,-2.5533,-2.5341,-2.5012,-2.4792,-2.4816,-2.4816,-2.4776,-2.4792,-2.4752,-2.491,-2.5144,-2.5384,-2.5562,-2.5777,-2.6008,-2.6241,-2.6568,-2.7064,-2.7425,-2.75,-2.7571,-2.7571,-2.7452,-2.7368,-2.7182,-2.6793,-2.6945,-2.7232,-2.5313,-2.5274,-2.5088,-2.5122,-2.5234,-2.5065,-2.4991,-2.501,-2.501,-2.55,-2.6339,-2.7363,-2.7486,-2.7778,-2.9232,-2.9398,-2.8897,-2.957,-3.0054,-3.0452,-3.1034,-3.1975,-3.2735,-3.3372,-3.4063,-3.4529,-3.4492,-3.4037,-3.4073,-3.3725,-3.3623,-3.3678,-3.3733,-3.3807,-3.3495,-3.3109,-3.2577,-3.2137,-3.1513,-3.1146,-3.1347,-3.1421,-3.1054,-3.0723,-3.0393,-2.9898,-2.9365,-2.8975,-2.8975,-2.8975,-2.8975,-2.8975,-2.8975,-2.8975,-2.8975,-2.8975,-2.8975,-2.8975,-2.8975,-2.8975,-2.8975,-2.8952,-2.8658,-2.8489,-2.8237,-2.788,-2.7439,-2.721,-2.7083,-2.6906,-2.6791,-2.6725,-2.6708,-2.6708,-2.6708,-2.6708,-2.6708,-2.6708,-2.6708,-2.6708,-2.6708,-2.659,-2.659,-2.6556,-2.6436,-2.6385,-2.6195,-2.6002,-2.5766,-2.5486,-2.5297,-2.5395,-2.5357,-2.5221,-2.5259,-2.5335,-2.547,-2.5709,-2.6118,-2.6379,-2.6554,-2.6859,-2.73,-2.7813,-2.8446,-2.8653,-2.8384,-2.8469,-2.8706,-2.8484,-2.8078,-2.7858,-2.7571,-2.7469,-2.7689,-2.5313,-2.5284,-2.5234,-2.5234,-2.5303,-2.5224,-2.5233,-2.5214,-2.5214,-2.5713,-2.6568,-2.7484,-2.7588,-2.7144,-2.9224,-2.9186,-2.9186,-2.9466,-3.0119,-3.0552,-3.0763,-3.1718,-3.2401,-3.2896,-3.3618,-3.418,-3.4307,-3.3986,-3.391,-3.3807,-3.3834,-3.3788,-3.3842,-3.3834,-3.3715,-3.355,-3.3128,-3.2651,-3.1971,-3.199,-3.2155,-3.2247,-3.1733,-3.1292,-3.0962,-3.032,-2.9439,-2.9127,-2.909,-2.9017,-2.9012,-2.8994,-2.8975,-2.8975,-2.8975,-2.8975,-2.8975,-2.8975,-2.8975,-2.8975,-2.8975,-2.8975,-2.8863,-2.8658,-2.8368,-2.7974,-2.7589,-2.747,-2.7286,-2.7115,-2.6939,-2.6825,-2.6758,-2.6708,-2.6708,-2.6708,-2.6708,-2.6708,-2.6708,-2.6708,-2.6708,-2.6708,-2.6708,-2.6657,-2.659,-2.6657,-2.6624,-2.6436,-2.6245,-2.5908,-2.5835,-2.5908,-2.5783,-2.5672,-2.5872,-2.6016,-2.6087,-2.6279,-2.6666,-2.7071,-2.7341,-2.7715,-2.8364,-2.8856,-2.9279,-2.9194,-2.8926,-2.913,-2.9448,-2.9093,-2.8704,-2.8552,-2.8399,-2.8349,-2.8433,-2.5313,-2.5313,-2.5313,-2.5313,-2.5313,-2.5313,-2.5313,-2.5313,-2.5313,-2.5783,-2.6659,-2.7525,-2.7621,-2.7572,-2.9283,-2.9725,-2.8668,-2.9694,-3.0379,-3.0379,-3.0398,-3.1545,-3.2215,-3.2613,-3.3373,-3.3987,-3.4265,-3.3975,-3.3876,-3.3928,-3.3935,-3.3834,-3.385,-3.385,-3.3823,-3.3715,-3.355,-3.3128,-3.2779,-3.2724,-3.2852,-3.3018,-3.2559,-3.1953,-3.1641,-3.065,-2.9714,-2.9512,-2.9365,-2.9219,-2.9159,-2.9269,-2.9163,-2.8975,-2.8975,-2.8975,-2.8975,-2.8975,-2.8975,-2.8975,-2.8975,-2.8975,-2.8975,-2.8863,-2.8682,-2.8386,-2.8102,-2.7862,-2.7601,-2.7348,-2.7115,-2.6939,-2.6825,-2.6725,-2.6725,-2.6708,-2.6708,-2.6708,-2.6708,-2.6708,-2.6708,-2.6708,-2.6708,-2.6708,-2.6708,-2.6708,-2.6708,-2.6624,-2.6539,-2.6401,-2.6315,-2.6401,-2.6245,-2.6087,-2.6332,-2.6504,-2.6504,-2.6672,-2.7126,-2.7533,-2.7941,-2.867,-2.9364,-2.9702,-2.9956,-2.9854,-2.9786,-2.9905,-3.0091,-2.9753,-2.9567,-2.9533,-2.9448,-2.9364,-2.955,-2.5313,-2.5313,-2.5313,-2.5313,-2.5313,-2.5313,-2.5313,-2.5313,-2.5313,-2.5793,-2.664,-2.7409,-2.7659,-2.7755,-2.9256,-2.9583,-2.9198,-2.9813,-3.0398,-3.0398,-3.0398,-3.1256,-3.2186,-3.2684,-3.3086,-3.3939,-3.4326,-3.4037,-3.3961,-3.3961,-3.3935,-3.3842,-3.3986,-3.3986,-3.3815,-3.3807,-3.3697,-3.3587,-3.3495,-3.3513,-3.3605,-3.3642,-3.3421,-3.2577,-3.1898,-3.1127,-3.054,-3.0191,-2.9989,-2.9732,-2.9586,-2.9751,-2.9274,-2.8975,-2.8975,-2.8975,-2.8975,-2.8975,-2.8975,-2.8975,-2.8975,-2.8975,-2.8975,-2.8952,-2.8815,-2.8608,-2.8316,-2.8156,-2.789,-2.7542,-2.7286,-2.7147,-2.7019,-2.6825,-2.6708,-2.6708,-2.6708,-2.6708,-2.6708,-2.6708,-2.6708,-2.6708,-2.6708,-2.6708,-2.6708,-2.6708,-2.6708,-2.6708,-2.6928,-2.686,-2.6809,-2.6843,-2.6589,-2.6435,-2.6589,-2.6725,-2.6759,-2.6995,-2.7621,-2.7977,-2.8332,-2.9279,-3.0395,-3.0497,-3.0548,-3.0818,-3.0869,-3.0784,-3.0683,-3.0666,-3.0548,-3.0581,-3.0497,-3.0277,-3.0311,-2.5313,-2.5313,-2.5313,-2.5313,-2.5313,-2.5313,-2.5313,-2.5313,-2.5313,-2.5793,-2.6524,-2.6794,-2.6909,-2.7178,-2.8736,-2.9063,-2.8717,-2.9756,-3.0283,-3.0398,-3.0398,-3.0956,-3.1969,-3.2445,-3.274,-3.2996,-3.3484,-3.4134,-3.4068,-3.3986,-3.4012,-3.4043,-3.4068,-3.3902,-3.3834,-3.3807,-3.3807,-3.3807,-3.3807,-3.3807,-3.3807,-3.3697,-3.3421,-3.2834,-3.2228,-3.1843,-3.1347,-3.1091,-3.1017,-3.0907,-3.0338,-2.9824,-2.909,-2.903,-2.8994,-2.8975,-2.8975,-2.8975,-2.8975,-2.8975,-2.8975,-2.8975,-2.8975,-2.8975,-2.8887,-2.8682,-2.8515,-2.8368,-2.8183,-2.7805,-2.75,-2.7348,-2.7178,-2.6939,-2.6708,-2.6708,-2.6708,-2.6708,-2.6708,-2.6708,-2.6708,-2.6759,-2.6776,-2.6793,-2.6708,-2.6708,-2.6708,-2.6843,-2.7402,-2.7536,-2.7282,-2.7215,-2.686,-2.6776,-2.6962,-2.7199,-2.7368,-2.7757,-2.8383,-2.8602,-2.8772,-2.9786,-3.0818,-3.0987,-3.1123,-3.119,-3.119,-3.114,-3.1089,-3.1123,-3.1089,-3.0937,-3.0954,-3.0801,-3.0869,-2.5313,-2.5313,-2.5313,-2.5313,-2.5313,-2.5313,-2.5313,-2.5313,-2.5313,-2.5553,-2.6053,-2.637,-2.6409,-2.6524,-2.814,-2.8679,-2.8352,-2.9679,-3.0225,-3.0398,-3.0494,-3.0956,-3.1597,-3.2292,-3.2754,-3.3015,-3.3529,-3.4012,-3.4062,-3.4068,-3.4074,-3.4068,-3.3928,-3.3902,-3.386,-3.3807,-3.3807,-3.3807,-3.3807,-3.3807,-3.3807,-3.3733,-3.366,-3.3183,-3.2761,-3.2375,-3.2192,-3.1898,-3.1678,-3.1476,-3.0944,-3.0393,-2.9824,-2.9622,-2.9365,-2.9104,-2.8975,-2.8975,-2.8975,-2.8975,-2.8975,-2.8975,-2.8975,-2.8975,-2.8994,-2.8815,-2.8815,-2.87,-2.8676,-2.836,-2.7851,-2.7619,-2.7241,-2.6906,-2.6758,-2.6708,-2.6708,-2.6708,-2.6708,-2.6708,-2.6911,-2.7334,-2.7469,-2.7875,-2.7859,-2.7928,-2.7759,-2.7656,-2.8096,-2.8349,-2.8061,-2.7909,-2.7757,-2.7706,-2.801,-2.8146,-2.8197,-2.8653,-2.9059,-2.9567,-2.9939,-3.0565,-3.119,-3.119,-3.119,-3.119,-3.119,-3.119,-3.119,-3.1157,-3.1173,-3.1157,-3.119,-3.119,-3.1157,-2.5313,-2.5313,-2.5313,-2.5313,-2.5313,-2.5313,-2.5313,-2.5313,-2.5313,-2.5313,-2.5437,-2.6101,-2.5928,-2.6524,-2.7678,-2.8044,-2.8698,-2.9813,-3.0294,-3.0398,-3.0398,-3.0744,-3.141,-3.2218,-3.2702,-3.3088,-3.3462,-3.3758,-3.3954,-3.3986,-3.3986,-3.3921,-3.3935,-3.4018,-3.3868,-3.3807,-3.3807,-3.3807,-3.3807,-3.3807,-3.3807,-3.3807,-3.377,-3.3513,-3.3201,-3.2797,-3.2761,-3.2651,-3.232,-3.2008,-3.1641,-3.0907,-3.0356,-3.0008,-2.9549,-2.9214,-2.8975,-2.8975,-2.8975,-2.8975,-2.8975,-2.8975,-2.8994,-2.9012,-2.903,-2.903,-2.8989,-2.9025,-2.9025,-2.8712,-2.821,-2.7994,-2.7556,-2.6975,-2.6859,-2.686,-2.6877,-2.6911,-2.6928,-2.6945,-2.7435,-2.7926,-2.823,-2.867,-2.8842,-2.8982,-2.9068,-2.9066,-2.9117,-2.9197,-2.9093,-2.9194,-2.9279,-2.9245,-2.8991,-2.9042,-2.9042,-2.9093,-2.9516,-3.0328,-3.0954,-3.1106,-3.119,-3.119,-3.119,-3.119,-3.119,-3.119,-3.119,-3.119,-3.119,-3.119,-3.119,-3.119,-3.119,-2.5313,-2.5313,-2.5313,-2.5313,-2.5313,-2.5313,-2.5313,-2.5313,-2.5313,-2.5313,-2.5351,-2.5447,-2.5717,-2.639,-2.7486,-2.8198,-2.8929,-2.9948,-3.0294,-3.0398,-3.0398,-3.0533,-3.097,-3.184,-3.253,-3.2975,-3.3282,-3.3389,-3.3817,-3.3928,-3.3986,-3.4068,-3.3868,-3.3868,-3.3842,-3.3807,-3.3807,-3.3807,-3.3807,-3.3807,-3.3807,-3.3807,-3.3807,-3.3715,-3.3678,-3.3587,-3.3587,-3.3587,-3.3495,-3.322,-3.2559,-3.1549,-3.0723,-3.0173,-2.9727,-2.9287,-2.9072,-2.9159,-2.9177,-2.9347,-2.9402,-2.9177,-2.9177,-2.9182,-2.9159,-2.9159,-2.9195,-2.9287,-2.9179,-2.8771,-2.8434,-2.8716,-2.8452,-2.7499,-2.703,-2.7317,-2.7503,-2.7655,-2.7774,-2.8061,-2.8484,-2.8721,-2.8805,-2.9093,-2.9194,-2.9319,-2.9336,-2.9401,-2.9841,-2.9993,-3.0057,-3.026,-3.0463,-2.9871,-2.9262,-2.9736,-2.982,-2.9803,-2.9922,-3.0632,-3.1072,-3.114,-3.119,-3.119,-3.119,-3.119,-3.119,-3.119,-3.119,-3.119,-3.119,-3.119,-3.119,-3.119,-3.119]}]]